GFSSGP_con_sbcape_003.txt.gz
CAPE
0 0 0 0 0 0 0 0 0 0 6 120 148 303 545 585 824 818 879 1392 1360 1359 1131 911 841 886 1318 1700 1994 2112 2252 2459 2293 2212 2219 1969 1307 376 956 883 738 659 928 1165 1754 1731 1642 1663 1813
0 0 0 0 0 1 5 0 0 0 0 0 307 304 473 922 871 1107 1239 1602 1595 1347 1222 1062 938 1038 1109 1508 1717 2021 2138 2085 2328 2274 2112 1570 1124 361 70 74 49 651 867 1077 1206 1355 1583 1624 1761
0 0 0 0 0 12 5 0 0 0 0 0 265 698 908 1179 1198 1211 1403 1610 1664 1510 1260 1096 1362 1372 1254 1305 1545 1757 1854 1882 1942 2179 2202 1702 1450 284 93 68 269 680 1302 1373 1390 1273 1671 1587 1451
0 0 0 0 1 0 0 0 0 0 0 2 273 873 1048 1236 1453 1379 1549 1634 1794 1664 1586 1200 1487 1476 1193 805 1119 1580 1608 1493 1697 1943 2105 1909 1661 585 239 121 820 1247 1236 1000 1175 1271 1288 1096 1020
0 0 0 0 0 0 0 0 0 1 115 211 325 785 1111 1479 1764 1796 1634 1750 1760 1845 1813 1703 1585 1642 1413 1142 867 1189 1597 1462 1411 1591 1872 1725 1430 1409 1301 1148 1077 1080 630 389 927 1119 732 637 861
0 0 0 0 0 0 0 0 0 34 110 387 665 1002 1197 1520 1936 2081 1758 1646 1644 1806 1796 1991 1482 1481 1364 1243 1220 1129 1216 1391 1439 1398 1474 1492 1454 1208 989 1072 1385 1300 1184 1287 1589 1223 768 558 534
0 0 0 0 0 0 0 0 0 0 43 111 417 615 1402 1274 1663 1855 1922 1810 1465 1318 1585 1767 1861 1511 1175 820 533 597 874 875 1152 1366 1351 1310 1391 1264 926 276 350 520 739 650 804 892 567 250 376
0 0 0 0 0 0 0 0 0 0 0 0 0 448 975 1306 1777 1720 1745 1938 1917 1665 1460 1573 1642 1594 1614 1522 279 337 551 695 825 1014 824 775 985 901 87 77 0 0 3 0 79 474 484 297 250
0 0 0 0 0 0 0 0 0 0 0 0 0 22 839 1406 1645 1662 1720 1677 1459 983 994 1696 1885 1818 1316 791 300 703 945 616 670 713 396 372 1257 858 651 7 0 0 0 0 0 0 74 180 126
0 0 0 0 0 0 0 0 0 0 0 0 0 238 835 1113 1084 1212 1226 967 351 197 122 314 1187 1542 1290 609 323 1283 1388 1076 1041 1036 1010 747 785 802 575 203 4 0 0 0 0 0 0 67 311
0 0 0 0 0 0 0 0 0 0 0 0 0 71 523 771 806 814 503 142 0 0 0 9 448 1000 1429 1069 1075 1370 1089 1037 735 743 564 610 182 140 351 371 316 85 0 5 1 0 0 0 0
0 0 0 0 0 0 0 0 0 0 0 0 0 1 176 313 272 144 3 0 0 0 0 0 216 518 569 512 590 717 422 235 207 469 447 357 193 211 175 166 65 63 17 5 0 0 5 0 0
0 0 0 0 0 0 0 0 0 0 0 0 0 0 12 14 0 0 0 0 0 0 0 0 0 80 269 154 78 14 0 0 0 0 0 3 0 49 23 2 1 1 0 7 22 0 0 56 25
0 0 0 0 0 0 0 0 0 0 0 0 0 0 0 0 0 0 0 0 0 0 0 0 0 0 0 2 0 0 0 0 0 0 0 0 0 1 10 3 2 2 11 57 246 187 169 137 103
0 0 0 0 0 0 0 0 0 0 0 0 0 0 0 0 0 0 0 0 0 0 0 0 0 0 0 0 0 0 0 0 0 0 0 0 0 0 0 0 0 0 0 1 0 0 13 269 299
0 0 0 0 0 0 0 0 0 0 0 0 0 0 0 0 0 0 0 0 0 0 0 0 0 0 0 0 0 0 0 0 0 0 0 0 0 0 0 0 0 0 0 0 0 0 0 0 30
0 0 0 0 0 0 0 0 0 0 0 0 0 0 0 0 0 0 0 0 0 0 0 0 0 0 0 0 0 0 0 0 0 0 0 0 0 0 0 0 0 0 0 0 0 0 0 0 0
0 0 0 0 0 0 0 0 0 0 0 0 0 0 0 0 0 0 0 0 0 0 0 0 0 0 0 0 0 0 0 0 0 0 0 0 0 0 0 0 0 0 0 0 0 0 0 0 0
0 0 0 0 0 0 0 0 0 0 0 0 0 0 0 0 0 0 0 0 0 0 0 0 0 0 0 0 0 0 0 0 0 0 0 0 0 0 0 0 0 0 0 0 0 0 0 0 0
0 0 0 0 0 0 0 0 0 0 0 0 0 0 0 0 0 0 0 0 0 0 0 0 0 0 0 0 0 0 0 0 0 0 0 0 0 0 0 0 0 0 0 0 0 0 0 0 1
0 0 0 0 0 0 0 0 0 0 0 0 0 0 0 0 0 0 0 0 0 0 0 0 0 0 0 0 0 0 0 0 0 0 0 0 0 0 0 0 0 0 2 2 6 4 4 0 5
0 0 0 0 0 0 0 0 0 0 0 0 0 0 0 0 0 0 0 0 0 0 0 0 0 0 0 0 0 0 0 0 0 0 0 0 0 6 14 7 4 7 7 17 39 21 33 53 24
0 0 0 0 0 0 0 0 2 0 0 0 0 0 0 0 0 0 0 0 0 0 0 0 0 0 0 0 0 0 0 0 0 0 0 0 0 0 0 0 5 11 11 38 91 111 125 78 88
0 0 0 0 0 1 0 0 0 0 0 0 0 0 0 0 0 0 0 0 0 0 0 0 0 0 0 0 0 0 0 0 0 0 0 0 1 2 2 0 0 0 0 0 62 101 92 118 108
0 0 1 7 13 9 0 0 0 0 0 0 0 0 0 0 0 0 0 0 0 0 0 0 0 0 0 0 0 0 0 0 0 0 0 0 0 0 0 0 0 0 0 0 0 8 32 24 32
0 0 0 0 0 0 0 0 0 0 0 0 0 0 0 0 0 0 0 0 0 0 0 0 0 0 0 0 0 0 0 0 0 0 0 0 0 0 0 0 0 0 0 0 0 0 8 18 26
0 2 0 0 0 1 0 0 0 0 0 0 0 0 2 0 0 8 5 3 1 0 0 0 0 0 0 0 0 0 0 0 0 0 0 0 0 0 0 0 0 0 0 0 0 0 16 42 67
0 0 2 10 24 17 3 1 0 0 13 1 0 0 0 3 8 7 9 7 5 0 0 7 0 0 0 0 0 0 0 0 0 0 0 0 0 0 0 0 0 0 0 0 0 1 1 36 55
0 5 0 1 0 37 21 6 0 0 0 0 3 0 4 2 3 3 7 5 10 13 0 0 0 0 0 0 0 0 0 0 0 0 0 0 0 0 0 0 0 0 0 0 0 0 8 45 53
0 0 0 12 7 16 48 5 0 0 0 0 1 14 9 0 4 9 7 13 11 13 0 0 0 0 0 0 0 0 0 0 0 0 0 0 0 0 0 0 0 0 0 0 0 0 1 6 13

GFSSGP_con_sbcape_006.txt.gz
CAPE
0 0 0 0 0 0 0 0 0 0 0 28 26 364 381 453 553 630 919 1160 1250 1144 863 196 886 828 1072 1531 2018 2251 2433 2158 2389 2439 1943 1852 1257 1318 1313 1000 656 677 38 3 500 979 1196 1425 1588
0 0 0 0 0 0 0 0 0 0 0 0 37 385 476 600 886 861 1307 1306 1298 1170 801 536 1180 1104 852 1076 1397 1981 2209 2171 2187 2275 1989 1660 1255 885 1059 376 91 113 296 219 641 707 778 1191 913
0 0 0 0 0 1 0 0 0 0 0 0 51 561 533 862 815 994 1483 1429 1376 1350 1146 917 1285 1216 1065 1208 1485 1683 1851 2033 2189 2194 2001 1864 1627 946 792 805 417 596 1057 1394 753 160 523 735 694
0 0 0 0 0 0 0 0 0 0 0 0 93 708 986 1161 1033 1248 1347 1528 1554 1555 1397 1135 1417 1401 1209 937 1341 1734 1727 1817 2117 2182 2233 2304 1065 674 360 231 244 894 912 525 60 3 355 643 548
0 0 0 0 0 0 0 0 0 0 31 28 161 409 892 1524 1544 1335 1364 1381 1564 1642 1780 1363 1494 1642 1576 1388 1470 1573 1752 1669 1668 1989 2010 1917 1830 1689 1270 1243 1258 959 419 0 2 0 70 233 743
0 0 0 0 0 0 0 0 0 17 47 107 120 111 1081 1510 1692 1725 1403 1318 1569 1783 1955 1711 1555 1629 1507 1362 1227 1152 1323 1445 1592 1623 1594 1800 1676 1497 1288 1206 1228 994 687 426 253 463 762 871 547
0 0 0 0 0 0 0 0 0 0 33 38 157 436 410 975 1846 1768 1426 1291 1190 1278 1547 1972 1880 1607 1344 1053 866 887 932 1103 1372 1440 1351 1446 1548 993 659 654 391 181 169 310 624 697 752 631 709
0 0 0 0 0 0 0 0 0 0 0 0 0 204 482 994 1703 1679 1547 1556 1574 1547 1478 1624 1711 2056 1279 621 526 617 912 988 1127 1345 1180 1412 1186 482 238 209 102 24 83 0 0 0 68 452 406
0 0 0 0 0 0 0 0 0 0 0 0 0 67 1116 1443 1544 1439 1399 1316 1387 913 1184 1805 1768 2042 1668 1418 700 883 974 1068 974 789 853 570 1272 789 225 16 0 0 0 0 0 0 0 0 52
0 0 0 0 0 0 0 0 0 0 0 0 0 1 447 1037 1195 1016 865 982 616 297 172 426 1060 1541 1670 1180 642 1833 1497 1300 1141 1159 939 932 890 307 231 46 3 0 0 0 0 0 0 0 0
0 0 0 0 0 0 0 0 0 0 0 0 0 1 54 274 419 550 353 241 17 31 41 52 738 1332 1788 1623 1551 1436 1200 1204 1070 990 849 512 284 249 273 271 229 104 0 0 0 0 0 0 0
0 0 0 0 0 0 0 0 0 0 0 0 0 0 3 84 200 212 158 2 0 0 0 9 555 922 980 855 753 864 516 539 439 422 492 458 339 186 162 41 13 0 2 1 1 0 0 0 0
0 0 0 0 0 0 0 0 0 0 0 0 0 0 0 7 42 12 0 0 0 0 0 0 110 469 727 463 357 176 46 0 0 5 0 85 79 109 38 0 0 0 1 0 0 0 0 0 0
0 0 0 0 0 0 0 0 0 0 0 0 0 0 0 0 0 0 0 0 0 0 0 0 0 49 46 252 79 3 0 0 0 0 0 0 2 11 3 0 0 0 0 0 4 12 11 4 0
0 0 0 0 0 0 0 0 0 0 0 0 0 0 0 0 0 0 0 0 0 0 0 0 0 0 0 0 0 0 0 0 0 0 0 0 0 0 0 0 0 0 0 0 0 0 0 0 12
0 0 0 0 0 0 0 0 0 0 0 0 0 0 0 0 0 0 0 0 0 0 0 0 0 0 0 0 0 0 0 0 0 0 0 0 0 0 0 0 0 0 0 0 0 0 0 0 0
0 0 0 0 0 0 0 0 0 0 0 0 0 0 0 0 0 0 0 0 0 0 0 0 0 0 0 0 0 0 0 0 0 0 0 0 0 0 0 0 0 0 0 0 0 0 0 0 0
0 0 0 0 0 0 0 0 0 0 0 0 0 0 0 0 0 0 0 0 0 0 0 0 0 0 0 0 0 0 0 0 0 0 0 0 0 0 0 0 0 0 0 0 0 0 0 0 0
0 0 0 0 0 0 0 0 0 0 0 0 0 0 0 0 0 0 0 0 0 0 0 0 0 0 0 0 0 0 0 0 0 0 0 0 0 0 0 0 0 0 0 0 0 0 0 0 0
0 0 0 0 0 0 0 0 0 0 0 0 0 0 0 0 0 0 0 0 0 0 0 0 0 0 0 0 0 0 0 0 0 0 0 0 0 0 0 0 0 0 0 0 0 2 0 0 0
0 0 0 0 0 0 0 0 0 0 0 0 0 0 0 0 0 0 0 0 0 0 0 0 0 0 0 0 0 0 0 0 0 0 0 0 0 0 0 0 0 0 0 0 0 0 0 0 0
0 0 0 0 0 0 0 0 0 0 0 0 0 0 0 0 0 0 0 0 0 0 0 0 0 0 0 0 0 0 0 0 0 0 0 0 6 7 13 23 41 43 26 3 3 3 22 13 1
0 0 0 0 0 0 0 0 0 0 0 0 0 0 0 0 0 0 0 0 0 0 0 0 0 0 0 0 0 0 0 0 0 0 0 0 0 0 0 0 9 28 30 24 10 3 0 0 5
0 0 0 0 0 76 10 0 0 0 0 0 0 0 0 0 0 0 0 0 0 0 0 0 0 0 0 0 0 0 0 0 0 0 0 0 0 0 0 0 0 0 0 0 0 0 0 0 0
0 0 12 213 355 153 0 0 0 0 0 0 0 0 0 0 0 0 0 0 0 0 0 0 0 0 0 0 0 0 0 0 0 0 0 0 0 0 0 0 0 0 0 0 0 0 0 0 0
0 0 6 0 0 0 0 0 0 0 0 0 0 0 0 0 0 0 1 14 3 0 0 0 0 0 0 0 0 0 0 0 0 0 0 0 0 0 0 0 0 0 0 0 0 0 0 0 0
0 1 0 0 0 4 0 0 0 0 0 0 0 0 0 0 0 0 2 10 6 5 0 0 0 0 0 0 0 0 0 0 0 0 0 0 0 0 0 0 1 0 0 0 0 0 0 0 0
0 0 0 15 12 7 0 0 0 46 31 4 16 4 0 0 0 0 0 0 0 0 0 0 0 0 0 0 0 0 0 0 0 0 0 0 0 0 2 1 0 0 0 0 0 0 0 0 0
0 0 17 8 31 37 22 2 0 0 0 6 2 0 0 1 1 0 0 0 0 0 0 0 0 0 0 0 0 0 0 0 0 0 0 0 2 0 1 0 0 0 0 0 0 0 0 0 0
0 0 5 18 2 16 12 0 0 4 39 9 33 13 5 1 0 0 0 0 0 0 0 0 0 0 0 0 0 0 0 0 0 0 0 0 2 0 1 0 0 0 0 0 0 0 0 0 0

GFSSGP_con_sbcape_009.txt.gz
CAPE
0 0 0 0 0 0 0 0 0 0 0 148 275 359 375 395 519 628 1020 1094 795 374 196 594 852 984 1210 1564 1989 2139 2025 2269 2426 2334 2129 2112 2003 1816 1478 1344 1424 1637 593 439 472 1032 831 791 793
0 0 0 0 0 0 0 0 0 0 0 156 187 21 352 575 1030 1038 1076 1141 761 512 577 748 976 1093 1298 1500 1780 2000 2005 2020 2126 2326 2375 1779 1676 1607 1403 972 375 394 420 527 947 982 398 450 609
0 0 0 0 0 0 0 0 0 0 0 0 253 61 422 589 768 1361 1417 1337 943 559 768 1005 1047 955 1069 1569 1756 1864 2007 1961 1946 2223 2283 2124 1227 1018 1088 1094 696 749 834 1044 505 322 687 647 682
0 0 0 0 0 0 0 0 0 0 0 215 617 681 754 915 1026 1286 1441 1272 1045 694 832 1047 1167 1167 1131 1674 1867 1842 1808 1939 1930 2053 2439 1923 1429 990 669 462 398 842 1129 1326 732 102 328 616 281
0 0 0 0 0 0 0 0 0 0 66 277 336 526 798 1177 1101 987 1278 1252 1278 1043 926 1108 1257 1340 1519 1391 1447 1642 1631 1593 1900 2018 2023 2110 1869 1374 1002 835 1159 1352 488 419 416 435 60 10 339
0 0 0 0 0 0 0 0 0 0 10 115 373 533 894 1370 1475 1300 1112 1297 1424 1360 1011 1180 1357 1356 1370 1260 1091 1157 1330 1445 1446 1579 1945 1848 1787 1747 1518 1587 1308 1393 553 122 23 23 36 0 7
0 0 0 0 0 0 0 0 0 0 0 2 96 266 326 426 1537 1530 699 667 1200 1524 1466 1106 1329 1314 1072 934 891 824 908 1252 1477 1442 1348 1451 984 913 890 785 616 721 633 697 503 523 547 516 423
0 0 0 0 0 0 0 0 0 0 0 0 35 280 184 208 1483 1563 1177 974 867 835 797 1306 1274 1009 637 473 624 715 768 885 1321 1420 1347 858 589 523 491 316 450 316 251 99 31 149 334 260 191
0 0 0 0 0 0 0 0 0 0 0 0 8 381 453 927 1500 1362 1193 992 315 390 717 344 528 1101 580 273 399 634 849 898 975 1003 901 888 333 279 15 158 105 10 0 0 0 0 0 0 0
0 0 0 0 0 0 0 0 0 0 0 0 6 722 1022 1297 1334 1219 927 517 1 0 41 158 332 628 855 831 514 515 789 690 623 719 398 452 525 173 15 60 36 5 0 0 0 0 0 0 0
0 0 0 0 0 0 0 0 0 0 0 0 0 208 752 891 937 682 32 0 0 0 0 8 404 589 534 569 868 781 483 509 381 310 316 64 38 28 55 0 11 0 0 0 0 0 0 0 0
0 0 0 0 0 0 0 0 0 0 0 0 0 0 0 3 9 14 0 0 0 0 0 0 150 324 236 3 215 197 289 25 73 113 92 7 9 0 0 0 0 0 0 0 0 0 0 0 0
0 0 0 0 0 0 0 0 0 0 0 0 0 0 0 0 0 0 0 0 0 0 0 0 1 56 140 0 0 0 0 0 0 0 0 0 0 0 0 0 0 0 0 0 0 0 0 0 0
0 0 0 0 0 0 0 0 0 0 0 0 0 0 0 0 0 0 0 0 0 0 0 0 0 0 0 0 0 0 0 0 0 0 0 0 0 0 0 0 0 0 0 0 0 0 0 0 0
0 0 0 0 0 0 0 0 0 0 0 0 0 0 0 0 0 0 0 0 0 0 0 0 0 0 0 0 0 0 0 0 0 0 0 0 0 0 0 0 0 0 0 0 0 0 0 0 0
0 0 0 0 0 0 0 0 0 0 0 0 0 0 0 0 0 0 0 0 0 0 0 0 0 0 0 0 0 0 0 0 0 0 0 0 0 0 0 0 0 0 0 0 0 0 0 0 0
0 0 0 0 0 0 0 0 0 0 0 0 0 0 0 0 0 0 0 0 0 0 0 0 0 0 0 0 0 0 0 0 0 0 0 0 0 0 0 0 0 0 0 0 0 0 0 0 0
0 0 0 0 0 0 0 0 0 0 0 0 0 0 0 0 0 0 0 0 0 0 0 0 0 0 0 0 0 0 0 0 0 0 0 0 0 0 0 0 0 0 0 0 0 0 0 0 0
0 0 0 0 0 0 0 0 0 0 0 0 0 0 0 0 0 0 0 0 0 0 0 0 0 0 0 0 0 0 0 0 0 0 0 0 0 0 0 0 0 0 0 0 0 0 0 0 0
0 0 0 0 0 0 0 0 0 0 0 0 0 0 0 0 0 0 0 0 0 0 0 0 0 0 0 0 0 0 0 0 0 0 0 0 0 0 0 0 0 0 0 0 0 0 0 0 0
0 0 0 0 0 0 0 0 0 0 0 0 0 0 0 0 0 0 0 0 0 0 0 0 0 0 0 0 0 0 0 0 0 0 0 0 0 0 0 0 0 0 0 0 0 0 0 0 0
0 0 0 0 0 0 0 0 0 0 0 0 0 0 0 0 0 0 0 0 0 0 0 0 0 0 0 0 0 0 0 0 0 0 0 0 0 0 0 0 0 0 0 0 0 0 0 0 0
0 0 0 0 0 0 0 0 0 0 0 0 0 0 0 0 0 0 0 0 0 0 0 0 0 0 0 0 0 0 0 0 0 0 0 0 0 0 0 0 0 0 0 0 0 0 0 0 0
0 0 0 0 0 0 0 0 0 0 0 0 0 0 0 0 0 0 0 0 0 0 0 0 0 0 0 0 0 0 0 0 0 0 0 0 0 0 0 0 0 0 0 0 0 0 0 0 0
0 0 0 0 0 0 0 0 0 0 0 0 0 0 0 0 0 0 0 0 0 0 0 0 0 0 0 0 0 0 0 0 0 0 0 0 0 0 0 0 0 0 0 0 0 0 0 0 0
0 0 0 0 0 0 0 0 0 0 0 0 0 0 0 0 0 0 0 0 0 0 0 0 0 0 0 0 0 0 0 0 0 0 0 0 0 0 0 0 0 0 0 0 0 0 0 0 0
0 0 0 0 0 0 0 0 0 0 0 0 0 0 0 0 0 0 0 0 0 0 0 0 0 0 0 0 0 0 0 0 0 0 0 0 0 0 0 0 0 0 0 0 0 0 0 0 0
0 0 0 0 0 1 0 0 0 0 0 0 0 0 0 0 0 0 0 0 0 0 0 0 0 0 0 0 0 0 0 0 0 0 0 0 0 0 0 0 0 0 0 0 0 0 0 0 0
0 0 0 1 0 5 1 0 0 0 0 0 0 2 0 0 0 0 0 0 0 0 0 0 0 0 0 0 0 0 0 0 0 0 0 0 0 0 0 0 0 0 0 0 0 0 0 0 0
0 0 0 1 0 0 1 0 0 0 0 0 0 0 0 0 0 0 0 0 0 0 0 0 0 0 0 0 0 0 0 0 0 0 0 0 0 0 0 0 0 0 0 0 0 0 0 0 0

GFSSGP_con_sbcape_012.txt.gz
CAPE
0 0 0 0 0 0 0 0 0 0 81 164 306 269 266 380 421 301 871 346 152 110 337 543 944 1312 1593 1942 2097 2084 2241 2490 2421 2139 2069 2154 2247 2116 1908 1742 1626 947 817 898 1316 1345 1393 1109 986
0 0 0 0 0 0 0 0 0 11 162 37 41 385 537 856 913 946 921 381 215 310 519 623 961 1360 1626 1756 1879 1923 1998 2112 2244 2405 2487 2306 2320 2138 1768 1129 602 425 584 1382 1475 1369 932 971 844
0 0 0 0 0 0 0 0 0 19 47 43 382 339 663 692 1021 1086 1018 590 376 516 667 707 797 1207 1659 1732 1826 1862 1835 1880 2153 2364 2247 2015 1941 1759 1551 1208 885 983 1174 1145 1149 1304 1176 887 482
0 0 0 0 0 0 0 0 0 0 100 315 430 661 712 658 924 1195 1085 698 536 565 641 740 843 1124 1771 1909 1866 1838 1793 1736 1835 2246 2388 1973 1664 1341 905 568 673 1170 1479 1816 1213 1203 1065 629 269
0 0 0 0 0 0 0 0 0 56 144 223 212 341 829 909 1120 1183 1059 819 658 539 777 901 982 1222 1478 1655 1704 1633 1618 1721 1857 1991 2093 2174 1849 1635 1564 1361 1099 1439 1197 1138 1127 1037 922 693 137
0 0 0 0 0 0 0 0 0 6 136 232 220 432 592 911 944 1130 1102 1147 967 751 906 1106 1262 1243 1213 1309 1339 1315 1413 1512 1609 1885 1898 1805 1631 1547 1586 1416 1631 1353 656 270 194 175 277 149 306
0 0 0 0 0 0 0 0 0 0 0 26 118 110 396 428 1051 904 1188 1249 1341 970 865 1103 1216 1215 1085 907 787 794 1076 1333 1419 1542 1584 1302 1156 1141 1029 1053 1113 1064 1069 1036 1029 269 189 473 362
0 0 0 0 0 0 0 0 0 0 0 11 81 90 105 522 829 715 538 959 1116 1149 1067 987 1000 865 550 610 719 663 720 998 1251 1285 1072 838 771 749 684 792 702 652 513 332 530 685 569 284 224
0 0 0 0 0 0 0 0 0 0 0 0 156 82 85 184 1124 997 549 348 220 742 841 914 956 790 309 84 370 711 799 874 998 1044 950 486 255 176 82 256 401 184 17 0 0 0 10 0 0
0 0 0 0 0 0 0 0 0 0 0 55 383 565 610 1233 1084 1197 597 262 0 0 0 37 269 586 498 437 346 334 647 643 580 511 685 488 250 18 16 44 77 12 0 0 0 0 0 0 0
0 0 0 0 0 0 0 0 0 0 0 95 381 801 969 989 856 922 547 9 0 0 1 18 208 260 168 337 274 366 338 366 343 429 162 226 11 51 0 0 4 0 0 0 0 0 0 0 0
0 0 0 0 0 0 0 0 0 0 0 0 418 695 666 813 757 462 0 0 0 0 0 0 31 58 0 14 361 218 61 41 3 0 0 0 0 0 0 0 0 0 0 0 0 0 0 0 0
0 0 0 0 0 0 0 0 0 0 0 0 0 0 242 281 227 0 0 0 0 0 0 0 0 10 0 0 0 0 0 0 0 0 0 0 0 0 0 0 0 0 0 0 0 0 0 0 0
0 0 0 0 0 0 0 0 0 0 0 0 0 0 0 0 0 0 0 0 0 0 0 0 0 0 0 0 0 0 0 0 0 0 0 0 0 0 0 0 0 0 0 0 0 0 0 0 0
0 0 0 0 0 0 0 0 0 0 0 0 0 0 0 0 0 0 0 0 0 0 0 0 0 0 0 0 0 0 0 0 0 0 0 0 0 0 0 0 0 0 0 0 0 0 0 0 0
0 0 0 0 0 0 0 0 0 0 0 0 0 0 0 0 0 0 0 0 0 0 0 0 0 0 0 0 0 0 0 0 0 0 0 0 0 0 0 0 0 0 0 0 0 0 0 0 0
0 0 0 0 0 0 0 0 0 0 0 0 0 0 0 0 0 0 0 0 0 0 0 0 0 0 0 0 0 0 0 0 0 0 0 0 0 0 0 0 0 0 0 0 0 0 0 0 0
0 0 0 0 0 0 0 0 0 0 0 0 0 0 0 0 0 0 0 0 0 0 0 0 0 0 0 0 0 0 0 0 0 0 0 0 0 0 0 0 0 0 0 0 0 0 0 0 0
0 0 0 0 0 0 0 0 0 0 0 0 0 0 0 0 0 0 0 0 0 0 0 0 0 0 0 0 0 0 0 0 0 0 0 0 0 0 0 0 0 0 0 0 0 0 0 0 0
0 0 0 0 0 0 0 0 0 0 0 0 0 0 0 0 0 0 0 0 0 0 0 0 0 0 0 0 0 0 0 0 0 0 0 0 0 0 0 0 0 0 0 0 0 0 0 0 0
0 0 0 0 0 0 0 0 0 0 0 0 0 0 0 0 0 0 0 0 0 0 0 0 0 0 0 0 0 0 0 0 0 0 0 0 0 0 0 0 0 0 0 0 0 0 0 0 0
0 0 0 0 0 0 0 0 0 0 0 0 0 0 0 0 0 0 0 0 0 0 0 0 0 0 0 0 0 0 0 0 0 0 0 0 0 0 0 0 0 0 0 0 0 0 0 0 0
0 0 0 0 0 0 0 0 0 0 0 0 0 0 0 0 0 0 0 0 0 0 0 0 0 0 0 0 0 0 0 0 0 0 0 0 0 0 0 0 0 0 0 0 0 0 0 0 0
0 0 0 0 0 0 0 0 0 0 0 0 0 0 0 0 0 0 0 0 0 0 0 0 0 0 0 0 0 0 0 0 0 0 0 0 0 0 0 0 0 0 0 0 0 0 0 0 0
0 0 0 0 0 0 0 0 0 0 0 0 0 0 0 0 0 0 0 0 0 0 0 0 0 0 0 0 0 0 0 0 0 0 0 0 0 0 0 0 0 0 0 0 0 0 0 0 0
0 0 0 0 0 0 0 0 0 0 0 0 0 0 0 0 0 0 0 0 0 0 0 0 0 0 0 0 0 0 0 0 0 0 0 0 0 0 0 0 0 0 0 0 0 0 0 0 0
0 0 0 0 0 0 0 0 0 0 0 0 0 0 0 0 0 0 0 0 0 0 0 0 0 0 0 0 0 0 0 0 0 0 0 0 0 0 0 0 0 0 0 0 0 0 0 0 0
0 0 0 0 0 0 0 0 0 0 0 0 0 0 0 0 0 0 0 0 0 0 0 0 0 0 0 0 0 0 0 0 0 0 0 0 0 0 0 0 0 2 0 0 0 0 0 0 0
0 0 0 0 0 16 15 0 0 0 0 0 0 0 0 0 0 0 0 0 0 0 0 0 0 0 0 0 0 0 0 0 0 0 0 0 0 0 0 0 0 0 0 0 0 0 0 0 0
0 0 0 0 0 0 1 0 0 0 0 0 0 0 0 0 0 0 0 0 0 0 0 0 0 0 0 0 0 0 0 0 0 0 0 0 0 0 0 0 0 0 0 0 0 0 0 0 0

GFSSGP_con_sbcape_015.txt.gz
CAPE
0 0 0 0 0 0 0 0 0 0 159 180 176 141 215 311 133 89 559 170 105 133 310 650 1131 1569 1771 1860 1943 2150 2485 2593 2406 2220 2306 2406 2408 2328 2218 1813 1506 1057 1088 1106 1565 1705 1769 1548 1366
0 0 0 0 0 0 0 0 0 41 277 317 341 463 470 638 694 769 441 162 81 199 333 644 1129 1473 1662 1698 1752 2018 2012 2167 2469 2565 2432 2240 2190 2337 1791 1112 674 510 967 1448 1543 1668 1639 1553 1282
0 0 0 0 0 0 0 0 16 50 106 7 457 500 628 864 842 846 498 314 261 320 356 599 1077 1396 1572 1665 1644 1758 1760 2093 2367 2391 2308 2221 2079 1873 1703 1223 1077 1233 1276 1255 1439 1526 1222 1320 1158
0 0 0 0 0 0 0 0 5 69 84 297 507 632 660 581 941 966 493 355 330 349 376 526 976 1391 1583 1716 1605 1634 1636 1741 2068 2373 2301 2051 1823 1397 785 451 728 1412 1585 1735 1255 1520 1529 1088 510
0 0 0 0 0 0 0 0 0 5 102 84 121 408 783 802 850 685 644 480 418 422 515 551 857 1298 1673 1663 1508 1535 1621 1700 1810 2008 2245 2011 1876 1921 1822 1624 1054 1588 1411 1299 1471 1181 1353 1076 283
0 0 0 0 0 0 0 0 0 30 52 68 153 178 486 456 1009 819 847 749 489 556 706 831 976 992 1083 1306 1390 1359 1427 1448 1663 1748 1861 1932 1790 1783 1633 1725 1843 1374 755 355 290 341 827 558 542
0 0 0 0 0 0 0 0 0 0 8 2 37 194 431 630 836 988 1056 919 688 677 804 879 957 994 946 842 875 1007 1272 1332 1506 1519 1508 1259 1226 1277 1331 1431 1406 1371 1328 1232 756 284 269 352 424
0 0 0 0 0 0 0 0 0 0 0 0 0 60 989 650 768 932 936 990 879 681 749 693 777 805 557 388 620 554 878 1114 1196 1243 1086 847 806 788 988 974 913 836 507 549 623 661 458 285 225
0 0 0 0 0 0 0 0 0 0 0 0 70 0 1 421 514 380 433 425 623 904 740 641 693 629 318 73 172 571 625 838 1036 1104 814 512 280 198 95 430 477 203 48 3 0 0 0 0 0
0 0 0 0 0 0 0 0 0 0 5 182 74 171 111 836 569 475 591 495 494 777 546 597 617 582 284 127 77 234 325 406 404 470 457 218 52 3 27 48 131 61 1 0 0 0 0 0 0
0 0 0 0 0 0 0 0 0 0 0 100 0 183 674 898 747 422 304 86 248 187 1 15 33 76 171 151 16 44 121 95 112 109 79 66 23 0 0 0 1 0 0 0 0 0 0 0 0
0 0 0 0 0 0 0 0 0 0 0 0 0 62 642 910 622 407 217 0 0 0 0 0 0 0 0 0 12 96 53 3 0 0 0 0 0 0 0 0 0 0 0 0 0 0 0 0 0
0 0 0 0 0 0 0 0 0 0 0 0 19 308 609 557 197 140 39 0 0 0 0 0 0 0 0 0 0 0 0 0 0 0 0 0 0 0 0 0 0 0 0 0 0 0 0 0 0
0 0 0 0 0 0 0 0 0 0 0 0 28 233 193 102 79 0 0 0 0 0 0 0 0 0 0 0 0 0 0 0 0 0 0 0 0 0 0 0 0 0 0 0 0 0 0 0 0
0 0 0 0 0 0 0 0 0 0 0 0 0 10 0 0 0 0 0 0 0 0 0 0 0 0 0 0 0 0 0 0 0 0 0 0 0 0 0 0 0 0 0 0 0 0 0 0 0
0 0 0 0 0 0 0 0 0 0 0 0 0 0 0 0 0 0 0 0 0 0 0 0 0 0 0 0 0 0 0 0 0 0 0 0 0 0 0 0 0 0 0 0 0 0 0 0 0
0 0 0 0 0 0 0 0 0 0 0 0 0 0 0 0 0 0 0 0 0 0 0 0 0 0 0 0 0 0 0 0 0 0 0 0 0 0 0 0 0 0 0 0 0 0 0 0 0
0 0 0 0 0 0 0 0 0 0 0 0 0 0 0 0 0 0 0 0 0 0 0 0 0 0 0 0 0 0 0 0 0 0 0 0 0 0 0 0 0 0 0 0 0 0 0 0 0
0 0 0 0 0 0 0 0 0 0 0 0 0 0 0 0 0 0 0 0 0 0 0 0 0 0 0 0 0 0 0 0 0 0 0 0 0 0 0 0 0 0 0 0 0 0 0 0 0
0 0 0 0 0 0 0 0 0 0 0 0 0 0 0 0 0 0 0 0 0 0 0 0 0 0 0 0 0 0 0 0 0 0 0 0 0 0 0 0 0 0 0 0 0 0 0 0 0
0 0 0 0 0 0 0 0 0 0 0 0 0 0 0 0 0 0 0 0 0 0 0 0 0 0 0 0 0 0 0 0 0 0 0 0 0 0 0 0 0 0 0 0 0 0 0 0 0
0 0 0 0 0 0 0 0 0 0 0 0 0 0 0 0 0 0 0 0 0 0 0 0 0 0 0 0 0 0 0 0 0 0 0 0 0 0 0 0 0 0 0 0 0 0 0 0 0
0 0 0 0 0 0 0 0 0 0 0 0 0 0 0 0 0 0 0 0 0 0 0 0 0 0 0 0 0 0 0 0 0 0 0 0 0 0 0 0 0 0 0 0 0 0 0 0 0
0 0 0 0 0 0 0 0 0 0 0 0 0 0 0 0 0 0 0 0 0 0 0 0 0 0 0 0 0 0 0 0 0 0 0 0 0 0 0 0 0 0 0 0 0 0 0 0 0
0 0 0 0 0 0 0 0 0 0 0 0 0 0 0 0 0 0 0 0 0 0 0 0 0 0 0 0 0 0 0 0 0 0 0 0 0 0 0 0 0 0 0 0 0 0 0 0 0
0 0 0 0 0 0 0 0 0 0 0 0 0 0 0 0 0 0 0 0 0 0 0 0 0 0 0 0 0 0 0 0 0 0 0 0 0 0 0 0 0 0 0 0 0 0 0 0 0
0 0 0 0 0 0 0 0 0 0 0 0 0 0 0 0 0 0 0 0 0 0 0 0 0 0 0 0 0 0 0 0 0 0 0 0 0 0 0 0 0 0 0 0 0 0 0 0 0
0 0 0 0 0 0 0 0 0 0 0 0 0 0 0 0 0 0 0 0 0 0 0 0 0 0 0 0 0 0 0 0 0 0 0 0 0 0 0 0 0 0 0 0 0 0 0 0 0
0 0 0 0 0 2 12 0 0 0 0 0 0 0 0 0 0 0 0 0 0 0 0 0 0 0 0 0 0 0 0 0 0 0 0 0 0 0 0 0 0 0 0 0 0 0 0 0 0
0 0 0 0 0 0 0 0 0 0 0 0 0 0 0 0 0 0 0 0 0 0 0 0 0 0 0 0 0 0 0 0 0 0 0 0 0 0 0 0 0 0 0 0 0 0 0 0 0

GFSSGP_con_sbcape_018.txt.gz
CAPE
0 0 0 0 0 0 0 0 0 0 56 58 76 30 132 262 87 15 267 252 125 183 392 770 1178 1467 1585 1861 2130 2258 2466 2511 2331 2326 2274 2212 2306 2369 1999 1701 1074 850 1293 1475 1728 1750 1912 1728 1618
0 0 0 0 0 0 0 0 0 22 202 143 141 191 353 350 565 484 248 126 109 161 291 707 1178 1360 1519 1636 1836 2024 2033 2338 2603 2470 2349 2359 2419 2301 1794 1074 668 638 1314 1399 1551 1752 1860 1662 1528
0 0 0 0 0 0 0 0 57 172 76 31 345 368 452 687 717 556 274 128 233 249 306 815 1106 1249 1475 1525 1627 1766 1950 2246 2381 2439 2401 2301 2054 2106 1590 1339 984 1364 1515 1393 1544 1720 1488 1580 1374
0 0 0 0 0 0 0 0 38 93 73 249 411 479 487 488 812 694 259 255 247 210 213 769 996 1214 1453 1560 1578 1575 1617 1889 2230 2308 2238 2040 1657 1304 805 612 688 1450 1663 1689 1475 1674 1697 1426 939
0 0 0 0 0 0 0 0 0 47 49 121 117 434 684 670 604 356 343 278 190 162 169 500 1016 1306 1542 1466 1334 1518 1602 1681 1790 2051 2165 1945 1998 1954 1795 1280 1033 1648 1457 1349 1838 1382 1580 1381 785
0 0 0 0 0 0 0 0 0 5 3 31 258 229 505 571 606 471 469 254 208 257 379 427 850 930 1151 1314 1225 1210 1297 1486 1507 1590 1984 1883 1782 1700 1585 1723 1736 1256 783 645 495 369 1082 628 372
0 0 0 0 0 0 0 0 0 0 0 0 36 348 446 685 728 635 581 205 315 386 475 500 655 691 656 623 722 873 1077 1155 1338 1310 1201 1072 1112 1219 1324 1329 1327 1170 1199 1232 938 595 736 673 516
0 0 0 0 0 0 0 0 0 0 0 0 0 379 647 666 644 661 705 475 319 379 418 410 448 385 191 119 429 446 762 1019 1105 1108 802 657 551 676 855 560 678 385 296 267 251 86 2 0 0
0 0 0 0 0 0 0 0 0 0 0 0 18 40 8 514 396 434 559 619 627 489 430 311 382 350 84 0 40 363 440 686 912 878 570 293 51 25 49 379 284 114 44 8 0 0 0 0 0
0 0 0 0 0 0 0 0 0 0 0 15 0 1 129 404 443 611 744 883 709 745 638 352 336 330 106 5 0 15 120 146 189 378 177 24 0 0 0 0 34 17 0 0 0 0 0 0 0
0 0 0 0 0 0 0 0 0 0 0 0 0 53 505 448 241 566 580 572 514 593 404 301 328 161 192 119 0 0 0 0 0 0 72 3 0 0 0 0 0 0 0 0 0 0 0 0 0
0 0 0 0 0 0 0 0 0 0 0 0 0 84 531 615 323 265 364 152 83 76 103 24 0 0 0 0 0 0 0 0 0 0 0 0 0 0 0 0 0 0 0 0 0 0 0 0 0
0 0 0 0 0 0 0 0 0 0 0 0 0 125 597 641 299 104 59 0 0 0 0 0 0 0 0 0 0 0 0 0 0 0 0 0 0 0 0 0 0 0 0 0 0 0 0 0 0
0 0 0 0 0 0 0 0 0 0 0 0 0 11 282 423 295 5 1 0 0 0 0 0 0 0 0 0 0 0 0 0 0 0 0 0 0 0 0 0 0 0 0 0 0 0 0 0 0
0 0 0 0 0 0 0 0 0 0 0 0 0 0 0 25 0 0 0 0 0 0 0 0 0 0 0 0 0 0 0 0 0 0 0 0 0 0 0 0 0 0 0 0 0 0 0 0 0
0 0 0 0 0 0 0 0 0 0 0 0 0 0 0 0 0 0 0 0 0 0 0 0 0 0 0 0 0 0 0 0 0 0 0 0 0 0 0 0 0 0 0 0 0 0 0 0 0
0 0 0 0 0 0 0 0 0 0 0 0 0 0 0 0 0 0 0 0 0 0 0 0 0 0 0 0 0 0 0 0 0 0 0 0 0 0 0 0 0 0 0 0 0 0 0 0 0
0 0 0 0 0 0 0 0 0 0 0 0 0 0 0 0 0 0 0 0 0 0 0 0 0 0 0 0 0 0 0 0 0 0 0 0 0 0 0 0 0 0 0 0 0 0 0 0 0
0 0 0 0 0 0 0 0 0 0 0 0 0 0 0 0 0 0 0 0 0 0 0 0 0 0 0 0 0 0 0 0 0 0 0 0 0 0 0 0 0 0 0 0 0 0 0 0 0
0 0 0 0 0 0 0 0 0 0 0 0 0 0 0 0 0 0 0 0 0 0 0 0 0 0 0 0 0 0 0 0 0 0 0 0 0 0 0 0 0 0 0 0 0 0 0 0 0
0 0 0 0 0 0 0 0 0 0 0 0 0 0 0 0 0 0 0 0 0 0 0 0 0 0 0 0 0 0 0 0 0 0 0 0 0 0 0 0 0 0 0 0 0 0 0 0 0
0 0 0 0 0 0 0 0 0 0 0 0 0 0 0 0 0 0 0 0 0 0 0 0 0 0 0 0 0 0 0 0 0 0 0 0 0 0 0 0 0 0 0 0 0 0 0 0 0
0 0 0 0 0 0 0 0 0 0 0 0 0 0 0 0 0 0 0 0 0 0 0 0 0 0 0 0 0 0 0 0 0 0 0 0 0 0 0 0 0 0 0 0 0 0 0 0 0
0 0 0 0 0 0 0 0 0 0 0 0 0 0 0 0 0 0 0 0 0 0 0 0 0 0 0 0 0 0 0 0 0 0 0 0 0 0 0 0 0 0 0 0 0 0 0 0 0
0 0 0 0 0 0 0 0 0 0 0 0 0 0 0 0 0 0 0 0 0 0 0 0 0 0 0 0 0 0 0 0 0 0 0 0 0 0 0 0 0 0 0 0 0 0 0 0 0
0 0 0 0 0 0 0 0 0 0 0 0 0 0 0 0 0 0 0 0 0 0 0 0 0 0 0 0 0 0 0 0 0 0 0 0 0 0 0 0 0 0 0 0 0 0 1 3 10
0 0 0 0 0 0 0 0 0 0 0 0 0 0 0 0 0 0 0 0 0 0 0 0 0 0 0 0 0 0 0 0 0 0 0 0 0 0 0 0 0 0 0 0 0 0 8 9 11
0 0 0 0 0 0 0 0 0 0 0 0 0 0 0 0 0 0 0 0 0 0 0 0 0 0 0 0 0 0 0 0 0 0 0 0 0 0 0 0 0 0 0 0 0 0 0 0 0
0 0 0 0 0 0 0 0 0 0 0 0 0 0 0 0 0 0 0 0 0 0 0 0 0 0 0 0 0 0 0 0 0 0 0 0 0 0 0 0 0 0 0 0 0 0 0 0 0
0 0 0 0 0 0 0 0 0 0 0 0 0 0 0 0 0 0 0 0 0 0 0 0 0 0 0 0 0 0 0 0 0 0 0 0 0 0 0 0 0 0 0 0 0 0 0 0 0

GFSSGP_con_sbcape_021.txt.gz
CAPE
0 0 0 0 0 0 0 0 0 38 79 84 74 23 114 247 78 43 371 245 183 401 671 911 1129 1288 1434 1756 2013 2103 2245 2249 2225 2125 2212 2288 2266 2156 1836 1310 824 1019 1357 1676 1717 1822 2005 1830 1531
0 0 0 0 0 0 0 0 0 54 170 135 173 265 304 249 505 427 491 219 165 283 540 953 1113 1260 1418 1518 1757 2021 2136 2450 2514 2489 2391 2403 2270 2097 1634 1016 906 1078 1389 1356 1493 1714 1847 1882 1596
0 0 0 0 0 0 0 0 111 191 21 79 348 364 428 486 560 567 290 115 155 234 481 973 1074 1177 1271 1367 1548 1837 1927 2213 2336 2467 2485 2381 2263 2000 1555 1055 973 1178 1591 1566 1623 1905 1754 1632 1416
0 0 0 0 0 0 0 41 180 173 103 346 370 307 456 439 665 707 189 224 241 262 502 838 936 1053 1203 1374 1393 1371 1476 1891 2070 2168 2163 1947 1603 1454 1109 789 866 1169 1769 1899 1634 1714 1726 1216 759
0 0 0 0 0 0 0 32 175 127 95 220 193 402 582 704 684 378 376 305 237 174 347 738 842 1080 1350 1222 1166 1355 1463 1488 1635 1837 1970 1965 1944 1841 1605 970 1162 1597 1156 1009 1265 1126 1466 986 583
0 0 0 0 0 0 0 0 0 19 21 88 269 296 492 566 616 551 427 379 213 132 303 562 847 1073 1185 1172 1145 1162 1280 1314 1304 1624 1571 1527 1472 1422 1427 1466 1346 1238 1182 1060 512 672 602 624 666
0 0 0 0 0 0 0 0 0 2 16 6 103 328 461 880 745 691 623 313 279 322 408 538 638 688 603 602 688 842 969 1118 1105 1092 940 909 978 1130 1096 1180 1028 1011 1033 1046 897 652 405 279 134
0 0 0 0 0 0 0 0 0 0 0 0 0 248 686 850 906 893 759 386 456 576 545 668 790 636 532 558 331 470 746 878 976 882 604 434 463 623 534 684 485 385 350 340 223 50 4 0 0
0 0 0 0 0 0 0 0 0 0 0 0 0 72 17 988 904 1001 876 687 611 592 758 779 845 807 560 267 319 354 455 687 791 741 396 328 605 432 393 272 185 75 17 5 0 0 0 0 0
0 0 0 0 0 0 0 0 0 0 0 0 0 0 228 905 1065 1164 1125 1151 1047 1030 1003 848 977 1053 706 235 240 481 555 739 870 963 772 615 454 262 95 45 34 1 0 0 0 0 0 0 0
0 0 0 0 0 0 0 0 0 0 0 0 0 40 713 1081 1250 1341 1290 1233 1332 1296 1240 1073 1002 1003 1009 929 340 286 423 626 661 628 793 659 423 330 208 93 79 64 0 0 0 0 0 0 0
0 0 0 0 0 0 0 0 0 0 0 0 0 301 885 974 1244 1396 1450 1352 1090 1173 1455 1251 945 706 613 594 706 358 409 533 664 641 513 590 639 613 365 137 88 49 0 0 0 0 0 0 0
0 0 0 0 0 0 0 0 0 0 0 0 0 444 995 1058 1104 1191 1365 1253 755 953 1086 760 226 29 41 33 247 381 420 609 614 448 319 322 432 443 214 114 13 0 0 0 0 0 0 0 0
0 0 0 0 0 0 0 0 0 0 0 0 0 416 1018 1152 974 746 617 790 316 564 687 60 1 22 13 32 110 291 302 333 260 255 174 15 78 65 16 0 0 0 0 0 0 0 0 0 0
0 0 0 0 0 0 0 0 0 0 0 0 0 3 616 870 820 673 755 657 427 49 51 0 0 0 0 0 0 1 2 0 0 3 0 0 0 0 5 10 15 0 0 0 0 0 0 0 0
0 0 0 0 0 0 0 0 0 0 0 0 0 0 0 337 491 259 1 15 0 0 0 0 0 0 0 0 0 0 0 0 0 0 0 0 0 0 0 0 8 30 0 0 0 0 0 0 0
0 0 0 0 0 0 0 0 0 0 0 0 0 0 0 0 0 0 0 0 0 0 0 0 0 0 0 0 0 0 0 0 0 0 0 0 0 0 0 0 0 25 16 0 0 0 0 0 0
0 0 0 0 0 0 0 0 0 0 0 0 0 0 0 0 0 0 0 0 0 0 0 0 0 0 0 0 0 0 0 0 0 0 0 0 0 0 0 0 0 0 0 0 0 0 0 0 0
0 0 0 0 0 0 0 0 0 0 0 0 0 0 0 0 0 0 0 0 0 0 0 0 0 0 0 0 0 0 0 0 0 0 0 0 0 0 0 0 0 0 0 0 0 0 0 0 0
0 0 0 0 0 0 0 0 0 0 0 0 0 0 0 0 0 0 0 0 0 0 0 0 0 0 0 0 0 0 0 0 0 0 0 0 0 0 0 0 0 0 0 0 0 0 0 0 0
0 0 0 0 0 0 0 0 0 0 0 0 0 0 0 0 0 0 0 0 0 0 0 0 0 0 0 0 0 0 0 0 0 0 0 0 0 0 0 0 0 0 0 0 0 0 0 0 0
0 0 0 0 0 0 0 0 0 0 0 0 0 0 0 0 0 0 0 0 0 0 0 0 0 0 0 0 0 0 0 0 0 0 0 0 0 0 0 0 0 0 0 0 0 0 0 0 0
0 0 0 0 0 0 0 0 0 0 0 0 0 0 0 0 0 0 0 0 0 0 0 0 0 0 0 0 0 0 0 0 0 0 0 0 0 0 0 0 0 0 0 0 0 0 0 0 0
0 0 0 0 0 0 0 0 0 0 0 0 0 0 0 0 0 0 0 0 0 0 0 0 0 0 0 0 0 0 0 0 0 0 0 0 0 0 0 0 0 0 0 0 0 0 0 0 0
0 0 0 0 0 0 0 0 0 0 0 0 0 0 0 0 0 0 0 0 0 0 0 0 0 0 0 0 0 0 0 0 0 0 0 0 0 0 0 0 0 0 1 2 6 14 22 22 16
0 0 0 0 0 0 0 0 0 0 0 0 0 0 0 0 0 0 0 0 0 0 0 0 0 0 0 0 0 0 0 0 0 0 0 0 0 0 0 0 0 1 1 6 12 1 6 2 2
0 0 0 0 0 0 0 0 0 0 0 0 0 0 0 0 0 0 0 0 0 0 0 0 0 0 0 0 0 0 0 0 0 0 0 0 0 0 1 2 0 0 1 0 0 0 1 8 8
0 0 0 0 0 0 0 0 0 0 0 0 0 0 0 0 0 0 0 0 0 0 0 0 0 0 0 0 0 0 0 0 0 0 0 0 0 2 0 3 3 2 11 14 8 3 3 9 13
0 0 0 0 0 0 0 0 0 0 0 0 0 0 0 0 0 0 0 0 0 0 0 0 0 0 0 0 0 0 0 0 0 0 0 0 0 2 4 0 3 4 9 16 38 36 39 30 18
0 0 0 0 0 0 0 0 0 0 0 0 0 0 0 0 0 0 0 0 0 0 0 0 0 0 0 0 0 0 0 0 0 0 0 0 0 6 19 17 8 8 1 5 0 0 0 0 0

GFSSGP_con_sbcape_027.txt.gz
CAPE
0 0 0 0 0 0 8 44 40 32 25 25 0 52 56 224 408 490 465 262 492 685 804 870 1108 1551 1693 1746 1760 1862 1831 1762 1820 1941 1859 1768 1837 1785 1407 1182 1317 1377 1364 1387 1454 1636 1995 1921 1638
0 0 0 0 0 2 33 23 50 58 11 0 0 5 14 177 449 513 298 211 410 634 838 938 970 1230 1430 1597 1781 2017 1915 1880 1915 1848 1711 1764 1812 1549 1378 1324 1240 1439 1631 1684 1850 2028 1877 1742 1371
0 0 0 0 0 34 26 28 40 11 0 9 10 49 111 273 430 575 211 132 187 420 869 870 855 1018 1229 1444 1583 1740 1860 1963 2118 2313 2138 2075 1849 1673 1561 1276 1227 1286 1796 1742 1638 1826 1372 1051 872
0 0 0 0 6 0 5 51 39 17 19 15 1 56 314 356 484 411 156 108 194 388 559 579 703 863 1032 993 1170 1474 1654 1785 2023 2145 1945 1793 1645 1367 1067 845 1423 1635 1398 1834 1843 1664 1181 787 696
0 0 0 1 0 5 45 40 35 78 62 21 2 27 342 562 549 412 371 132 115 119 229 390 666 895 978 741 827 932 1187 1516 1764 1848 1863 1869 1779 1668 1579 1264 1369 1094 1030 770 796 1130 853 520 397
0 0 2 10 11 17 30 21 0 43 27 0 0 49 418 586 553 542 453 116 11 41 91 75 548 865 910 814 838 974 1030 1100 1332 1323 1349 1316 1290 1344 1317 1276 1209 1170 947 769 728 770 730 680 589
0 2 14 5 2 8 5 0 0 1 0 0 0 9 308 438 556 462 228 4 0 13 109 242 381 350 646 613 679 808 884 893 812 691 719 783 909 990 991 925 911 846 652 608 430 283 199 117 123
0 0 0 1 2 0 0 0 0 0 0 0 0 0 195 521 516 363 69 0 3 107 258 411 484 649 811 714 400 595 720 740 663 475 389 503 602 633 628 613 454 405 362 233 74 1 0 0 0
0 0 0 0 0 0 0 0 0 0 0 0 0 23 114 508 482 276 102 75 206 361 503 622 584 743 551 366 387 293 567 721 589 540 308 377 986 765 687 156 108 25 0 0 0 0 0 0 0
0 0 0 0 0 0 0 0 0 0 0 0 0 0 291 458 396 190 109 137 299 427 616 783 947 1015 699 66 361 492 388 734 725 715 698 672 692 772 102 190 20 3 0 0 0 0 0 0 0
0 0 0 0 0 0 0 0 0 0 0 0 0 0 210 371 378 274 118 85 161 439 460 545 1290 1106 745 338 135 204 247 297 698 827 804 757 586 635 606 567 806 904 70 246 6 7 0 0 0
0 0 0 0 0 0 0 0 0 0 0 0 0 0 74 188 256 321 316 122 38 402 314 537 1069 1116 671 167 21 86 105 338 357 682 729 700 453 460 473 241 175 106 58 58 27 19 8 2 0
0 0 0 0 0 0 0 0 0 0 0 0 0 0 67 246 271 236 189 63 88 114 129 618 1332 1665 194 128 121 181 310 381 636 485 469 466 265 301 191 120 24 2 3 6 10 10 7 13 4
0 0 0 0 0 0 0 0 0 0 0 0 0 0 0 4 76 100 114 58 37 71 235 517 1385 1669 206 85 217 168 333 292 403 190 178 181 243 141 78 19 0 0 0 2 0 0 0 0 0
0 0 0 0 0 0 0 0 0 0 0 0 0 0 0 3 11 62 236 275 130 130 304 725 1473 1399 594 204 186 31 14 5 2 0 1 33 67 38 56 32 23 8 7 83 12 8 11 17 10
0 0 1 0 0 0 0 9 0 0 0 0 0 0 0 7 17 27 27 76 150 197 334 680 1004 1092 1015 161 85 10 2 8 0 0 0 4 28 51 67 53 54 43 99 41 40 38 40 41 28
0 22 0 0 0 0 0 5 0 0 0 0 0 0 0 0 38 92 155 337 302 346 462 666 969 1218 960 238 112 41 40 43 3 5 11 1 11 8 39 38 37 111 53 104 147 119 207 124 76
0 0 0 0 0 0 0 0 0 0 0 0 0 0 0 0 7 252 436 53 47 119 307 541 781 1025 699 281 100 31 24 20 2 2 0 0 0 0 0 7 51 81 60 157 219 346 201 231 240
0 0 0 0 0 0 0 0 0 0 0 0 0 0 0 0 0 0 0 0 0 0 20 281 491 338 149 104 44 11 3 0 0 0 0 0 0 0 1 1 1 42 38 139 260 277 287 294 354
0 0 0 0 0 0 0 0 0 0 0 0 0 0 0 0 0 0 0 0 0 0 0 0 0 0 0 0 0 0 0 0 0 3 0 0 0 0 0 0 0 0 0 20 88 206 212 274 358
0 0 0 0 0 0 0 0 0 0 0 0 0 0 0 0 0 0 0 0 0 0 0 0 0 0 0 0 0 0 0 0 0 0 2 0 0 0 0 0 0 0 0 0 55 87 135 148 155
0 0 0 0 0 6 0 61 0 0 0 0 0 0 0 0 0 0 0 0 0 0 0 0 0 0 0 0 0 0 3 5 8 5 1 0 0 0 0 0 0 0 0 5 12 21 137 175 111
0 0 0 0 0 0 0 0 8 0 0 0 0 0 0 0 0 0 0 0 0 0 0 0 0 0 0 0 0 0 0 0 0 0 0 0 0 0 0 0 0 0 0 8 12 22 29 26 50
0 0 0 0 2 19 1 8 50 0 0 0 0 0 0 0 0 0 0 0 0 0 0 0 0 0 0 0 0 0 0 0 0 0 0 0 0 0 0 0 0 1 4 22 29 31 14 8 10
0 0 107 131 118 136 2 0 45 0 0 0 0 0 0 0 0 0 0 0 0 0 0 0 0 0 0 0 0 0 0 0 0 0 1 1 0 0 0 0 4 15 27 27 17 24 10 12 9
0 0 30 0 31 74 0 0 20 0 0 0 0 0 0 0 0 0 0 0 0 3 8 1 0 0 0 0 0 0 2 3 4 8 10 5 1 1 2 13 22 33 2 1 22 14 11 5 6
5 12 0 0 3 0 0 5 0 0 0 0 0 0 0 0 0 0 0 0 0 0 0 0 0 0 0 0 7 12 15 14 18 17 12 3 2 2 17 0 0 0 0 0 0 12 27 25 43
0 0 5 17 0 0 11 9 59 0 0 0 0 0 0 0 0 3 2 1 0 0 0 1 1 3 11 15 9 6 5 7 7 9 7 10 22 14 7 0 0 0 0 0 2 9 10 11 34
0 3 0 0 0 13 3 0 7 3 5 32 3 3 3 7 13 12 13 15 16 14 14 2 6 8 3 0 0 0 1 4 14 13 23 36 25 7 18 20 6 0 15 17 31 35 31 31 23
0 0 0 4 0 21 3 0 0 0 0 0 0 2 9 23 20 12 18 23 9 8 4 3 3 0 0 0 0 0 5 11 17 15 6 23 23 33 30 23 31 30 37 25 23 31 19 25 33

GFSSGP_con_sbcape_030.txt.gz
CAPE
0 0 0 0 0 0 0 25 21 9 9 0 0 0 37 157 449 284 198 430 710 572 687 873 1175 1414 1522 1665 1730 1705 1685 1882 1942 1917 1932 2011 1937 1530 1468 1570 1784 1778 1612 1703 1932 1961 2002 1812 1540
0 0 0 0 0 0 28 12 41 0 0 0 0 4 34 155 197 108 167 432 537 809 675 799 966 1237 1411 1571 1793 1834 1823 1943 1947 1920 1987 1980 1742 1523 1309 1241 1475 1443 1682 1680 1976 1881 1737 1507 1131
0 0 0 0 0 0 2 26 0 0 0 0 1 33 70 175 171 84 156 336 560 778 631 598 771 978 1244 1405 1601 1720 1831 1963 2129 2161 2059 1864 1703 1644 1390 1179 1513 1679 1584 1605 1802 1569 1041 862 733
0 0 0 0 0 1 0 3 0 0 0 11 39 66 107 160 145 62 78 181 398 475 446 389 557 748 937 1177 1381 1475 1559 1697 1830 1902 1860 1650 1540 1347 994 1766 1386 1210 1191 1488 1613 1316 926 651 611
0 0 0 0 1 11 4 0 0 0 0 0 15 83 204 261 101 63 46 95 145 251 242 240 536 790 868 864 804 1055 1316 1535 1640 1680 1625 1528 1448 1444 1362 1257 1089 1036 763 705 792 766 608 471 520
0 0 0 0 0 3 0 0 5 42 5 0 27 131 273 266 209 219 24 7 0 6 2 70 580 766 814 873 863 857 998 1110 1221 1264 1218 1100 1121 1123 1062 1044 992 941 846 748 680 621 557 466 375
0 0 0 11 0 1 3 0 0 0 0 0 0 74 247 331 299 203 0 0 0 0 0 44 129 374 560 547 637 654 680 667 712 737 743 824 920 957 852 837 724 598 513 433 325 196 112 45 39
0 0 0 0 0 0 0 0 0 0 0 0 0 24 170 365 274 55 0 0 0 2 29 226 201 314 335 333 435 521 567 471 426 390 362 490 554 729 762 586 408 262 195 113 44 0 0 0 0
0 0 0 0 0 0 0 0 0 0 0 0 0 1 296 356 262 19 0 0 2 59 501 474 521 815 915 428 362 444 554 507 402 320 265 140 650 534 690 131 182 70 10 0 0 0 0 0 0
0 0 0 0 0 0 0 0 0 0 0 0 0 269 413 312 226 29 0 12 95 360 391 836 861 1020 614 46 266 652 627 611 577 644 593 773 591 548 120 231 111 115 52 29 10 0 0 0 0
0 0 0 0 0 0 0 0 0 0 0 0 0 150 322 325 189 50 6 17 183 393 495 576 1338 1160 844 597 343 581 641 850 1087 834 760 892 657 717 621 298 29 67 146 110 16 0 0 5 0
0 0 0 0 0 0 0 0 0 0 0 0 0 0 213 188 171 77 6 11 72 308 402 814 1101 1168 727 244 356 420 301 878 598 1097 870 961 673 685 339 308 99 131 115 159 41 15 38 12 10
0 0 0 0 0 0 0 0 0 0 0 0 0 0 69 54 37 63 173 169 53 393 273 769 1207 1349 843 205 635 678 549 902 718 624 819 611 353 564 336 148 63 9 0 0 1 0 0 0 6
0 0 0 0 0 0 0 0 0 0 0 0 0 0 32 162 161 235 252 130 117 154 405 1066 1490 1800 452 297 420 474 778 712 715 441 331 192 352 350 165 90 27 2 0 0 0 0 0 0 0
0 0 0 0 0 0 0 0 0 0 0 0 0 0 1 9 53 101 123 150 52 191 471 955 1537 1786 823 411 379 220 219 43 100 89 56 52 65 128 99 71 53 19 44 40 10 0 0 0 0
0 0 0 0 0 0 0 0 0 0 0 0 0 0 0 24 6 83 244 267 192 194 379 811 874 1649 1428 921 357 164 88 84 30 6 15 4 10 60 71 82 90 100 90 50 47 46 17 8 8
0 0 5 0 0 0 0 0 0 0 0 0 0 0 0 0 29 72 101 153 291 550 584 696 978 1310 1440 1025 277 225 78 48 66 54 33 46 6 59 32 30 50 95 55 50 59 29 51 39 32
0 0 0 0 0 0 0 0 0 0 0 0 0 0 0 0 37 163 36 61 25 294 459 582 778 1295 1153 492 230 97 60 56 71 31 2 0 0 8 9 0 13 73 31 25 41 75 89 92 82
0 0 0 0 0 0 0 0 0 0 0 0 0 0 0 0 0 0 0 0 0 127 185 255 114 153 80 198 76 11 3 0 0 0 5 3 16 0 0 0 0 0 0 0 0 0 0 0 67
0 0 0 0 0 0 0 0 0 0 0 0 0 0 0 0 0 0 0 0 0 0 0 0 0 0 0 0 0 0 0 0 4 16 0 7 5 0 0 0 0 0 0 0 0 0 0 0 4
0 0 0 0 0 0 0 0 0 0 0 0 0 0 0 0 0 0 0 0 0 0 0 0 0 0 0 0 0 0 0 5 2 5 3 0 0 0 0 0 0 0 0 0 0 0 0 1 0
0 0 0 0 0 0 0 0 0 0 0 0 0 0 0 0 0 0 0 0 0 0 0 0 0 0 0 0 0 0 0 0 0 0 0 0 0 0 0 0 0 0 0 0 0 0 2 6 0
0 0 0 0 0 0 0 4 54 0 0 0 0 0 0 0 0 0 0 0 0 0 0 0 0 0 0 0 0 0 0 0 0 0 0 0 0 0 0 0 0 0 0 0 7 0 0 0 0
0 0 0 0 0 105 49 15 6 0 0 0 0 0 0 0 0 0 0 0 0 0 0 0 0 0 1 0 0 0 0 0 0 0 0 0 0 0 0 0 0 0 0 0 0 0 1 0 0
0 0 316 306 357 350 88 69 84 2 0 0 0 0 0 0 0 0 0 0 0 3 6 0 0 0 0 0 0 0 0 0 0 0 0 0 0 0 0 0 0 0 0 0 0 1 0 1 0
0 0 456 27 240 208 7 16 5 0 0 0 0 0 0 0 0 0 0 2 1 1 0 0 0 0 0 0 0 2 0 0 0 6 1 0 0 0 0 0 0 0 0 0 0 0 0 3 1
0 81 0 0 55 98 0 38 7 0 0 0 0 0 1 0 0 0 6 7 0 0 0 0 0 0 0 0 0 0 0 0 2 8 0 0 0 0 0 0 0 0 0 0 0 0 2 4 0
0 0 0 240 17 0 0 3 28 0 0 0 0 2 3 0 1 11 4 2 0 2 0 7 0 0 0 0 0 0 0 0 0 1 1 0 0 0 1 6 4 4 0 0 0 6 5 14 1
0 1 0 0 4 16 3 0 0 1 17 32 47 22 1 1 0 0 0 0 0 0 1 0 0 0 0 0 0 0 0 0 0 0 0 0 0 1 7 19 1 9 21 17 14 19 16 23 28
0 0 0 47 0 20 49 1 0 0 3 2 0 0 3 7 10 0 5 3 5 3 2 0 0 0 0 0 0 0 0 0 0 0 0 0 8 14 24 21 24 27 17 19 16 15 20 30 19

GFSSGP_con_sbcape_033.txt.gz
CAPE
0 0 0 0 0 0 0 0 0 0 0 0 33 98 79 77 83 184 326 461 413 592 730 872 976 1214 1350 1441 1399 1513 1698 1760 1769 1838 1851 1717 1518 1482 1416 1386 1656 1879 1594 1855 1966 1927 1870 1721 1389
0 0 0 0 0 0 1 0 0 0 0 13 12 54 21 47 73 141 386 458 486 563 657 771 881 1074 1285 1366 1455 1546 1696 1710 1736 1865 1832 1747 1524 1338 1244 1205 1581 1773 1534 1584 1836 1677 1419 1229 997
0 0 0 0 0 0 17 0 0 0 0 3 0 0 97 46 31 77 414 484 321 353 429 568 691 897 1147 1293 1389 1467 1613 1696 1770 1783 1823 1603 1411 1193 1112 1520 1568 1372 1655 1802 1740 1382 941 683 683
0 0 0 0 0 0 0 0 0 0 0 0 0 9 0 18 39 68 337 331 266 186 213 349 476 739 1030 1185 1297 1337 1411 1439 1505 1556 1633 1447 1396 1119 1315 1124 1111 925 942 1281 1398 988 646 445 395
0 0 0 0 0 0 0 0 0 0 0 23 43 108 10 0 0 28 106 169 126 38 76 195 396 623 773 820 831 1103 1230 1257 1368 1424 1401 1252 1190 1194 1038 991 879 678 573 523 526 488 431 461 457
0 0 0 0 0 0 0 0 3 0 0 40 63 143 72 6 0 0 66 49 24 0 10 185 515 583 636 658 638 676 773 867 958 1045 1091 936 995 1055 882 840 772 703 643 530 414 320 241 211 199
0 0 0 0 0 0 0 0 0 0 0 0 53 161 147 108 0 0 0 0 0 0 0 41 197 339 345 315 333 373 444 492 529 567 628 653 694 769 849 761 553 470 373 281 150 52 9 3 0
0 0 0 0 0 0 0 0 0 0 0 0 9 163 180 98 0 0 0 0 0 0 0 0 4 34 29 88 191 209 183 163 147 239 278 286 433 529 568 462 542 381 267 145 55 0 0 0 0
0 0 0 0 0 0 0 0 0 0 0 0 0 139 117 29 0 0 0 0 0 0 0 0 0 0 1 3 152 231 261 158 101 152 156 123 107 382 393 233 258 219 78 8 0 0 0 0 0
0 0 0 0 0 0 0 0 0 0 0 26 211 190 119 37 0 0 0 0 0 20 79 45 38 93 48 55 41 16 126 118 65 35 50 62 164 270 284 48 125 127 61 19 15 1 0 0 0
0 0 0 0 0 0 0 0 0 0 0 3 215 201 105 33 0 0 0 0 14 16 161 326 111 53 20 106 2 46 96 145 176 276 93 221 58 173 41 7 8 0 14 0 5 2 0 0 0
0 0 0 0 0 0 0 0 0 0 0 0 173 155 85 34 0 0 0 0 0 11 163 250 193 83 0 0 0 13 30 109 199 471 188 22 28 15 0 74 26 0 0 0 0 0 0 0 0
0 0 0 0 0 0 0 0 0 0 0 0 52 108 94 56 0 0 0 0 0 43 197 227 104 121 0 0 0 0 18 32 47 174 70 4 3 2 2 0 0 0 0 0 0 0 0 0 0
0 0 0 0 0 0 0 0 0 0 0 0 0 12 1 4 1 0 0 5 12 4 237 238 195 104 0 0 0 9 10 76 10 40 22 26 4 0 0 0 0 0 0 0 0 0 0 0 0
0 0 0 0 0 0 0 0 0 0 0 0 0 0 0 0 0 0 0 0 0 0 128 328 528 9 0 0 0 0 129 0 0 0 0 0 0 0 0 0 0 0 0 0 0 0 0 0 0
0 0 0 0 0 0 0 0 0 0 0 0 0 0 0 0 1 0 0 0 0 0 169 457 1079 39 1 23 17 0 0 0 0 0 0 0 0 0 0 0 0 0 0 0 0 0 0 0 0
0 0 0 0 0 0 0 0 0 0 0 0 0 0 0 0 0 0 0 0 0 26 85 75 618 462 437 42 4 0 0 0 0 0 0 0 0 0 0 0 0 0 0 0 0 0 0 0 0
0 0 0 0 0 0 0 0 0 0 0 0 0 0 0 0 0 0 0 0 0 0 0 0 0 3 15 0 0 0 0 0 0 0 0 0 0 0 0 0 0 0 0 0 0 0 0 0 0
0 0 0 0 0 0 0 0 0 0 0 0 0 0 0 0 0 0 0 0 0 0 0 0 0 0 0 0 0 0 0 0 0 0 0 0 0 0 0 0 0 0 0 0 0 0 0 0 0
0 0 0 0 0 0 0 0 0 0 0 0 0 0 0 0 0 0 0 0 0 0 0 0 0 0 0 0 0 0 0 0 0 0 0 0 0 0 0 0 0 0 0 0 0 0 0 0 0
0 0 0 0 0 0 0 0 0 0 0 0 0 0 0 0 0 0 0 0 0 0 0 0 0 0 0 0 0 0 0 0 0 0 0 0 0 0 0 0 0 0 0 0 0 0 0 0 0
0 0 0 0 0 0 0 0 0 0 0 0 0 0 0 0 0 0 0 0 0 0 0 0 0 0 0 0 0 0 0 0 0 0 0 0 0 0 0 0 0 0 0 0 0 0 0 0 0
0 0 0 0 0 0 0 0 0 0 0 0 0 0 0 0 0 0 0 0 0 0 0 0 0 0 0 0 0 0 0 0 0 0 0 0 0 0 0 0 0 0 0 0 0 0 0 0 0
0 0 0 0 0 0 6 0 0 0 0 0 0 0 0 0 0 0 0 0 0 0 0 0 0 0 0 0 0 0 0 0 0 0 0 0 0 0 0 0 0 0 0 0 0 0 0 0 0
0 0 0 9 27 0 9 5 4 0 0 0 0 0 0 0 0 0 0 0 0 0 0 0 0 0 0 0 0 0 0 0 0 0 0 0 0 0 0 0 0 0 0 0 0 0 0 0 0
0 0 0 0 0 0 0 0 0 0 0 0 0 0 0 0 0 0 0 0 0 0 0 0 0 0 0 0 0 0 0 0 0 0 0 0 0 0 0 0 0 0 0 0 0 0 0 0 0
0 0 0 0 0 0 0 0 0 0 0 0 0 0 0 0 0 0 0 0 0 0 0 0 0 0 0 0 0 0 0 0 0 0 0 0 0 0 0 0 0 0 0 0 0 0 0 0 0
0 0 0 0 0 0 0 6 16 0 0 0 0 0 0 0 0 0 0 0 0 0 0 0 0 0 0 0 0 0 0 0 0 0 0 0 0 0 0 0 0 0 0 1 0 0 0 0 0
0 0 0 0 0 0 0 0 0 2 0 0 0 0 0 0 0 0 0 0 0 0 0 0 0 0 0 0 0 0 0 0 0 0 0 0 0 0 0 4 9 8 23 29 4 3 1 7 6
0 0 0 0 0 0 0 0 0 0 0 0 0 0 0 0 0 0 0 0 0 0 0 0 0 0 0 0 0 0 0 0 0 0 0 0 0 0 0 17 27 29 19 25 24 5 0 0 0

GFSSGP_con_sbcape_036.txt.gz
CAPE
0 0 0 0 0 0 0 0 0 0 56 44 43 62 45 39 65 116 298 352 524 527 638 739 918 1110 1161 1302 1462 1547 1598 1658 1602 1470 1386 1375 1231 1043 996 1057 1486 1700 1496 1733 1705 1683 1571 1365 1061
0 0 0 0 0 0 0 0 0 5 47 14 26 72 149 186 195 378 338 403 506 614 661 755 924 1094 1185 1233 1397 1484 1548 1619 1661 1501 1270 1139 1084 1012 1054 1257 1497 1502 1363 1739 1636 1270 1074 872 703
0 0 0 0 0 0 0 0 0 2 3 0 14 33 82 149 266 318 336 392 371 417 524 675 808 981 1137 1192 1316 1412 1485 1520 1560 1542 1324 1201 1033 1166 1156 1024 1282 1239 1609 1604 1414 1158 770 466 402
0 0 0 0 0 0 0 0 0 0 0 5 1 38 1 7 85 404 248 229 147 145 277 470 648 836 1055 1156 1243 1281 1291 1313 1370 1455 1445 1189 1101 988 855 837 689 674 702 820 545 439 361 361 430
0 0 0 0 0 0 0 0 0 0 10 9 8 8 1 198 370 240 101 87 82 23 76 215 383 648 939 1023 1041 1147 1196 1239 1311 1345 1298 1051 894 795 745 666 557 501 467 442 416 388 315 255 258
0 0 0 0 0 0 0 0 0 31 15 6 17 29 0 109 191 114 61 19 3 0 33 138 384 466 552 667 671 680 780 847 915 1009 1066 872 813 776 658 641 590 535 447 338 233 134 91 64 51
0 0 0 0 0 0 0 0 2 63 57 127 166 19 0 0 35 3 0 0 0 0 16 50 132 234 260 245 282 296 416 490 584 639 682 656 609 641 730 613 467 385 287 200 80 17 1 0 0
0 0 0 0 0 0 0 0 0 0 0 90 119 96 0 0 0 0 0 0 0 0 0 0 2 1 3 32 103 101 117 177 230 300 269 293 313 390 454 420 508 372 240 125 44 1 0 0 0
0 0 0 0 0 0 0 0 0 0 9 12 14 91 3 0 0 0 0 0 0 0 0 0 0 0 0 0 48 141 150 109 95 148 146 95 122 204 274 128 247 319 170 61 2 0 0 0 0
0 0 0 0 0 0 0 0 0 17 161 125 112 80 0 0 0 0 0 0 0 0 0 0 0 0 0 21 57 3 35 19 11 17 52 56 23 101 242 144 167 143 31 0 0 0 0 0 0
0 0 0 0 0 0 0 0 0 1 142 205 144 44 0 0 0 0 0 0 0 0 0 0 0 0 0 7 0 0 35 32 15 1 0 5 162 97 191 0 4 0 5 0 0 0 0 0 0
0 0 0 0 0 0 0 0 0 0 22 187 148 49 0 0 0 0 0 0 0 17 21 17 0 34 2 0 0 20 40 78 128 114 49 0 0 0 0 0 0 0 0 0 0 0 0 0 0
0 0 0 0 0 0 0 0 0 0 5 206 157 101 25 0 0 0 0 0 0 77 129 0 0 0 0 0 0 0 0 85 157 139 1 0 0 0 0 0 0 0 0 0 0 0 0 0 0
0 0 0 0 0 0 0 0 0 0 2 165 159 76 36 0 0 0 0 0 0 163 110 17 0 0 0 0 0 0 0 3 0 20 5 0 0 0 0 0 0 0 0 0 0 0 0 0 0
0 0 0 0 0 0 0 0 0 0 30 157 160 95 39 5 0 0 0 0 0 129 103 88 0 0 0 0 0 0 0 0 0 3 0 0 0 0 0 0 0 0 0 0 0 0 0 0 0
0 0 0 0 0 0 0 0 0 0 0 0 43 15 4 0 0 0 0 0 0 64 54 74 50 0 0 0 0 0 0 0 0 0 0 0 0 0 0 0 0 0 0 0 0 0 0 0 0
0 0 0 0 0 0 0 0 0 0 0 0 0 0 0 0 0 0 0 0 0 0 37 49 2 7 25 43 0 0 0 0 0 0 0 0 0 0 0 0 0 0 0 0 0 0 0 0 0
0 0 0 0 0 0 0 0 0 0 0 0 0 0 0 0 0 0 0 0 0 0 0 0 0 0 26 0 0 0 0 0 0 0 0 0 0 0 0 0 0 0 0 0 0 0 0 0 0
0 0 0 0 0 0 0 0 0 0 0 0 0 0 0 0 0 0 0 0 0 0 0 0 0 0 0 0 0 0 0 0 0 0 0 0 0 0 0 0 0 0 0 0 0 0 0 0 0
0 0 0 0 0 0 0 0 0 0 0 0 0 0 0 0 0 0 0 0 0 0 0 0 0 0 0 0 0 0 0 0 0 0 0 0 0 0 0 0 0 0 0 0 0 0 0 0 0
0 0 0 0 0 0 0 0 0 0 0 0 0 0 0 0 0 0 0 0 0 0 0 0 0 0 0 0 0 0 0 0 0 0 0 0 0 0 0 0 0 0 0 0 0 0 0 0 0
0 0 0 0 0 0 0 0 0 0 0 0 0 0 0 0 0 0 0 0 0 0 0 0 0 0 0 0 0 0 0 0 0 0 0 0 0 0 0 0 0 0 0 0 0 0 0 1 3
0 0 0 0 0 0 0 0 0 0 0 0 0 0 0 0 0 0 0 0 0 0 0 0 0 0 0 0 0 0 0 0 0 0 0 0 0 0 0 0 0 0 0 0 0 0 0 0 0
0 0 0 0 0 0 0 0 0 0 0 0 0 0 0 0 0 0 0 0 0 0 0 0 0 0 0 0 0 0 0 0 0 0 0 0 0 0 0 0 0 0 0 0 0 0 0 0 0
0 0 0 0 0 0 0 0 0 0 0 0 0 0 0 0 0 0 0 0 0 0 0 0 0 0 0 0 0 0 0 0 0 0 0 0 0 0 0 0 0 0 0 0 0 0 0 0 0
0 0 0 0 0 0 0 0 0 0 0 0 0 0 0 0 0 0 0 0 0 0 0 0 0 0 0 0 0 0 0 0 0 0 0 0 0 0 0 0 0 0 0 0 0 0 0 0 0
0 0 0 0 0 0 0 0 0 0 0 0 0 0 0 0 0 0 0 0 0 0 0 0 0 0 0 0 0 0 0 0 0 0 0 0 0 0 0 0 0 0 0 0 0 0 0 0 0
0 0 0 0 0 0 0 0 0 0 0 0 0 0 0 0 0 0 0 0 0 0 0 0 0 0 0 0 0 0 0 0 0 0 0 0 0 0 0 0 0 0 2 4 0 0 0 0 0
0 0 0 0 0 0 0 0 0 0 0 0 0 0 0 0 0 0 0 0 0 0 0 0 0 0 0 0 0 0 0 0 0 0 0 0 0 0 0 0 0 0 0 0 2 0 0 0 0
0 0 0 0 0 0 0 0 0 0 0 0 0 0 0 0 0 0 0 0 0 0 0 0 0 0 0 0 0 0 0 0 0 0 0 0 0 0 0 0 0 0 0 0 0 0 0 0 0

GFSSGP_con_sbcape_042.txt.gz
CAPE
0 0 0 0 0 0 0 0 0 0 0 0 8 4 77 149 113 43 204 307 325 250 338 580 859 1069 1149 1214 1395 1410 1308 1075 908 900 960 895 752 760 922 988 1271 1276 1076 983 1018 869 670 503 411
0 0 0 0 0 0 0 0 5 3 12 11 10 53 110 358 391 336 316 465 304 308 389 555 918 1137 1288 1355 1416 1369 1263 1014 1047 886 838 784 801 904 926 1057 1304 1386 759 652 814 631 333 189 171
0 0 0 0 0 0 0 2 70 50 8 20 14 0 101 545 381 290 545 437 395 399 452 641 782 1021 1207 1292 1395 1423 1344 1232 1141 1039 867 927 997 874 767 840 1250 1059 769 652 382 178 144 122 142
0 0 0 0 0 0 0 11 107 56 25 2 0 0 0 52 247 399 559 434 294 305 358 530 684 876 1089 1235 1319 1278 1201 1136 1154 1120 1076 1068 844 658 540 570 721 623 439 315 232 174 123 94 99
0 0 0 0 0 0 0 23 105 69 21 1 0 0 8 174 332 466 437 255 240 217 326 450 626 806 1021 1095 1065 1092 1067 1062 1168 1184 1182 875 615 550 477 448 426 424 343 201 150 111 61 27 31
0 0 0 0 0 0 0 18 64 62 36 57 53 19 103 230 355 317 188 171 149 188 247 413 645 764 897 982 935 875 919 964 989 1023 992 772 690 611 454 429 408 318 205 134 86 45 6 6 1
0 0 0 0 0 0 0 53 83 84 74 63 9 109 313 380 172 78 18 5 28 26 31 115 316 529 604 619 628 678 692 641 667 699 685 624 496 506 551 497 355 218 141 72 44 30 1 0 0
0 0 0 3 0 0 0 1 51 92 121 24 76 319 444 206 15 0 0 0 0 0 0 0 0 0 0 98 245 301 307 305 370 395 328 262 266 327 235 190 239 167 125 111 109 20 0 0 0
0 0 0 5 2 0 0 44 0 15 90 37 11 101 139 8 0 0 0 0 0 0 0 0 0 0 0 0 19 137 192 160 152 168 188 90 0 62 125 56 84 142 83 105 163 134 30 4 0
0 0 0 5 0 0 0 0 0 148 120 56 0 0 21 0 0 0 0 0 0 0 0 0 0 0 0 0 0 0 0 0 0 0 6 0 0 0 67 87 97 143 122 104 75 63 26 5 0
0 0 0 0 8 0 0 0 0 170 171 71 17 46 11 0 0 0 0 0 0 0 0 0 0 0 0 0 0 0 0 0 0 0 0 0 0 0 9 0 0 0 0 0 0 0 0 0 0
0 0 0 0 7 0 0 0 119 7 55 90 0 28 0 0 0 0 0 0 0 0 0 0 0 0 0 0 0 0 0 0 0 0 0 0 0 0 0 0 0 0 0 0 0 0 0 0 0
0 0 0 0 0 0 0 0 66 0 112 11 0 8 0 0 0 0 0 0 0 0 0 0 0 0 0 0 0 0 0 0 0 5 17 5 0 0 0 0 0 0 0 0 0 0 0 0 0
0 0 0 0 0 0 0 0 0 0 88 3 0 0 0 0 0 0 0 0 0 0 0 0 0 0 0 0 0 0 0 0 3 36 47 0 0 0 0 0 0 0 0 0 0 0 0 0 0
0 0 0 0 0 0 0 0 0 15 134 91 0 0 0 0 0 0 0 0 0 0 0 0 0 0 0 0 0 0 0 0 0 0 1 0 0 0 0 0 0 0 0 0 0 0 0 0 0
0 0 0 0 0 0 0 0 0 33 196 116 58 11 0 0 0 0 0 0 0 0 0 0 0 0 0 0 0 0 0 0 0 0 0 0 0 0 0 0 0 0 0 0 0 0 0 0 0
0 0 0 0 0 0 0 0 0 5 136 0 0 0 0 0 0 0 0 0 0 0 0 0 0 0 0 0 0 0 0 0 0 0 0 0 0 0 0 0 0 0 0 0 0 0 0 0 0
0 0 0 0 0 0 0 0 0 0 0 0 0 0 0 0 0 0 0 0 0 0 0 0 0 1 0 0 0 0 0 0 0 0 0 0 0 0 0 0 0 0 0 0 0 0 0 0 0
0 0 0 0 0 0 0 0 0 0 0 0 0 0 0 0 0 0 0 0 0 0 0 0 0 0 0 0 0 0 0 0 0 0 0 0 0 0 0 0 0 0 0 0 0 0 0 0 0
0 0 0 0 0 0 0 0 0 0 0 0 0 0 0 0 0 0 0 0 0 0 0 0 0 0 0 0 0 0 0 0 0 0 0 0 0 0 0 0 0 0 0 0 0 0 0 0 0
0 0 0 0 0 0 0 0 0 0 0 0 0 0 0 0 0 0 0 0 0 0 0 0 0 0 0 0 0 0 0 0 0 0 0 0 0 0 0 0 0 0 0 0 0 0 0 0 0
0 0 0 0 0 0 0 0 0 0 0 0 0 0 0 0 0 0 0 0 0 0 0 0 0 0 0 0 0 0 0 0 0 0 0 0 0 0 0 0 0 0 0 0 0 0 0 0 0
0 0 0 0 0 0 0 0 0 0 0 0 0 0 0 0 0 0 0 0 0 0 0 0 0 0 0 0 0 0 0 0 0 0 0 0 0 0 0 0 0 0 0 0 0 0 0 0 0
0 0 0 0 0 0 0 0 0 0 0 0 0 0 0 0 0 0 0 0 0 0 0 0 0 0 0 0 0 0 0 0 0 0 0 0 0 0 0 0 0 0 0 0 0 0 0 0 0
0 0 0 0 0 0 0 0 0 0 0 0 0 0 0 0 0 0 0 0 0 0 0 0 0 0 0 0 0 0 0 0 0 0 0 0 0 0 0 0 0 0 0 0 0 0 0 0 0
0 0 0 0 0 0 0 0 0 0 0 0 0 0 0 0 0 0 0 0 0 0 0 0 0 0 0 0 0 0 0 0 0 0 0 0 0 0 0 0 0 0 0 0 0 0 0 0 0
0 0 0 0 0 0 0 0 0 0 0 0 0 0 0 0 0 0 0 0 0 0 0 0 0 0 0 0 0 0 0 0 0 0 0 0 0 0 0 0 0 0 0 0 0 0 0 0 0
0 0 0 0 0 0 0 0 0 0 0 0 0 0 0 0 0 0 0 0 0 0 0 0 0 0 0 0 0 0 0 0 0 0 0 0 0 0 0 0 0 0 0 0 0 0 0 0 0
0 0 0 0 0 0 0 0 0 0 0 0 0 0 0 0 0 0 0 0 0 0 0 0 0 0 0 0 0 0 0 0 0 0 0 0 0 0 0 0 0 0 0 0 0 0 0 0 0
0 0 0 0 0 0 0 0 0 0 0 0 0 0 0 0 0 0 0 0 0 0 0 0 0 0 0 0 0 0 0 0 0 0 0 0 0 0 0 0 0 0 0 0 0 0 0 0 0

GFSSGP_con_sbcape_045.txt.gz
CAPE
0 0 0 0 0 0 0 0 0 23 56 47 70 83 110 172 133 126 396 465 485 382 643 1000 965 1049 1048 1244 1294 1200 1239 1198 994 955 1032 952 826 867 902 1039 1297 1057 722 901 735 482 300 197 154
0 0 0 0 0 0 0 0 27 75 91 62 58 138 168 426 412 435 503 475 369 500 811 1055 922 1132 1293 1391 1313 1224 1181 1097 1072 913 785 749 780 799 830 896 1287 976 572 651 313 92 83 110 118
0 0 0 0 0 0 0 58 125 126 67 32 1 38 179 454 349 371 634 433 451 660 876 1126 1007 1162 1366 1358 1367 1276 1230 1122 1072 1004 837 925 892 822 837 1071 1133 763 464 232 110 91 76 61 41
0 0 0 0 0 0 0 146 102 37 30 8 6 0 61 159 302 551 688 507 442 703 907 800 912 1084 1320 1469 1448 1287 1188 1052 1027 1041 1101 964 760 536 526 671 816 373 228 97 68 45 18 4 16
0 0 0 0 0 0 0 139 100 71 21 0 5 0 162 373 398 642 565 405 421 577 779 950 776 1011 1293 1397 1214 1116 1060 1025 1042 1154 1155 807 551 417 379 442 427 285 99 52 19 1 0 0 7
0 0 0 0 0 0 25 160 71 108 16 55 39 23 300 526 566 582 410 480 446 549 618 755 732 888 1035 1103 997 899 928 969 991 1028 952 714 606 501 397 400 310 170 96 35 6 0 0 0 0
0 0 0 1 0 17 21 114 124 101 81 118 56 276 408 471 312 272 351 436 476 523 588 704 803 849 800 751 749 748 794 763 731 731 684 534 449 482 513 445 273 129 52 34 0 0 0 0 0
0 0 8 10 4 5 36 81 128 88 108 37 156 284 511 311 182 251 237 267 301 274 374 469 551 666 764 771 554 569 499 425 455 432 324 205 245 259 234 132 208 125 128 148 72 70 2 0 0
0 0 19 59 20 20 26 13 17 37 109 48 0 348 421 235 148 190 166 114 122 29 63 72 136 187 224 280 342 264 273 262 239 227 157 80 304 351 223 47 65 150 165 143 148 143 62 6 0
0 0 0 23 50 41 9 11 0 256 127 43 76 155 207 187 315 310 246 178 15 0 0 0 0 0 6 0 167 168 148 133 160 253 324 294 394 439 320 188 39 99 49 19 5 0 0 18 6
0 0 0 3 29 87 24 0 62 306 246 144 158 352 306 308 317 243 121 6 0 0 0 0 0 0 0 0 6 0 28 30 65 200 228 315 344 437 571 584 336 254 0 46 0 0 0 0 0
0 0 0 49 1 0 8 0 113 299 64 150 312 443 350 328 238 129 8 0 0 0 0 0 0 0 0 0 0 0 0 15 73 124 201 402 586 617 574 536 402 115 0 0 0 0 0 0 0
0 0 0 0 0 0 0 0 113 34 136 154 329 415 423 314 200 21 0 0 0 0 0 0 0 0 0 0 1 0 10 138 238 311 439 510 661 541 198 187 8 0 0 0 0 0 0 0 0
0 0 0 0 0 0 0 0 0 7 61 184 368 401 281 136 6 0 0 0 0 0 0 0 0 8 0 0 0 0 76 161 256 402 470 327 126 18 0 0 0 0 0 0 0 0 0 0 0
0 0 0 0 0 0 0 0 0 103 108 131 325 182 48 0 0 0 0 0 0 0 0 20 0 0 0 0 0 0 0 0 0 2 1 0 9 0 0 0 0 0 0 0 0 0 0 0 0
0 0 0 0 0 0 0 0 0 195 226 128 79 24 0 0 0 0 0 0 0 0 82 0 0 0 0 0 0 0 0 0 0 0 0 0 0 0 0 0 0 0 0 0 0 0 0 0 0
0 0 0 0 0 0 0 0 0 4 194 112 24 0 0 0 0 0 0 0 0 23 21 16 0 0 2 1 0 0 0 0 0 0 0 0 0 0 0 0 0 0 0 0 0 0 0 0 0
0 0 0 0 0 0 0 0 0 0 5 0 0 0 0 0 0 0 0 0 1 17 44 5 7 7 4 0 0 0 0 0 0 0 0 0 0 0 0 0 0 0 0 0 0 0 0 0 0
0 0 0 0 0 0 0 0 0 0 0 0 0 0 0 0 0 0 0 3 59 172 222 131 1 1 0 0 0 0 0 0 0 0 0 0 0 0 0 0 0 0 0 0 0 0 0 0 0
0 0 0 0 0 0 0 0 0 0 0 0 0 0 0 0 0 0 0 0 50 98 159 2 0 0 0 0 0 0 0 0 0 0 0 0 0 0 0 0 0 0 0 0 0 0 0 0 0
0 0 0 0 0 0 0 0 0 0 0 0 0 0 0 0 0 0 0 0 0 0 0 0 0 0 0 0 0 0 0 0 0 0 0 0 0 0 0 0 0 0 0 0 0 0 0 0 0
0 0 0 0 0 0 0 0 0 0 0 0 0 0 0 0 0 0 0 0 0 0 0 0 0 0 0 0 0 0 0 0 0 0 0 0 0 0 0 0 0 0 0 0 0 0 0 1 1
0 0 0 0 0 0 0 0 0 0 0 0 0 0 0 0 0 0 0 0 0 0 0 0 0 0 0 0 0 0 0 0 0 0 0 0 0 0 0 0 0 0 0 0 0 0 0 0 1
0 0 0 0 0 0 0 0 0 0 0 0 0 0 0 0 0 0 0 0 0 0 0 0 0 0 0 0 0 0 0 0 0 0 0 0 0 0 0 0 0 0 0 0 0 0 0 0 2
0 0 0 0 0 0 0 0 0 0 0 0 0 0 0 0 0 0 0 0 0 0 0 0 0 0 0 0 0 0 0 0 0 0 0 0 0 0 0 0 0 0 0 0 0 0 0 12 24
0 0 0 0 0 0 0 0 0 0 0 0 0 0 0 0 0 0 0 0 0 0 0 0 0 0 0 0 0 0 0 0 0 0 0 0 0 0 0 0 0 0 0 6 3 6 25 45 89
0 0 0 0 0 0 0 0 0 0 0 0 0 0 0 0 0 0 0 0 0 0 0 0 0 0 0 0 0 0 0 0 0 0 0 0 0 0 0 0 1 10 18 28 56 97 96 96 87
0 0 0 0 0 0 0 0 0 0 0 0 0 0 0 0 0 0 0 0 0 0 0 0 0 0 0 0 0 0 0 0 0 0 0 0 0 0 0 0 2 9 24 65 99 108 80 81 81
0 0 0 0 0 0 0 0 0 0 0 0 0 0 0 0 0 0 0 0 0 0 0 0 0 0 0 0 0 0 0 0 0 0 0 0 0 0 0 19 21 20 49 94 80 32 25 1 0
0 0 0 0 0 0 0 0 0 0 0 0 0 0 0 0 0 0 0 0 0 0 0 0 0 0 0 0 0 0 0 0 0 0 0 0 0 0 15 23 3 21 37 40 0 1 0 0 0

GFSSGP_con_sbcape_048.txt.gz
CAPE
0 0 0 0 0 0 0 0 59 465 405 303 174 242 463 546 377 359 540 503 612 496 889 964 913 978 1098 1181 1251 1356 1388 1117 960 913 993 971 890 903 952 960 1039 700 678 518 309 137 111 112 126
0 0 0 0 0 0 0 0 92 480 420 264 95 207 384 598 586 496 571 570 549 596 828 1048 811 1033 1303 1309 1312 1371 1285 1104 1088 855 739 737 725 723 761 969 902 627 495 227 125 130 121 63 9
0 0 0 0 0 0 5 0 707 419 29 0 0 16 91 378 492 474 664 539 588 842 1006 1204 932 1145 1420 1381 1426 1379 1286 1187 1103 994 840 858 839 909 1017 883 931 405 186 85 45 17 2 0 0
0 0 0 0 0 0 64 655 739 378 130 33 0 25 165 405 320 585 494 528 733 997 1159 851 990 1180 1312 1524 1426 1345 1199 1064 1033 1130 993 827 591 496 606 635 564 219 57 17 0 0 0 0 0
0 0 0 0 0 0 374 617 419 161 1 0 0 0 75 708 609 542 464 498 754 1005 1262 1433 929 1199 1397 1533 1361 1210 1054 1010 1115 1205 976 609 434 396 430 416 298 80 21 0 0 0 0 0 0
0 0 0 0 0 0 39 685 380 147 6 2 55 12 407 797 954 789 526 493 665 971 1025 1124 938 1124 1276 1266 1046 906 919 953 1030 1000 852 566 464 416 352 254 134 38 0 0 0 0 0 0 0
0 0 0 0 30 105 559 475 235 23 95 106 99 159 561 884 1030 742 718 685 663 807 1017 1100 1197 1042 836 764 711 736 817 840 804 730 685 564 522 552 435 338 122 39 25 9 0 0 0 0 0
0 0 16 46 113 206 683 467 167 46 227 294 301 263 628 722 646 838 842 870 879 782 801 785 737 703 727 798 608 639 606 504 484 487 337 304 283 254 256 223 169 66 65 33 22 23 0 0 0
0 0 62 141 253 412 274 84 65 171 289 310 224 701 911 423 843 939 971 893 806 700 718 547 432 483 445 334 476 340 303 302 266 267 175 118 373 441 306 28 102 111 93 59 28 1 0 0 0
0 0 16 57 434 237 37 7 3 156 306 277 582 1088 1079 661 1051 917 742 672 560 466 236 224 225 193 115 5 154 188 74 39 340 421 499 505 718 795 583 317 68 82 8 0 0 0 0 9 0
0 0 0 82 325 124 75 10 29 105 122 403 523 1235 1098 1096 1091 946 744 574 354 52 2 45 128 122 35 20 31 5 16 184 582 775 785 865 804 945 965 1025 842 789 32 124 0 8 0 24 23
0 0 13 146 139 67 31 51 96 196 182 246 608 1262 1172 1188 984 780 573 217 0 0 3 38 73 128 105 20 16 105 223 516 617 784 929 1073 1300 1129 1060 974 1005 833 210 101 39 28 52 9 0
0 0 7 51 62 39 164 74 175 352 318 482 1143 1283 1169 773 469 551 159 0 0 0 18 127 159 103 146 265 357 429 578 673 888 902 1067 1237 1326 1292 1028 967 674 328 167 101 83 28 0 0 0
0 0 0 0 60 3 75 132 140 216 417 797 1159 941 666 406 211 190 0 0 0 0 29 308 342 367 371 488 590 661 701 727 956 1047 1251 1134 951 551 356 241 202 128 18 0 0 0 0 0 0
0 0 0 0 22 65 11 25 6 268 398 690 559 546 468 350 106 0 0 0 0 0 99 381 501 586 587 375 126 37 4 65 136 260 287 470 499 339 212 161 16 0 0 0 0 0 0 0 0
0 0 7 0 26 0 2 7 0 434 391 522 539 521 447 265 99 39 8 1 0 2 257 408 419 434 187 128 80 2 3 0 9 56 71 51 40 15 2 0 0 0 0 0 0 0 0 0 0
0 0 0 0 0 0 0 0 0 316 427 494 550 513 468 234 109 74 117 183 97 171 459 514 501 208 12 0 1 1 0 3 0 0 0 0 0 0 0 0 0 0 0 0 0 0 0 0 0
1 0 0 0 0 0 0 0 0 346 554 461 449 471 387 301 127 127 295 359 360 538 642 619 477 14 0 3 0 0 0 0 0 0 0 0 0 0 0 0 0 0 0 0 0 0 0 0 0
1 0 0 0 0 0 0 0 0 254 501 451 472 465 380 322 233 353 475 559 608 644 586 665 306 29 12 0 0 0 0 0 0 0 0 0 0 0 0 0 0 0 0 0 0 0 0 0 0
0 19 25 0 0 17 50 78 0 106 328 463 482 471 397 384 371 393 611 709 764 725 687 654 499 285 440 190 22 0 0 0 0 0 0 0 0 0 0 0 0 0 0 0 0 0 0 0 0
45 88 32 12 0 0 34 60 54 0 53 74 189 297 383 450 416 410 519 767 829 859 763 601 597 545 135 0 0 0 0 0 0 0 0 0 0 0 0 0 0 0 0 0 0 0 0 0 0
117 1 10 9 48 94 2 94 96 59 15 8 29 188 254 169 99 16 0 4 33 97 69 29 67 29 1 0 0 0 0 11 0 0 0 0 0 0 0 0 0 0 0 0 0 0 0 1 0
48 1 10 9 38 49 25 41 139 46 55 37 54 175 230 119 52 0 0 0 0 0 0 0 0 0 0 0 0 0 0 0 0 0 0 0 0 0 0 0 0 0 0 0 2 3 12 11 23
22 77 78 77 76 63 28 59 1 20 16 75 81 104 90 29 0 0 0 0 0 0 0 0 0 0 0 0 0 0 0 0 0 0 0 0 0 0 0 0 0 5 24 32 41 45 46 62 69
75 68 21 28 18 1 3 13 0 0 0 37 75 54 9 0 0 0 0 0 0 0 0 0 0 0 0 0 0 0 0 0 0 0 0 0 0 0 4 18 41 53 69 81 67 82 66 65 73
37 11 0 0 0 3 0 25 118 0 0 0 13 19 0 0 0 0 0 0 0 0 0 0 0 0 0 0 0 0 0 0 0 0 0 0 0 7 9 28 58 78 75 68 65 78 78 81 97
16 12 0 10 0 1 0 0 0 0 0 0 14 0 0 0 0 0 0 0 0 0 0 0 0 0 0 0 0 0 0 0 0 0 0 3 7 13 25 47 72 87 68 75 78 85 94 85 101
10 0 0 0 0 0 0 0 0 0 0 0 1 0 0 0 0 0 0 0 0 0 0 0 0 0 0 0 0 0 0 0 0 0 0 0 0 1 7 18 31 50 61 59 78 76 77 90 104
0 0 0 0 0 0 0 0 0 0 0 0 0 0 0 0 0 0 0 0 0 0 0 0 0 0 0 0 0 0 0 0 0 0 0 0 0 0 0 0 7 23 44 57 79 95 68 55 51
0 0 0 0 0 0 0 0 0 0 0 0 0 0 0 0 0 0 0 0 0 0 0 0 0 0 0 0 0 0 0 0 0 0 0 0 0 0 0 0 6 22 55 71 56 40 46 15 18

GFSSGP_con_sbcape_051.txt.gz
CAPE
0 0 0 0 0 0 0 2 10 589 627 498 384 501 722 883 636 632 366 336 584 748 637 434 852 1000 1078 1193 1287 1347 1264 990 930 874 900 886 875 863 858 688 637 657 510 251 158 157 107 28 0
0 0 0 0 0 0 6 15 8 647 500 578 313 582 486 772 679 724 577 387 530 774 596 432 793 1044 1218 1203 1274 1255 1109 957 894 752 704 644 630 681 876 606 694 437 235 166 106 32 0 0 0
0 0 0 0 0 0 39 24 902 636 434 230 32 52 152 365 431 314 498 464 565 729 783 759 864 1102 1262 1283 1253 1203 1065 1100 1042 922 721 752 814 877 768 607 610 225 76 12 0 0 0 0 0
0 0 0 0 0 0 0 555 525 415 263 25 128 83 23 306 31 322 363 517 758 798 927 619 949 1124 1281 1355 1291 1072 1074 1049 1093 1097 793 601 477 563 575 420 387 47 0 0 0 0 0 0 0
0 0 0 0 0 1 19 803 582 121 97 28 31 20 41 230 86 383 455 607 684 820 998 975 974 1123 1374 1313 1078 1094 1004 1056 1198 940 679 361 357 372 387 275 91 4 0 0 0 0 0 0 0
0 0 0 20 22 5 65 420 414 39 5 6 5 26 90 107 184 219 515 640 500 724 1070 971 944 943 1032 983 997 844 854 984 966 803 656 374 340 341 183 95 29 7 0 0 0 0 0 0 0
0 0 0 28 28 40 113 546 484 89 149 17 3 92 680 461 496 692 440 669 838 899 947 980 909 886 841 685 634 652 750 773 693 662 570 461 489 475 358 278 42 21 16 0 0 0 0 0 0
0 0 2 48 54 133 333 395 286 376 7 26 232 211 520 879 900 52 253 401 812 792 886 944 942 839 853 733 537 572 565 486 432 361 251 225 209 227 254 310 156 47 29 41 43 42 0 0 0
0 0 16 286 81 253 220 289 0 72 60 361 359 537 437 1233 1081 338 472 843 791 853 665 506 445 470 511 540 573 391 402 342 233 114 136 34 219 317 171 61 120 63 31 31 23 2 0 2 5
0 3 22 43 282 339 170 136 0 45 198 300 891 1504 1316 1139 1258 962 874 937 768 690 401 358 374 333 184 32 201 139 45 2 136 186 278 636 574 748 552 306 144 135 37 69 9 4 47 69 74
0 2 17 27 481 330 88 79 4 1 5 63 401 1470 1252 1186 959 933 705 926 679 244 112 174 212 159 67 151 85 47 12 310 589 787 820 888 637 870 862 763 1021 970 187 285 56 91 88 98 78
0 0 0 83 3 5 9 3 0 0 74 43 1321 1205 1329 1100 1035 1027 1055 641 87 12 36 57 131 150 93 14 3 9 86 411 644 853 1054 1148 1069 1117 1087 914 799 1119 445 229 168 134 209 90 52
0 2 81 0 7 38 55 8 0 128 98 209 943 932 1161 1002 907 823 558 56 0 0 70 164 111 201 346 279 511 650 676 949 1144 1083 1102 1571 1671 1122 1029 1171 758 439 350 235 201 152 103 49 27
0 8 4 48 80 46 180 128 136 193 216 625 796 899 792 508 511 304 11 0 0 32 301 321 297 333 522 777 781 864 646 708 653 863 1065 1181 1173 1090 811 546 448 344 109 56 13 6 1 1 18
0 3 3 11 146 130 104 112 100 243 290 398 507 471 372 220 175 30 0 0 3 127 505 585 541 629 697 523 294 169 93 58 52 103 328 621 787 636 493 330 91 2 0 0 0 0 0 0 2
0 0 2 8 25 150 27 71 94 287 345 326 302 298 263 133 15 6 1 1 19 212 522 738 623 758 422 192 33 34 4 42 44 17 36 67 93 58 28 0 0 0 0 0 0 0 0 0 0
0 0 0 2 34 45 13 4 109 312 390 417 342 311 290 197 83 162 140 74 15 176 612 790 857 390 96 0 0 2 0 10 12 0 0 0 0 0 0 0 0 0 0 0 0 0 0 0 0
2 12 33 35 44 13 7 28 226 357 324 502 532 486 437 287 290 364 401 425 341 376 733 929 614 118 13 61 0 0 0 0 0 0 0 0 0 0 0 0 0 0 0 1 0 0 0 0 0
3 13 21 14 0 1 9 48 83 332 362 451 525 543 545 505 443 570 703 695 664 806 982 873 346 393 434 386 153 17 0 0 0 0 0 0 0 0 0 0 0 0 0 0 0 0 0 0 0
32 6 1 32 0 20 8 40 42 294 413 441 472 568 624 644 710 803 930 955 971 958 895 756 580 534 602 281 255 99 25 0 0 0 0 0 0 0 0 0 0 0 0 0 0 0 0 0 0
50 20 17 71 17 1 108 162 156 233 380 478 546 594 672 789 896 970 1027 890 714 655 741 872 694 599 326 45 11 22 2 0 0 1 0 0 0 0 0 0 0 0 0 0 0 0 0 1 0
42 66 54 100 88 49 51 41 152 166 317 386 516 618 707 783 767 775 830 929 919 685 461 199 153 117 7 0 1 0 2 22 53 24 7 1 0 0 0 0 0 1 3 6 12 9 20 22 17
15 79 101 77 92 3 118 57 154 283 258 244 412 538 607 522 511 153 129 138 95 106 50 36 13 0 0 0 1 2 14 15 15 1 0 1 2 8 5 1 3 11 14 22 32 47 50 42 42
105 132 133 135 136 189 77 138 149 298 228 277 252 366 444 497 186 0 0 0 0 0 0 0 0 0 0 0 0 0 3 0 0 0 0 0 0 0 1 3 12 23 39 50 52 86 73 79 77
134 185 286 205 177 168 186 152 81 138 102 188 322 338 473 465 7 0 0 0 0 0 0 0 0 0 0 0 0 0 0 0 0 0 1 0 0 0 0 0 5 9 24 43 72 98 83 75 79
170 169 154 46 82 100 149 0 136 158 28 126 307 349 417 175 0 0 0 0 0 0 0 0 5 4 0 0 0 0 0 0 0 0 0 0 0 0 2 6 10 18 34 101 70 94 98 70 111
185 63 106 95 114 97 0 113 173 66 36 103 262 310 316 14 0 0 0 0 0 2 5 1 9 4 0 0 0 0 0 0 0 0 0 0 0 0 0 0 4 6 10 22 83 107 75 96 90
45 93 51 21 5 0 21 0 142 17 19 38 200 292 88 7 3 3 5 3 18 16 12 14 4 0 0 0 0 0 0 0 0 0 0 0 0 0 0 0 0 0 2 14 42 99 80 77 105
60 0 0 38 38 4 0 19 5 0 1 0 70 115 34 19 17 14 15 15 20 13 6 0 0 0 0 0 0 0 0 0 0 0 0 0 0 0 0 0 0 0 5 17 47 81 64 45 70
0 0 19 19 0 0 1 0 0 0 0 0 3 25 21 40 41 19 6 2 1 0 0 0 0 0 0 0 0 0 0 0 0 0 0 0 0 0 0 0 1 6 13 24 31 34 47 30 14

GFSSGP_con_sbcape_054.txt.gz
CAPE
0 0 0 0 0 0 0 0 0 162 497 617 519 775 733 681 936 547 209 474 422 145 246 385 748 1022 1141 1225 1275 1217 1216 1133 1081 1151 1133 1099 1024 966 740 763 695 377 189 141 57 0 0 0 0
0 0 0 0 0 0 0 53 587 988 570 279 276 598 739 715 796 514 487 672 606 231 117 355 769 1076 1307 1279 1241 1198 1148 1092 1009 907 805 758 784 732 520 476 484 399 80 0 0 0 0 0 0
0 0 0 0 0 0 0 953 561 810 183 354 130 228 405 643 483 601 522 477 772 217 254 559 802 988 1240 1169 1227 1176 1085 985 939 866 776 776 751 580 392 523 349 224 0 0 0 0 0 0 0
0 0 0 0 0 0 0 736 44 184 319 394 78 63 30 143 467 547 545 442 602 598 470 519 749 818 1073 1297 1162 1086 986 977 1016 903 694 461 481 405 313 394 264 15 0 0 0 0 0 0 25
0 0 0 0 0 0 11 717 255 443 164 165 322 179 10 338 589 573 430 418 405 361 452 692 606 795 1314 1280 1115 932 967 1095 913 658 507 449 325 296 285 300 191 53 0 0 0 0 0 0 0
0 0 0 0 0 8 6 662 106 30 22 2 0 116 94 20 261 506 556 336 430 476 639 705 709 820 915 958 816 728 908 830 677 572 491 456 414 333 282 241 177 84 12 0 0 0 0 0 0
0 0 0 0 0 11 459 360 153 43 7 147 21 295 126 158 75 97 699 57 130 490 603 670 674 723 558 501 493 542 612 552 546 488 448 429 388 350 293 231 165 109 73 25 7 0 0 0 0
0 0 0 0 1 354 377 16 59 306 134 15 159 276 253 349 563 556 403 9 247 597 659 684 663 707 574 459 410 432 370 328 271 209 201 166 151 227 281 200 172 136 81 75 54 0 0 1 1
0 0 0 8 208 551 0 46 52 31 50 93 188 0 2 706 151 9 62 208 177 414 767 692 669 706 534 471 444 324 308 215 122 86 92 3 7 29 146 66 161 171 94 77 59 30 29 41 59
0 0 0 24 161 164 2 0 2 11 0 135 539 32 106 612 25 2 31 38 205 206 366 444 454 507 521 209 345 202 71 29 35 27 23 138 639 292 340 84 155 229 218 211 182 140 64 55 15
0 0 0 496 157 105 10 0 0 87 48 0 828 1153 1145 997 136 0 0 188 205 291 265 230 389 310 184 65 197 46 5 233 433 689 771 907 806 803 348 530 295 343 241 323 120 42 36 138 95
0 1 79 110 122 4 145 56 64 22 36 93 1213 964 814 756 537 201 6 389 154 26 43 126 189 270 147 54 90 42 141 624 708 864 804 811 715 838 538 513 626 543 404 338 255 145 146 107 42
0 0 74 50 3 0 11 0 0 70 77 808 909 704 761 851 752 641 373 101 0 0 43 113 141 293 221 377 618 483 799 722 698 880 1021 988 848 504 475 605 543 437 211 9 1 0 0 0 0
0 2 11 11 0 8 102 5 52 138 159 306 284 656 666 649 57 107 37 0 0 10 130 92 205 472 688 711 735 436 169 39 43 291 419 759 754 793 600 499 272 1 0 0 0 0 0 0 0
13 0 15 4 53 0 38 144 108 187 347 231 257 352 142 256 427 24 0 1 8 189 244 244 357 664 549 321 214 7 0 0 0 48 90 107 167 249 95 0 0 0 0 0 0 0 0 0 0
1 0 0 0 11 14 4 3 134 179 244 283 276 195 183 138 34 11 3 6 38 311 408 373 450 546 312 121 8 9 0 0 0 0 4 10 0 0 0 0 0 0 0 0 0 0 0 0 0
0 0 0 4 0 2 14 19 151 225 219 216 216 178 91 30 17 9 4 4 63 465 641 640 471 221 23 0 0 0 1 1 0 0 0 0 0 0 0 0 0 0 0 0 0 0 0 0 0
0 0 0 0 0 22 2 6 113 218 242 167 158 189 139 17 30 119 126 185 66 534 866 628 330 10 0 0 0 0 0 0 0 0 0 0 0 0 0 0 0 0 0 0 0 0 0 0 0
1 5 46 4 0 0 3 0 50 89 169 75 239 278 273 225 342 375 459 545 483 689 979 517 116 48 68 15 10 0 0 0 0 0 0 0 0 0 0 0 0 0 0 0 0 0 0 0 0
2 19 2 0 0 0 6 20 6 52 55 272 412 433 464 395 447 528 737 868 930 1163 649 414 350 112 221 325 303 52 0 0 0 0 0 0 0 0 0 0 0 0 0 0 0 0 0 0 0
27 18 54 27 0 0 27 0 19 33 96 225 320 429 522 594 648 800 999 1120 1184 849 801 665 543 399 497 307 23 4 0 0 0 0 0 0 0 0 0 0 0 0 0 0 0 0 0 0 0
34 0 8 10 29 0 17 20 36 64 170 265 392 409 542 682 831 989 1119 850 816 751 674 690 738 613 345 1 0 0 0 0 3 7 3 0 0 0 0 0 0 0 0 0 0 0 0 0 0
25 0 109 36 32 62 0 1 23 23 88 244 402 550 716 775 845 877 1010 882 894 863 852 520 172 43 0 1 5 0 47 33 14 8 1 0 0 0 0 0 0 0 0 5 17 30 17 3 6
143 103 112 80 130 60 2 33 13 0 109 277 326 488 626 678 663 453 543 451 282 461 368 261 4 0 0 0 0 7 10 0 0 0 0 0 0 0 0 0 3 1 0 0 10 13 9 3 2
51 106 175 25 118 231 58 99 129 7 85 175 310 440 597 500 267 91 46 7 7 2 4 0 0 0 0 0 0 0 0 0 0 0 0 0 0 0 0 0 0 0 0 0 8 32 51 22 10
126 27 129 164 163 237 79 42 239 96 93 353 306 362 508 520 107 1 0 0 0 0 0 0 0 0 0 0 0 0 0 0 0 0 0 0 0 0 0 0 0 0 0 0 1 20 40 55 20
17 105 116 39 62 201 14 0 245 81 34 182 336 416 539 509 60 0 0 3 0 0 0 0 3 4 1 0 0 0 0 0 0 0 0 0 0 0 0 0 0 0 0 0 1 4 42 39 12
1 1 157 32 30 37 0 17 247 60 20 83 305 438 526 377 70 0 0 4 8 5 5 2 9 0 0 0 0 0 0 0 0 0 0 0 0 0 0 0 0 0 0 0 0 0 23 17 25
42 24 0 0 193 225 253 54 164 22 44 47 178 375 479 198 43 15 3 10 18 3 5 0 0 0 0 0 0 0 0 0 0 0 0 0 0 0 0 0 0 0 0 0 6 13 7 11 1
0 13 8 344 4 178 183 25 0 0 24 14 4 210 280 107 42 31 34 8 13 1 0 0 0 0 0 0 0 0 0 0 0 0 0 0 0 0 0 0 0 0 6 0 0 0 0 0 0

GFSSGP_con_sbcape_057.txt.gz
CAPE
0 0 0 0 0 0 0 0 0 878 814 370 693 698 619 753 765 267 349 104 163 392 753 960 1032 1113 1118 1195 1187 1146 1121 1155 1160 1123 1003 905 773 648 427 434 373 192 5 0 0 0 0 0 0
0 0 0 0 0 0 0 0 864 807 463 315 565 407 519 772 640 661 639 162 117 259 590 840 963 1113 1199 1144 1183 1124 1055 1030 946 882 900 914 562 361 196 244 270 120 0 0 0 0 0 0 0
0 0 0 0 0 0 0 1124 531 461 345 431 255 289 638 669 799 801 736 256 68 221 491 895 928 1042 1185 1222 1139 1015 894 808 821 860 914 657 373 229 120 240 149 17 0 0 0 0 0 0 0
0 0 0 0 0 0 0 722 844 610 404 223 105 74 197 338 659 629 531 167 158 485 577 579 748 932 1132 1160 1057 919 862 733 653 611 659 406 253 149 83 214 127 0 0 0 0 0 0 0 0
0 0 0 0 0 8 179 479 182 247 236 279 267 43 207 674 517 338 484 339 396 416 472 422 563 895 1062 935 934 879 749 547 424 447 455 407 193 66 36 199 105 38 1 0 0 0 0 0 0
0 0 0 0 0 609 495 213 153 71 62 137 42 67 103 673 651 526 384 335 144 132 186 265 638 727 624 596 673 597 488 380 356 380 387 341 268 229 237 218 154 114 39 19 5 1 0 0 0
0 0 0 0 0 759 421 219 90 36 30 41 99 152 55 22 239 445 295 237 31 126 201 354 415 438 378 385 452 398 351 308 313 281 246 218 211 175 190 199 190 123 68 55 18 0 0 0 0
0 0 0 0 10 333 173 151 102 113 107 0 72 261 247 16 21 0 87 265 152 298 270 254 452 421 357 386 361 263 190 170 153 131 109 95 68 58 79 75 135 125 64 28 0 0 0 0 10
0 0 0 0 250 138 25 71 0 35 0 8 13 0 344 308 54 0 9 36 93 158 263 314 558 406 331 311 302 206 184 114 81 79 48 5 0 0 25 7 70 105 56 25 3 2 0 0 0
0 0 0 160 223 92 7 50 5 10 36 0 0 12 534 115 138 278 40 11 112 109 302 394 598 382 334 322 137 78 66 8 0 0 0 0 0 0 66 0 14 66 64 24 46 25 12 5 0
0 0 75 264 127 39 0 12 5 0 0 0 0 58 258 0 2 69 139 38 105 116 210 336 437 339 81 138 37 1 0 0 1 0 0 39 177 78 167 9 34 25 68 43 70 20 1 3 0
0 19 403 415 198 38 38 0 0 0 0 9 0 339 318 0 0 13 123 137 199 101 45 16 45 13 0 19 0 0 1 61 262 307 193 81 75 22 5 3 84 79 0 0 0 0 0 0 0
0 167 114 82 16 0 0 0 0 0 120 321 399 1003 679 97 3 23 102 234 45 1 16 4 0 0 0 37 127 186 130 273 189 245 447 238 176 57 152 4 0 0 0 0 0 0 0 0 0
0 58 46 20 4 18 10 0 1 3 38 144 934 760 317 219 57 163 330 188 0 5 1 0 1 0 214 112 0 0 0 0 0 25 139 187 37 19 3 0 0 0 0 0 0 0 0 0 0
1 20 83 43 6 0 0 0 15 7 73 104 381 355 104 51 0 46 119 44 3 7 5 5 53 251 129 0 0 0 0 0 0 0 0 0 0 0 0 0 0 0 0 0 0 0 0 0 0
0 0 2 1 7 0 0 0 4 129 146 120 78 341 33 199 4 57 62 0 5 3 14 82 307 70 0 0 0 0 0 0 0 0 0 0 0 0 0 0 0 0 0 0 0 0 0 0 0
0 0 0 0 1 1 0 0 25 167 149 101 64 44 120 2 0 0 2 48 89 60 111 79 2 0 0 0 0 0 0 0 0 0 0 0 0 0 0 0 0 0 0 0 0 0 0 0 0
0 0 0 0 0 1 0 0 34 83 119 71 43 10 0 0 0 0 0 23 188 248 222 66 0 0 0 0 0 0 0 0 0 0 0 0 0 0 0 0 0 0 0 0 0 0 0 0 0
0 0 0 0 0 0 0 4 63 63 93 70 9 5 3 0 10 3 15 0 238 257 129 0 0 0 0 0 0 0 0 0 0 0 0 0 0 0 0 0 0 0 0 0 0 0 0 0 0
0 0 0 0 0 0 0 0 12 58 2 0 32 27 0 125 134 210 222 183 500 308 47 0 0 0 0 0 0 0 0 0 0 0 0 0 0 0 0 0 0 0 0 0 0 0 0 0 0
6 2 0 0 0 0 0 0 0 3 56 0 0 32 18 123 160 333 444 462 253 170 45 0 0 0 0 2 22 0 0 0 0 0 0 0 0 0 0 0 0 0 0 0 0 0 0 0 0
1 4 19 3 0 0 1 5 0 0 12 8 65 62 157 221 364 560 481 384 401 267 190 188 52 11 27 137 0 0 0 0 0 0 0 0 0 0 0 0 0 0 0 0 0 0 0 0 0
4 0 23 10 13 0 0 0 0 0 1 30 148 223 158 318 426 601 555 399 281 259 172 125 107 83 85 0 0 0 0 0 0 0 0 0 0 0 0 0 0 0 0 0 0 0 0 0 0
48 5 23 2 1 0 5 0 0 0 0 83 145 200 247 316 489 653 488 400 321 203 249 289 84 0 0 0 0 0 0 0 0 0 0 0 0 0 0 0 0 0 0 0 0 0 0 0 0
12 21 12 0 0 5 32 0 2 0 37 61 86 234 342 272 132 357 394 207 59 6 0 0 0 0 0 0 0 0 0 0 0 0 0 0 0 0 0 0 0 0 0 0 0 0 0 0 0
0 4 0 7 0 0 14 3 34 0 0 0 14 176 237 37 4 1 0 0 0 0 0 0 0 0 0 0 0 0 0 0 0 0 0 0 0 0 0 0 0 0 0 0 0 0 0 0 0
5 48 39 6 12 0 5 0 43 0 36 0 2 261 204 15 0 0 0 0 0 0 0 0 0 0 0 0 0 0 0 0 0 0 0 0 0 0 0 0 0 0 0 0 0 0 0 0 0
17 1 19 4 0 0 0 0 11 0 17 98 128 232 221 26 0 0 0 0 0 0 0 0 0 0 0 0 0 0 0 0 0 0 0 0 0 0 0 0 0 0 0 0 0 0 0 0 0
0 0 0 0 0 0 0 0 0 0 0 105 158 187 267 97 0 0 0 0 0 0 0 0 0 0 0 0 0 0 0 0 0 0 0 0 0 0 0 0 0 0 0 0 0 0 0 0 0
0 1 0 0 0 0 0 0 0 0 0 0 19 154 168 16 0 0 0 0 1 1 0 0 0 0 0 0 0 0 0 0 0 0 0 0 0 0 0 0 0 0 0 0 0 0 0 0 0

GFSSGP_con_sbcape_060.txt.gz
CAPE
0 0 0 0 0 0 0 0 0 26 662 708 694 803 890 917 746 299 271 272 559 692 906 945 942 1129 1197 1213 1211 1183 1188 1054 878 929 790 727 437 221 114 137 133 3 0 0 0 0 0 0 0
0 0 0 0 0 0 0 0 255 754 544 586 626 895 868 985 872 523 356 367 691 785 874 921 879 1025 1181 1222 1149 1024 1074 996 1009 955 603 429 208 142 62 29 35 7 0 0 0 0 0 0 0
0 0 0 0 0 0 0 620 666 505 353 492 439 472 668 1051 991 836 165 170 577 805 802 930 846 962 1163 1178 1078 1025 1018 922 907 856 511 228 159 90 26 50 36 24 0 0 0 0 0 0 0
0 0 0 0 0 0 0 39 754 612 369 210 159 268 456 772 800 805 325 281 349 649 807 634 828 1001 1127 1015 1102 1031 961 891 805 620 442 224 118 63 39 95 53 16 2 0 0 0 0 0 0
0 0 0 0 0 154 352 334 195 278 521 255 170 152 489 879 749 652 234 399 525 608 477 518 673 891 796 1133 1025 853 688 558 584 500 409 310 102 51 65 148 123 119 0 3 0 0 0 0 0
0 0 0 0 0 585 402 214 147 52 148 159 109 198 212 948 747 658 526 533 193 46 49 164 236 263 455 835 746 522 421 414 422 417 368 279 199 172 144 184 171 120 80 33 0 0 0 0 4
0 0 0 0 0 584 429 151 138 119 3 15 215 356 158 869 770 606 233 136 92 50 51 101 123 207 370 476 421 326 325 328 329 302 268 216 194 214 220 191 195 156 82 10 0 0 0 3 1
0 0 0 0 0 90 165 146 225 256 3 1 12 267 150 232 532 311 179 171 118 103 71 55 185 361 345 340 284 224 214 201 209 182 144 98 106 110 114 95 127 98 22 0 0 1 0 0 0
0 0 0 0 0 211 73 155 35 66 15 30 104 6 70 90 140 157 117 168 62 138 146 121 225 290 283 261 239 183 165 129 125 125 93 15 0 0 12 4 42 48 0 0 0 6 1 0 0
0 0 0 0 164 73 4 36 7 11 0 0 37 437 190 4 35 7 18 16 28 57 124 220 259 267 270 254 129 81 59 26 14 5 3 0 0 0 4 0 1 12 9 44 41 41 0 0 0
0 0 17 91 24 4 0 17 20 0 0 0 0 575 330 44 31 0 10 27 16 26 223 290 271 298 215 152 45 19 2 0 0 0 0 0 18 8 0 0 4 7 66 0 0 0 0 0 0
0 1 68 160 53 6 6 3 9 0 0 1 0 291 191 188 56 0 41 9 16 102 165 151 263 153 27 26 0 0 0 1 11 58 64 35 5 0 0 0 0 0 0 0 0 0 0 0 0
0 159 139 106 13 120 6 0 0 0 301 20 327 92 14 0 46 0 22 76 52 115 105 67 138 0 0 0 0 9 101 109 141 177 64 5 0 0 0 0 0 0 0 0 0 0 0 0 0
1 68 9 0 0 9 0 0 0 0 21 85 54 42 22 37 179 173 187 170 106 48 2 0 3 0 50 10 0 0 0 0 0 8 5 0 0 0 0 0 0 0 0 0 0 0 0 0 0
16 47 0 0 0 0 0 0 0 0 19 401 466 229 92 60 94 92 141 155 15 14 0 0 2 62 0 0 0 0 0 0 0 0 0 0 0 0 0 0 0 0 0 0 0 0 0 0 0
0 0 0 0 0 0 1 0 8 0 113 355 598 469 136 101 117 104 124 159 9 3 0 16 254 0 0 0 0 0 0 0 0 0 0 0 0 0 0 0 0 0 0 0 0 0 0 0 0
0 0 0 1 0 0 3 0 160 11 148 165 250 300 114 20 19 13 184 3 0 0 0 106 16 0 0 0 0 0 0 0 0 0 0 0 0 0 0 0 0 0 0 0 0 0 0 0 0
0 0 0 0 5 0 0 0 44 12 47 37 139 220 38 9 27 43 121 6 8 1 39 40 0 0 0 0 0 0 0 0 0 0 0 0 0 0 0 0 0 0 0 0 0 0 0 0 0
0 0 0 0 0 0 0 0 0 28 16 1 125 199 225 74 35 97 115 50 50 64 66 14 0 0 0 0 0 0 0 0 0 0 0 0 0 0 0 0 0 0 0 0 0 0 0 0 0
0 0 0 0 0 0 0 0 1 35 63 44 0 0 0 0 0 0 18 134 183 122 66 0 0 0 0 0 0 0 0 0 0 0 0 0 0 0 0 0 0 0 0 0 0 0 0 0 0
0 0 0 0 0 0 0 0 0 51 24 0 0 0 0 0 2 1 20 229 146 74 0 0 0 0 0 0 0 0 0 0 0 0 0 0 0 0 0 0 0 0 0 0 0 0 0 0 0
0 0 0 0 0 0 0 0 0 0 94 5 0 5 1 43 92 269 275 311 207 42 0 0 0 0 0 0 0 0 0 0 0 0 0 0 0 0 0 0 0 0 0 0 0 0 0 0 0
0 0 0 1 0 0 0 0 0 0 0 12 20 0 5 70 142 462 403 270 172 23 1 0 0 0 0 0 0 0 0 0 0 0 0 0 0 0 0 0 0 0 0 0 0 0 0 0 0
0 0 0 0 0 0 0 0 0 0 0 0 0 0 16 110 228 459 507 454 314 134 4 0 0 0 0 0 0 0 0 0 0 0 0 0 0 0 0 0 0 0 0 0 0 0 0 0 0
0 0 0 0 0 0 1 0 0 0 0 0 0 0 7 97 435 405 288 272 128 27 15 0 0 0 0 0 0 0 0 0 0 0 0 0 0 0 0 0 0 0 0 0 0 0 0 0 0
0 0 3 0 0 0 0 0 0 0 0 0 0 33 61 304 491 415 290 100 36 3 0 0 0 0 0 0 0 0 0 0 0 0 0 0 0 0 0 0 0 0 0 0 0 0 0 0 0
0 5 0 13 0 0 0 0 4 0 0 0 0 152 119 87 265 180 29 0 0 0 0 0 0 0 0 0 0 0 0 0 0 0 0 0 0 0 0 0 0 0 0 0 0 0 0 0 0
0 0 0 0 0 0 0 0 0 0 101 0 0 91 56 0 0 0 0 0 0 0 0 0 0 0 0 0 0 0 0 0 0 0 0 0 0 0 0 0 0 0 0 0 0 0 0 0 0
0 0 0 0 0 0 0 0 0 0 71 14 0 38 20 0 0 0 0 0 0 0 0 0 0 0 0 0 0 0 0 0 0 0 0 0 0 0 0 0 0 0 0 0 0 0 0 0 0
0 0 0 0 0 0 0 0 0 0 0 29 3 43 10 0 0 0 0 0 0 0 0 0 0 0 0 0 0 0 0 0 0 0 0 0 0 0 0 0 0 0 0 0 0 0 0 0 0

GFSSGP_con_sbcape_063.txt.gz
CAPE
1 0 0 0 0 0 0 0 0 0 382 780 856 1013 912 765 563 301 213 67 572 1058 990 980 892 887 912 969 1003 1077 1024 734 616 502 427 282 183 159 60 75 76 29 0 0 0 0 0 0 0
0 0 0 0 0 0 0 0 226 248 545 951 750 718 975 935 989 684 444 529 732 917 859 888 881 874 931 971 982 1089 1000 859 661 409 258 192 160 99 15 32 126 89 0 0 0 0 0 0 0
0 0 0 0 0 0 0 0 551 518 363 492 620 519 755 1159 783 791 525 727 684 883 800 978 790 862 986 982 1034 1133 1113 1072 861 552 264 183 138 65 36 108 174 108 0 0 0 0 0 0 6
0 0 0 0 0 0 0 205 405 636 325 219 164 357 737 946 959 589 572 818 915 991 937 656 638 937 1008 1043 1045 983 1036 932 687 424 354 187 104 71 51 211 208 92 0 0 0 0 0 0 0
0 0 0 0 0 20 432 209 199 301 373 109 46 361 619 1041 889 385 471 808 1004 868 757 471 609 818 1038 1137 1061 979 912 796 610 435 355 276 149 84 139 273 240 176 18 0 0 0 12 0 0
0 0 0 0 0 562 459 217 180 85 97 66 246 246 458 1038 554 566 796 507 211 167 110 176 264 265 367 611 754 610 648 620 504 422 351 265 236 198 219 257 243 163 79 59 12 25 63 61 21
0 0 0 0 0 15 466 196 199 150 80 285 262 218 398 1013 798 667 476 190 83 20 0 33 64 172 275 442 346 363 402 410 433 402 305 253 230 191 209 226 223 145 96 73 47 11 19 87 58
0 0 0 0 0 0 354 221 287 212 101 54 83 177 490 871 671 454 344 159 83 35 34 50 81 105 238 262 270 277 273 292 290 234 172 138 124 133 166 147 155 148 130 120 72 57 48 28 58
0 0 0 0 0 7 174 281 156 82 70 39 199 80 395 655 446 398 264 158 75 141 65 68 116 191 248 277 269 221 229 189 140 121 85 18 14 13 0 40 94 106 111 121 146 60 10 0 0
0 0 0 0 42 159 61 103 60 72 6 24 350 555 670 400 369 262 105 115 49 54 1 0 94 276 285 268 167 112 112 43 35 26 2 0 0 1 4 12 61 98 92 106 11 0 0 0 0
0 0 0 108 216 17 0 21 77 35 0 0 278 188 241 127 98 106 92 67 0 8 68 96 156 258 204 160 58 26 9 3 1 0 0 0 0 6 0 0 0 0 0 0 0 0 0 0 0
0 0 0 60 63 8 19 19 19 0 4 0 425 177 14 10 42 45 36 9 12 50 63 126 166 234 114 32 4 0 0 0 0 0 0 9 0 0 0 0 0 0 0 0 0 0 0 0 0
0 98 102 175 55 18 1 3 0 0 113 69 491 269 107 8 29 53 29 0 6 17 105 140 184 64 15 0 0 0 3 13 36 38 10 0 0 0 0 0 0 0 0 0 0 0 0 0 0
4 39 30 28 11 23 0 0 0 10 79 353 230 91 85 24 7 13 27 4 0 35 74 30 86 0 0 0 0 4 27 20 17 3 0 0 0 0 0 0 0 0 0 0 0 0 0 0 0
33 41 44 43 31 0 0 0 0 10 1 128 78 108 113 23 16 0 11 31 62 37 24 11 0 2 3 0 0 0 0 0 0 0 0 0 0 0 0 0 0 0 0 0 0 0 0 0 0
1 2 66 17 0 0 11 12 0 0 322 489 174 140 118 67 62 53 112 119 117 60 13 0 45 3 0 0 0 0 0 0 0 0 0 0 0 0 0 0 0 0 0 0 0 0 0 0 0
0 0 6 40 0 0 2 22 15 0 365 498 394 156 154 155 163 87 149 132 75 5 0 44 2 0 0 0 0 0 0 0 0 0 0 0 0 0 0 0 0 0 0 0 0 0 0 0 0
0 0 0 4 0 5 0 0 15 20 260 466 494 257 175 139 107 69 91 112 0 0 0 31 0 0 0 0 0 0 0 0 0 0 0 0 0 0 0 0 0 0 0 0 0 0 0 0 0
0 0 0 0 0 0 0 0 0 55 30 177 240 287 179 110 8 0 124 53 0 0 3 0 0 0 0 0 0 0 0 0 0 0 0 0 0 0 0 0 0 0 0 0 0 0 0 0 0
0 0 0 0 0 0 0 0 0 1 14 101 179 250 163 41 5 7 47 0 0 0 0 0 0 0 0 0 0 0 0 0 0 0 0 0 0 0 0 0 0 0 0 0 0 0 0 0 0
0 0 0 0 0 0 0 0 0 0 6 6 152 165 190 91 20 14 48 0 0 0 0 0 0 0 0 0 0 0 0 0 0 0 0 0 0 0 0 0 0 0 0 0 0 0 0 0 0
0 0 0 0 0 0 0 0 0 0 6 0 8 0 2 22 3 0 0 24 10 20 1 0 0 0 0 0 0 0 0 0 0 0 0 0 0 0 0 0 0 0 0 0 0 0 0 0 0
0 0 0 0 0 0 0 0 0 0 19 4 0 0 0 0 0 0 0 60 14 0 0 0 0 0 0 0 0 0 0 0 0 0 0 0 0 0 0 0 0 0 0 0 0 0 0 0 0
0 0 0 0 0 0 0 0 0 0 0 15 0 0 0 0 2 34 3 177 116 0 0 0 0 0 0 0 0 0 0 0 0 0 0 0 0 0 0 0 0 0 0 0 0 0 0 0 0
0 0 0 0 0 0 0 0 0 0 0 0 0 0 0 0 55 262 135 170 97 5 0 0 0 0 0 0 0 0 0 0 0 0 0 0 0 0 0 0 0 0 0 0 0 0 0 0 0
0 0 0 0 0 0 0 0 0 0 0 0 0 0 0 0 132 255 277 198 102 15 6 1 0 0 0 0 0 0 0 0 0 0 0 0 0 0 0 0 0 0 0 0 0 0 0 0 0
0 0 0 0 0 0 0 0 0 0 0 0 2 0 0 49 267 284 194 157 101 26 4 0 0 0 0 0 0 0 0 0 0 0 0 0 0 0 0 0 0 0 0 0 0 0 0 0 0
0 0 0 0 0 0 0 0 0 0 0 0 1 140 60 184 318 343 145 12 0 0 0 0 0 0 0 0 0 0 0 0 0 0 0 0 0 0 0 0 0 0 0 0 0 0 0 0 0
2 0 0 0 0 0 0 0 0 0 0 1 0 17 13 18 180 162 95 0 0 0 0 0 0 0 0 0 0 0 0 0 0 0 0 0 0 0 0 0 0 0 0 0 0 0 0 0 0
0 0 0 0 0 0 0 0 0 0 0 0 0 0 4 0 0 24 1 0 0 0 0 0 0 0 0 0 0 0 0 0 0 0 0 0 0 0 0 0 0 0 0 0 0 0 0 0 0

GFSSGP_con_sbcape_066.txt.gz
CAPE
0 0 0 0 0 0 0 0 0 0 10 955 962 977 773 771 592 385 218 286 933 1153 1031 894 803 875 889 925 975 949 945 856 606 370 257 216 158 68 78 111 96 54 0 0 0 0 186 244 242
0 0 0 0 0 0 0 0 25 408 481 882 648 802 1138 996 984 642 263 760 1136 1116 950 831 863 921 973 981 996 993 995 811 658 325 189 158 59 56 38 74 99 52 0 0 0 30 235 269 465
0 0 0 0 0 0 0 0 152 354 347 519 663 504 671 1009 926 727 615 864 1168 1071 840 900 818 882 1010 1071 1066 1050 957 777 574 368 225 187 79 27 46 217 122 69 41 0 0 18 227 273 293
0 0 0 0 0 0 0 80 105 570 283 263 265 514 828 1086 1108 703 794 1069 1115 850 965 697 754 898 1171 1294 1255 1176 944 750 486 403 333 173 54 51 105 236 147 121 46 0 0 0 0 105 248
0 0 0 0 0 0 454 360 154 304 365 185 105 527 667 1133 561 703 934 1063 1153 955 594 558 617 995 1271 1231 1220 1092 902 661 509 402 285 208 166 124 225 260 214 140 64 3 0 3 12 25 13
0 0 0 0 0 22 597 384 262 155 171 163 437 350 702 816 802 878 710 484 683 587 369 482 556 605 608 449 598 906 776 570 528 429 297 265 273 268 258 232 211 162 120 97 51 75 40 13 3
0 0 0 0 0 0 405 325 306 188 132 293 225 366 744 1035 972 716 463 237 122 75 89 68 136 211 173 325 616 608 503 467 437 377 304 276 258 251 225 212 210 182 143 123 98 93 86 7 0
0 0 0 0 0 0 299 394 428 314 114 141 107 341 793 1105 816 512 298 223 96 28 25 14 38 69 138 254 348 370 344 350 291 231 169 134 148 159 172 124 231 217 226 218 157 16 47 0 0
0 0 0 0 0 0 296 467 295 196 131 309 515 202 737 972 686 422 233 175 113 106 89 41 82 72 187 244 233 268 311 260 184 143 103 38 27 12 15 95 150 244 244 129 3 0 0 0 0
0 0 0 0 0 153 163 257 148 188 55 419 371 871 851 843 635 359 202 125 72 3 5 2 83 90 239 205 129 140 151 71 56 32 12 8 4 0 0 25 156 179 21 0 0 0 0 0 0
0 0 0 0 66 83 48 77 58 50 24 176 538 774 775 441 342 216 126 33 3 3 5 35 57 92 173 191 94 51 25 22 15 2 0 0 0 0 1 0 0 0 0 0 0 0 0 0 0
0 0 0 34 37 28 26 55 89 0 105 53 409 516 296 283 302 140 9 7 0 0 16 4 9 70 143 74 25 6 0 0 0 0 0 9 3 0 0 0 0 0 0 0 0 0 0 0 0
0 10 39 90 52 43 38 18 1 63 307 360 271 147 23 127 60 42 30 9 6 8 4 0 0 112 44 6 0 0 0 0 1 0 4 0 0 0 0 0 0 0 0 0 0 0 0 0 0
8 11 25 49 65 28 0 0 0 197 580 294 187 29 56 101 57 15 4 3 7 0 0 7 90 18 0 0 0 0 0 3 0 0 0 0 0 0 0 0 0 0 0 0 0 0 0 0 0
20 125 51 57 8 7 0 1 23 165 351 263 377 154 87 91 56 22 11 0 4 2 43 22 10 0 0 0 0 0 1 2 2 0 0 0 0 0 0 0 0 0 0 0 0 0 0 0 0
25 1 70 9 0 0 0 1 39 63 242 26 56 193 143 75 6 11 0 0 1 3 27 2 11 0 0 0 0 0 0 0 0 0 0 0 0 0 0 0 0 0 0 0 0 0 0 0 0
0 0 7 22 0 0 0 7 21 16 380 242 125 150 197 95 10 3 3 9 19 16 11 2 11 0 0 0 0 0 0 0 0 0 0 0 0 0 0 0 0 0 0 0 0 0 0 0 0
2 0 0 0 0 0 0 0 1 9 411 421 243 187 188 123 43 101 126 86 18 0 0 0 0 0 0 0 0 0 0 0 0 0 0 0 0 0 0 0 0 0 0 0 0 0 0 0 0
0 0 0 0 0 0 0 0 18 3 131 394 421 278 170 186 165 85 53 27 0 0 0 0 0 0 0 0 0 0 0 0 0 0 0 0 0 0 0 0 0 0 0 0 0 0 0 0 0
0 0 0 0 0 0 0 0 0 19 172 131 361 335 198 129 41 3 37 20 0 0 0 0 0 0 0 0 0 0 0 0 0 0 0 0 0 0 0 0 0 0 0 0 0 0 0 0 0
0 0 0 0 0 0 0 0 0 0 73 41 145 301 249 152 41 0 5 14 0 0 0 3 0 0 0 0 0 0 0 0 0 0 0 0 0 0 0 0 0 0 0 0 0 0 0 0 0
0 0 0 0 0 0 0 0 0 0 21 17 29 147 209 169 35 0 0 3 0 0 0 1 0 0 0 0 0 0 0 0 0 0 0 0 0 0 0 0 0 0 0 0 0 0 0 0 0
0 0 0 0 0 0 0 0 0 0 8 18 0 19 51 125 32 0 0 4 0 0 0 0 0 0 0 0 0 0 0 0 0 0 0 0 0 0 0 0 0 0 0 0 0 0 0 0 0
0 0 0 0 0 0 0 0 0 0 0 1 0 0 0 0 0 0 0 0 0 0 0 0 0 0 0 0 0 0 0 0 0 0 0 0 0 0 0 0 0 0 0 0 0 0 0 0 0
0 0 0 0 0 0 0 0 0 0 0 0 0 0 0 0 0 0 0 3 0 0 0 0 0 0 0 0 0 0 0 0 0 0 0 0 0 0 0 0 0 0 0 0 0 0 0 0 0
0 0 0 0 0 0 0 0 0 0 0 0 0 0 0 0 0 0 0 15 34 4 1 0 3 1 0 0 0 0 0 0 0 0 0 0 0 0 0 0 0 0 0 0 0 0 0 0 0
0 0 0 0 0 0 0 0 0 0 0 0 0 0 0 0 0 38 46 27 27 12 22 6 2 0 0 0 0 0 0 0 0 0 0 0 0 0 0 0 0 0 0 0 0 0 0 0 0
0 0 0 0 0 0 0 0 0 0 0 0 2 0 0 0 0 59 145 104 130 57 49 0 0 0 0 0 0 0 0 0 0 0 0 0 0 0 0 0 0 0 0 0 0 0 0 0 0
0 0 0 0 0 0 0 0 0 0 0 0 0 0 0 0 26 98 155 137 85 18 0 0 0 0 0 0 0 0 0 0 0 0 0 0 0 0 0 0 0 0 0 0 0 0 0 0 0
0 0 0 0 0 0 0 0 0 0 0 0 0 0 0 0 24 96 92 16 0 0 0 0 0 0 0 0 0 0 0 0 0 0 0 0 0 0 0 0 0 0 0 0 0 0 0 0 0

GFSSGP_con_sbcape_069.txt.gz
CAPE
0 0 0 0 0 0 0 0 0 0 0 1118 1206 1053 1040 953 800 813 503 458 1076 1015 733 880 915 992 926 941 937 992 1068 944 598 414 489 336 160 125 111 113 86 54 3 36 212 277 157 330 363
0 0 0 0 0 0 0 0 35 275 412 1130 855 1095 1396 1303 1134 692 495 1031 1190 1132 811 864 882 965 1052 1031 1017 1030 955 722 579 423 328 230 159 161 165 106 35 98 129 142 359 416 380 304 543
0 0 0 0 0 0 0 0 33 116 576 777 974 907 1072 1282 1093 599 786 1323 1434 1175 844 855 882 939 1132 1071 1028 962 865 692 494 400 249 196 185 162 154 76 88 144 80 234 389 326 446 489 506
0 0 0 0 0 0 0 0 621 791 585 586 669 899 1243 1392 1492 1096 1035 1513 1357 1191 957 806 833 989 1126 1183 1103 934 751 524 402 323 252 201 198 134 194 136 93 109 96 103 284 218 318 419 362
0 0 0 0 0 0 0 462 555 572 550 476 265 895 1158 1037 1181 1044 1386 1514 1407 1308 1094 996 672 1000 1287 1353 1158 879 649 531 389 272 225 229 260 201 244 142 118 127 133 31 33 98 163 236 129
0 0 0 0 0 0 313 722 573 467 392 577 848 871 1026 1033 1294 1228 1298 1457 1329 1118 1108 943 694 812 1029 948 914 684 512 462 366 288 252 268 305 257 215 184 167 177 177 152 102 93 93 40 26
0 0 0 0 0 0 58 581 575 416 362 567 528 784 1150 1263 1192 946 831 851 771 701 576 240 534 441 294 595 527 370 358 335 323 318 281 253 255 217 195 177 166 177 173 150 141 54 33 35 7
0 0 0 0 0 0 81 620 551 501 386 339 345 676 942 1310 935 613 448 357 249 376 194 70 59 40 72 153 288 278 249 239 241 227 179 141 153 166 166 168 202 194 154 118 31 0 0 0 0
0 0 0 0 0 0 461 644 445 295 303 715 669 541 993 1137 896 727 548 292 184 196 54 5 4 1 46 105 179 246 261 166 157 161 120 59 72 59 57 149 232 166 31 1 0 0 0 0 0
0 0 0 0 0 50 383 477 335 382 286 592 763 897 1117 956 793 637 493 322 143 39 23 17 7 31 20 191 152 230 200 94 133 103 83 65 97 109 83 143 170 1 0 0 0 0 0 0 0
0 0 0 0 0 212 172 284 232 278 256 365 658 1138 1174 929 652 591 320 19 5 3 2 3 9 58 99 149 112 86 82 92 100 79 84 129 99 157 212 215 0 0 0 0 0 0 0 0 0
0 0 0 0 150 44 75 203 240 26 244 341 666 869 710 559 522 330 5 6 9 17 5 16 51 124 160 110 99 47 56 46 59 60 170 246 228 220 47 0 0 0 0 0 0 0 0 0 0
0 2 56 30 45 37 40 18 49 430 586 434 825 790 517 430 267 2 5 4 0 0 9 11 5 60 92 64 20 16 43 39 73 133 306 320 136 0 0 0 0 0 0 0 0 0 0 0 0
1 34 108 116 111 64 7 10 0 352 368 431 332 215 83 164 91 8 9 12 0 0 0 0 0 45 63 10 0 6 41 53 66 170 266 89 0 0 0 0 0 0 0 0 0 0 0 0 0
7 132 60 101 83 60 15 61 164 458 445 441 271 135 197 142 94 37 7 7 0 0 0 0 1 106 97 17 7 18 63 189 201 208 91 0 0 0 0 0 0 0 0 0 0 0 0 0 0
18 3 114 21 36 7 25 64 158 535 304 380 369 157 83 101 72 63 51 24 11 2 0 0 57 180 110 11 0 41 188 171 175 105 27 0 0 0 0 0 0 0 0 0 0 0 0 0 0
0 15 30 21 10 5 2 25 49 391 233 34 278 204 148 149 65 60 44 19 0 11 36 103 171 102 41 0 15 116 191 97 38 14 0 0 0 0 0 0 0 0 0 0 0 0 0 0 0
0 0 0 3 0 0 3 3 48 184 493 136 169 232 277 168 94 28 15 17 10 14 46 75 92 28 0 0 3 15 18 6 2 0 0 0 0 0 0 0 0 0 0 0 0 0 0 0 0
0 0 0 0 0 0 0 1 77 158 426 491 305 215 235 200 145 72 74 70 30 41 31 71 63 0 0 1 6 4 14 4 2 0 0 0 0 0 0 0 0 0 0 0 0 0 0 0 0
0 0 1 0 0 0 0 0 2 104 312 489 418 357 229 277 235 167 162 208 200 145 109 112 74 3 0 13 0 0 0 0 0 0 0 0 0 0 0 0 0 0 0 0 0 0 0 0 0
0 0 0 0 0 0 0 0 0 4 101 313 372 448 430 333 306 279 214 256 204 219 129 135 88 34 17 2 0 0 0 0 0 0 0 0 0 0 0 0 0 0 0 0 0 0 0 0 0
0 0 0 0 0 0 0 3 0 0 40 170 310 407 591 487 276 241 153 203 247 181 113 141 43 7 0 0 0 0 0 0 0 0 0 0 0 0 0 0 0 0 0 0 0 0 0 0 0
0 0 0 0 0 0 0 0 0 0 0 46 147 249 384 570 474 196 46 89 160 114 29 85 29 12 0 0 0 0 0 0 0 0 0 0 0 0 0 0 0 0 0 0 0 0 0 0 0
0 0 0 0 0 2 0 0 2 0 1 4 13 103 185 300 475 393 99 20 54 24 19 32 26 9 1 0 0 0 0 0 0 0 0 0 0 0 0 0 0 0 0 0 0 0 0 0 0
0 0 0 0 0 2 0 0 5 0 0 0 0 26 60 159 281 348 90 17 37 24 23 29 38 10 3 3 2 2 0 0 0 0 0 0 0 0 0 0 0 0 0 0 0 0 0 0 0
0 0 0 0 0 0 0 0 3 0 0 0 0 0 0 4 39 94 109 59 78 89 53 56 6 44 29 5 4 2 0 0 0 0 0 0 0 0 0 0 0 0 0 0 0 0 0 0 0
0 0 0 0 0 0 0 0 0 0 0 0 0 3 0 0 0 0 1 69 122 143 105 115 54 36 20 15 26 4 0 0 0 0 0 0 0 0 0 0 0 0 0 0 0 0 0 0 0
0 0 1 2 0 0 0 0 0 0 0 0 1 60 9 0 0 0 12 105 210 226 250 231 159 118 4 6 4 1 0 0 0 0 0 0 0 0 0 0 0 0 0 0 0 0 0 0 0
0 0 0 0 0 0 0 0 0 0 0 0 0 0 10 2 0 11 184 197 280 343 369 256 199 39 3 2 2 0 0 0 0 0 0 0 0 0 0 0 0 0 0 0 0 0 0 0 0
0 0 0 9 0 0 0 0 0 0 0 0 0 0 0 28 112 153 324 414 386 400 300 205 25 2 0 0 0 0 0 0 0 0 0 0 0 0 0 0 0 0 0 0 0 0 0 0 0

GFSSGP_con_sbcape_072.txt.gz
CAPE
0 0 0 0 0 0 0 2 0 5 95 37 389 1329 1473 1529 1078 1132 1311 1020 1374 1207 584 972 972 1116 1152 1174 1155 1173 1115 1002 755 472 352 171 148 148 162 133 165 211 122 159 323 556 424 364 380
0 0 0 0 0 11 47 0 53 294 347 1034 1022 1198 1186 1199 1632 1234 1221 1236 1660 1159 623 652 957 1029 1071 1071 1174 1172 1038 843 627 428 206 188 198 218 174 157 241 333 373 388 334 483 465 438 470
0 0 0 0 0 5 34 0 43 728 677 1164 341 845 1246 1547 1408 1325 1261 1516 1648 1172 562 782 984 1003 1122 1191 1173 1003 807 629 504 268 215 252 270 211 181 258 281 393 490 545 592 484 553 510 443
0 0 0 0 4 0 0 0 585 1277 996 1178 1191 457 1437 1429 1752 1200 1296 1823 1582 1247 811 813 900 1057 1185 1212 1081 846 639 465 282 165 238 308 240 217 258 240 255 483 642 393 589 561 509 427 311
0 0 0 0 0 0 0 27 499 1212 1199 1178 919 863 417 1128 1634 1309 1660 1795 1445 1254 1101 1094 845 1004 1156 1265 1032 730 540 396 179 163 245 284 291 282 225 211 244 265 374 302 376 472 385 208 110
0 0 1 9 0 0 0 189 756 1122 1098 1160 1106 711 217 1069 1636 1616 1871 1858 1603 1271 1285 1011 735 893 1078 1023 778 545 432 273 167 188 275 325 281 266 264 268 270 257 218 275 322 346 196 88 64
0 0 0 0 2 62 53 869 1034 1013 920 1122 1134 1205 1536 1623 1674 1812 1790 1383 1136 853 1178 1139 869 798 458 579 466 371 283 210 202 244 276 227 173 173 212 211 244 253 217 199 148 144 88 16 0
0 0 0 0 32 97 228 970 1121 1012 976 1018 981 1031 1353 1533 1464 1484 1471 1022 973 325 397 136 14 27 51 196 235 230 201 170 180 184 138 96 112 163 203 204 279 308 258 34 3 27 0 0 0
0 7 2 1 58 19 405 791 992 910 993 999 1163 1120 1521 1467 1148 1316 1003 607 408 217 76 4 4 1 50 112 203 202 204 164 149 90 64 17 13 12 22 174 238 194 58 0 0 0 0 0 0
0 10 1 0 0 0 188 833 906 880 846 958 1056 1207 1616 1308 1018 628 588 438 320 19 6 6 2 0 0 60 130 262 186 68 61 40 24 10 37 38 46 92 31 0 0 0 0 0 0 0 0
4 13 2 0 0 2 231 647 646 576 475 564 925 1309 1360 1435 1039 884 498 246 180 13 10 8 8 4 1 0 1 203 131 184 119 80 42 96 140 122 182 10 0 0 0 0 0 0 0 0 0
14 5 0 0 108 402 554 546 494 513 737 759 673 1150 1134 956 744 422 105 7 4 15 19 18 4 5 0 0 11 134 135 158 143 189 176 237 245 320 399 198 7 0 0 0 0 0 0 0 0
6 21 216 50 317 514 259 330 431 531 838 833 734 1050 732 514 316 27 8 5 4 3 3 0 3 22 73 144 140 142 166 164 191 290 319 389 481 526 348 80 0 0 0 0 0 0 0 0 0
77 213 453 523 557 371 200 265 327 734 560 565 585 507 533 536 124 7 5 9 3 0 7 8 1 2 6 21 171 158 146 169 253 392 589 682 591 383 6 0 0 0 0 0 0 0 0 0 0
150 278 361 427 449 281 204 418 414 611 622 619 505 206 144 321 31 2 6 9 8 14 10 42 84 125 233 177 148 118 157 199 312 511 620 305 153 58 33 8 0 0 0 0 0 0 0 0 0
162 194 181 207 196 145 177 171 467 618 644 456 446 419 158 202 35 12 0 62 37 86 107 182 65 273 370 196 93 68 193 378 529 630 697 352 197 74 19 0 0 0 0 0 0 0 0 0 0
99 91 60 76 70 106 106 88 491 511 138 139 278 166 204 220 88 200 177 28 123 31 19 29 111 390 440 346 96 156 356 593 645 604 681 490 170 9 0 0 0 0 0 0 0 0 0 0 0
67 47 34 54 53 28 49 65 308 670 351 162 102 193 411 285 237 141 184 272 197 1 9 23 267 437 515 393 286 382 516 572 497 580 548 217 39 0 0 0 0 0 0 0 0 0 0 0 0
3 34 56 53 5 6 29 58 129 692 571 289 212 208 523 297 245 162 204 154 137 98 108 284 485 677 636 353 137 230 422 389 446 403 261 22 0 0 0 0 0 0 0 0 0 0 0 0 0
8 22 38 24 0 0 39 52 67 542 700 655 465 336 250 479 182 199 187 224 192 186 240 348 469 621 592 200 142 378 564 307 421 362 5 0 0 0 0 0 0 0 0 0 0 0 0 0 0
5 11 8 4 2 0 10 62 71 124 519 629 622 589 510 308 384 226 220 229 229 200 240 293 456 541 592 452 214 398 468 248 266 161 0 0 0 0 0 0 0 0 0 0 0 0 0 0 0
17 1 0 0 6 84 1 54 49 92 212 390 677 837 754 696 364 424 276 310 389 388 299 290 375 548 668 618 378 264 284 350 234 26 0 0 0 0 0 0 0 0 0 0 0 0 0 0 0
7 0 1 0 19 20 27 19 76 41 94 128 338 699 950 979 825 426 460 420 380 446 544 676 632 742 756 697 546 479 456 386 7 0 0 0 0 0 0 0 0 0 0 0 0 0 0 0 0
0 3 5 22 58 56 30 41 66 64 49 90 113 186 706 994 1101 966 616 447 476 840 795 689 613 595 563 499 553 541 509 107 2 0 0 0 0 0 0 0 0 0 0 0 0 0 0 0 0
0 42 146 104 84 90 4 35 79 18 33 35 44 59 179 566 997 1186 1050 858 529 628 776 702 689 619 635 536 497 379 325 110 2 0 0 2 0 0 0 0 0 0 0 0 0 0 0 0 0
0 65 100 16 37 45 0 1 23 29 19 6 57 96 59 188 441 950 1148 1123 735 621 669 710 752 719 647 590 458 352 327 280 57 1 0 0 0 0 0 0 0 0 0 0 0 0 0 0 0
32 42 13 44 2 29 4 0 0 0 0 34 134 205 344 112 223 472 837 1140 973 790 753 736 664 704 598 455 490 447 299 156 46 4 4 6 4 2 1 1 0 0 0 0 0 0 0 0 0
26 16 39 51 2 10 12 7 9 0 0 7 0 4 357 114 121 268 438 779 934 1012 915 805 745 702 658 587 415 135 261 228 1 12 8 7 8 0 3 1 0 0 0 0 0 0 0 0 0
14 37 17 37 16 23 1 43 0 0 0 0 1 75 91 394 240 185 294 445 696 913 946 871 820 758 865 650 289 142 230 33 5 2 3 4 1 0 0 0 0 1 0 0 0 0 0 0 0
27 45 88 38 37 22 15 0 0 2 12 5 0 5 71 144 555 491 524 590 658 899 943 887 917 924 835 639 335 222 5 0 0 1 0 0 0 0 0 0 0 0 0 0 0 0 0 0 0

GFSSGP_con_sbcape_075.txt.gz
CAPE
0 0 0 0 0 2 0 41 39 5 2 140 34 0 411 605 745 711 1631 1608 1738 1001 980 1436 1429 1516 1489 1448 1395 1329 1225 1139 856 494 396 257 221 170 230 249 299 604 797 684 587 407 405 319 250
0 0 0 0 1 35 25 7 6 25 217 419 143 20 137 384 0 480 1724 1628 1763 1035 1005 1424 1288 1437 1489 1390 1341 1248 1174 984 668 434 324 274 259 264 338 387 404 485 595 742 639 532 441 317 306
0 0 0 43 40 71 31 1 14 193 547 798 443 273 441 1231 1168 1548 1694 1893 1829 1086 924 1435 1229 1274 1359 1322 1245 1145 966 681 457 372 406 407 306 303 474 516 681 924 644 638 693 580 455 355 388
0 0 0 0 19 21 0 21 85 379 436 511 710 117 380 1525 1744 1879 1548 1951 1874 1005 835 931 984 1100 1298 1324 1164 915 745 451 333 373 461 384 322 482 412 556 866 897 984 933 780 617 372 354 212
0 0 10 54 34 19 18 130 319 384 276 590 912 542 378 619 78 1401 1489 1649 1555 972 1035 1153 897 1109 1201 1226 995 718 512 289 314 415 324 331 420 354 367 354 597 657 964 1117 723 418 246 205 167
0 0 27 11 19 5 170 10 25 643 512 906 876 360 11 50 0 484 1770 1712 1584 1119 1204 896 961 1080 1063 947 700 487 312 297 350 376 370 381 315 322 320 296 319 464 633 754 522 329 186 153 67
0 46 48 26 20 137 244 624 680 651 352 145 934 826 1071 750 10 772 1532 1470 1133 589 263 746 994 888 655 471 368 275 204 249 324 330 277 240 236 259 289 258 293 324 373 403 279 162 109 27 0
0 6 27 34 22 70 269 633 878 1033 842 944 1016 610 871 1470 1598 1243 1328 1000 655 221 298 511 283 508 361 184 116 132 153 193 211 195 165 172 184 224 255 282 328 292 266 242 89 34 0 0 0
0 1 10 26 52 12 151 444 1176 1017 821 809 1071 1231 1748 1752 1719 1447 961 501 182 50 38 65 2 0 3 49 208 215 237 197 144 128 97 34 55 34 123 283 276 141 88 87 3 0 0 0 0
0 56 25 4 10 11 2 273 572 673 732 649 995 1351 1822 1652 1622 823 718 413 144 64 3 5 8 0 0 47 143 213 161 135 66 56 88 16 67 139 110 148 98 17 0 0 0 0 0 0 0
20 19 5 3 14 17 24 350 575 546 324 587 543 1243 1616 1609 1378 806 409 188 22 9 6 5 14 8 1 97 93 145 138 114 107 162 126 163 195 225 211 73 18 0 0 0 0 0 0 0 0
0 18 13 22 15 208 337 379 314 320 519 640 569 999 1524 1425 955 447 206 82 8 12 10 8 9 6 2 8 0 0 118 125 129 171 374 482 293 403 306 122 57 7 0 0 0 0 0 0 0
2 8 23 127 57 412 251 225 229 268 665 1068 936 934 1125 856 168 131 36 9 11 13 19 19 20 18 0 0 0 2 52 131 224 306 401 407 411 617 537 483 88 29 1 0 0 0 0 0 0
46 21 89 189 298 349 178 222 198 866 783 732 783 762 528 286 28 6 5 5 6 4 2 1 16 34 38 80 81 113 190 227 291 335 506 728 826 625 614 229 57 5 12 10 1 0 0 0 0
74 42 48 124 191 229 178 77 7 556 560 771 563 389 200 313 27 4 5 5 1 1 2 0 0 0 0 1 0 2 146 233 267 549 885 599 613 492 412 194 165 38 2 0 0 0 0 0 0
64 67 67 28 141 130 80 41 21 639 549 403 437 296 221 149 19 10 7 8 9 7 3 1 0 1 0 28 58 57 160 301 484 511 749 640 549 457 452 273 106 0 0 0 0 0 0 0 0
72 44 62 104 26 67 58 56 300 528 413 374 405 42 104 138 4 5 6 1 8 39 9 17 34 14 99 188 200 190 348 633 591 669 618 565 490 430 328 197 5 0 0 0 0 0 0 0 0
77 83 60 21 9 54 35 40 111 513 339 266 334 144 0 6 101 67 51 18 94 92 62 75 137 194 270 408 356 319 364 576 677 788 711 596 512 361 268 98 0 0 0 0 0 0 0 0 0
29 24 71 67 35 14 32 46 29 521 522 418 111 437 78 8 109 144 85 68 54 71 31 26 147 213 457 491 305 199 232 485 655 611 649 616 431 310 231 45 3 0 0 0 0 0 0 0 0
9 26 45 67 35 0 17 48 19 300 462 567 444 201 360 187 143 128 163 165 72 21 1 19 200 407 526 398 169 75 224 568 713 665 516 329 7 3 175 37 0 0 0 0 0 0 0 0 0
22 36 45 54 22 1 0 30 54 142 451 561 609 345 376 304 216 160 230 252 198 72 76 122 313 525 716 383 73 132 550 417 477 497 366 182 38 82 57 0 0 0 0 0 0 0 0 4 2
36 18 1 11 10 10 56 13 82 60 195 480 584 624 376 411 245 196 260 275 269 270 308 366 505 640 742 956 238 313 583 521 508 528 232 0 0 0 0 0 0 0 0 0 0 0 0 0 2
30 0 0 21 78 109 91 2 31 15 50 137 346 668 651 473 459 302 283 266 328 392 385 426 522 591 740 827 781 495 479 449 554 449 94 0 0 0 0 0 0 0 0 0 1 0 0 0 0
7 0 15 72 124 151 43 99 32 22 3 12 74 330 601 736 569 429 432 319 331 1025 1010 987 530 575 796 1129 1065 875 667 556 478 204 2 1 0 0 0 0 0 0 0 0 0 0 0 0 0
0 54 166 140 188 165 84 48 42 63 8 4 10 74 259 590 880 727 432 470 434 643 1023 1111 842 822 883 1192 1245 1272 1082 887 479 143 16 3 1 0 6 1 9 6 0 0 0 0 0 0 0
7 74 168 168 115 177 33 32 39 24 2 0 1 23 55 230 669 988 990 665 531 944 1183 1012 1000 935 849 925 1060 1010 997 783 404 202 73 9 0 13 15 8 16 5 0 0 0 0 0 0 0
58 61 94 145 93 143 144 123 90 25 0 0 27 78 157 297 251 527 899 1245 1045 985 1113 1379 1152 972 916 1030 1288 1153 798 677 635 514 258 12 0 10 7 21 10 3 0 0 0 0 0 0 0
13 54 61 73 50 123 136 106 120 14 0 16 20 11 243 278 296 364 545 986 1315 1305 992 1338 1143 984 1003 1029 1116 867 661 646 603 485 150 1 0 20 13 10 1 0 0 0 0 0 0 0 3
1 45 63 91 69 127 162 132 24 1 14 0 5 0 3 153 325 374 524 731 1041 1409 1288 1238 1110 912 911 1093 1073 690 410 484 284 139 1 0 0 0 0 0 0 0 0 0 0 0 0 1 12
44 24 54 84 57 75 75 129 63 17 42 17 4 0 2 38 212 391 466 528 760 1191 1352 1435 1333 1052 947 1065 1082 436 309 10 0 0 0 0 0 0 0 0 2 5 0 0 0 5 0 3 6

GFSSGP_con_sbcape_078.txt.gz
CAPE
0 0 0 0 0 0 0 0 8 2 4 13 27 5 4 264 565 654 0 0 124 1094 1471 1697 1490 1500 1433 1368 1321 1302 1308 1222 984 760 569 460 442 437 488 646 875 983 976 516 408 242 102 37 22
0 0 0 0 0 0 0 0 1 8 226 240 90 77 29 239 51 51 8 0 3 1053 1598 1814 1455 1445 1500 1361 1345 1375 1360 1112 804 605 492 403 424 455 560 761 959 1080 1019 452 421 218 117 61 149
0 0 0 0 0 0 0 0 0 1 250 137 20 42 40 292 436 506 616 284 89 829 1460 1768 1284 1247 1363 1371 1350 1333 1142 804 579 490 498 444 520 591 708 721 772 1079 1133 579 465 258 197 192 138
0 0 0 0 0 0 0 0 0 43 194 21 74 122 1036 799 100 1 5 1227 982 840 1439 1011 1008 1191 1159 1176 1287 1130 801 494 424 443 479 522 667 692 919 1028 918 1021 1166 687 474 263 185 153 31
0 0 0 3 0 1 30 25 19 0 104 10 0 3 607 750 399 420 1344 1611 1027 750 1170 1041 836 1023 1099 1330 1154 827 563 471 489 441 415 593 654 803 879 788 1019 1105 1191 804 347 175 124 102 39
0 0 0 16 23 8 31 38 312 161 98 1 0 134 136 353 100 253 1633 1611 1303 833 1067 956 856 848 976 1016 817 523 472 498 436 416 484 494 440 452 563 647 897 1055 878 612 333 210 168 104 44
0 0 2 10 13 42 1 35 211 257 2 0 0 174 386 560 345 1214 1498 994 219 26 692 888 691 650 537 468 334 261 348 376 391 364 291 243 183 214 310 438 667 707 530 365 241 180 117 50 0
0 0 0 0 13 9 18 114 106 581 464 163 7 145 0 393 1423 1019 577 139 3 2 0 17 281 343 224 160 55 102 181 203 197 159 132 123 126 172 226 266 380 424 366 248 105 66 22 0 0
0 0 0 6 12 0 0 9 17 505 434 141 205 151 704 1566 1241 687 345 139 6 5 30 67 4 1 21 66 137 133 130 112 94 100 79 24 22 80 136 189 256 311 262 156 29 2 0 0 0
0 0 0 3 0 0 0 0 15 243 127 16 0 484 1396 1394 988 630 288 51 129 73 27 2 1 0 6 26 36 55 91 65 53 29 37 16 97 143 158 127 152 183 124 47 13 0 0 0 0
0 0 1 0 0 0 0 99 165 182 157 2 5 649 1179 1233 852 533 290 184 14 3 1 1 1 0 0 0 0 0 3 12 18 29 91 83 129 164 99 28 12 1 2 0 0 0 0 0 0
1 0 0 1 6 0 0 50 157 235 640 509 817 1268 1119 681 597 185 49 2 3 3 3 2 1 0 0 0 0 0 8 30 3 86 147 164 190 188 122 93 10 1 0 0 0 0 0 0 0
3 0 0 2 7 0 60 16 159 189 455 708 809 868 797 341 117 7 13 8 6 7 9 15 24 23 1 0 1 35 56 54 79 140 259 270 250 207 195 155 49 3 0 0 0 0 0 0 0
0 0 1 1 28 34 75 108 184 0 71 558 639 600 276 52 5 6 3 2 5 7 4 6 7 11 0 10 24 51 27 109 185 251 291 339 275 335 355 267 158 0 0 0 0 0 0 0 0
1 0 16 20 16 23 17 55 0 0 0 243 410 316 220 20 4 3 6 3 3 3 3 4 3 6 0 3 0 3 81 143 149 252 266 298 397 372 366 176 75 0 30 4 0 0 0 0 0
0 0 26 33 1 28 44 5 0 0 39 403 247 207 222 39 4 5 2 2 2 2 3 2 5 0 0 0 0 0 0 120 192 197 273 206 282 347 300 195 91 45 0 0 0 0 0 0 0
0 6 23 29 52 19 21 31 0 0 40 347 22 166 133 19 8 7 6 5 2 2 2 0 0 0 0 0 0 0 13 159 135 210 207 227 364 417 346 244 118 0 0 0 0 0 0 0 0
6 27 51 19 39 33 32 18 135 206 125 323 0 55 8 0 11 5 2 0 0 0 0 1 0 0 0 0 0 15 134 126 177 229 295 337 419 447 219 156 0 0 0 0 0 0 0 0 0
5 7 4 43 12 8 20 0 0 241 189 247 0 0 0 0 19 5 10 6 10 0 0 0 0 0 0 15 9 75 73 199 295 222 215 361 398 403 332 58 0 0 0 0 0 0 0 0 0
0 0 0 22 28 1 0 0 18 160 215 305 278 1 1 82 40 47 79 58 18 0 0 1 9 2 0 51 98 24 85 166 255 259 359 363 362 345 247 64 2 0 0 0 0 0 0 0 0
0 0 9 29 24 34 10 0 2 5 80 428 233 310 28 69 116 48 40 81 50 22 15 13 36 52 134 161 231 29 148 226 321 327 368 297 33 13 28 120 1 0 0 0 0 0 0 0 0
4 2 18 0 10 26 3 2 2 11 67 281 560 257 293 115 155 138 95 90 22 18 20 14 23 223 366 368 56 6 42 172 263 319 300 236 72 7 73 53 0 0 0 0 0 0 0 0 0
0 8 0 0 7 21 17 48 6 29 37 166 430 592 306 311 216 120 169 259 182 31 12 31 104 292 394 513 497 110 326 260 343 365 280 10 0 0 0 0 0 0 0 0 0 0 0 0 0
0 2 1 0 8 62 67 55 8 3 33 62 184 444 513 360 267 202 212 232 217 251 160 167 359 479 505 645 678 525 427 340 345 301 129 5 0 0 0 0 0 0 0 0 0 0 0 0 0
0 0 37 45 91 168 27 61 156 24 61 11 19 146 528 543 431 208 226 235 291 295 347 469 432 374 622 679 778 633 605 415 410 302 29 0 0 0 0 0 0 0 0 0 0 0 0 0 0
0 0 94 33 0 80 59 75 18 31 1 0 0 1 239 477 689 525 267 248 281 362 524 476 480 434 463 946 949 797 966 647 553 303 20 0 0 0 0 0 0 0 0 0 0 0 0 0 0
12 7 17 88 24 161 109 8 176 50 0 0 0 1 46 140 461 805 679 453 278 354 598 731 776 700 712 1095 1111 970 864 987 579 183 83 47 0 0 0 0 0 0 0 0 0 0 0 0 0
1 6 75 69 52 27 6 67 15 6 2 2 4 29 195 401 362 346 755 896 468 458 575 821 863 838 920 910 998 1042 727 932 626 323 189 88 0 0 0 0 0 0 0 0 0 0 0 0 0
0 4 71 65 54 92 106 87 1 3 0 12 17 30 4 24 348 366 438 616 1176 750 723 1000 1095 1120 1051 949 1014 1012 975 633 494 272 37 0 0 0 0 0 0 0 0 0 0 0 0 0 2
6 9 37 91 35 107 134 118 49 9 10 16 9 7 3 18 75 231 395 549 816 1335 982 1047 1135 1132 1027 938 1064 890 521 369 181 0 0 0 0 0 0 0 0 0 1 0 0 0 0 0 2

GFSSGP_con_sbcape_081.txt.gz
CAPE
0 0 0 0 0 0 0 0 0 0 126 95 8 45 299 555 695 538 123 150 399 25 1 1648 1637 1626 1532 1457 1443 1439 1381 1314 1134 903 758 719 750 883 1027 1066 924 897 743 86 0 0 0 0 10
0 0 0 0 0 0 0 0 0 24 0 12 13 97 159 496 268 194 208 194 373 361 18 681 1513 1593 1651 1506 1503 1444 1417 1218 963 796 737 676 781 948 1180 1074 898 819 700 84 0 0 0 0 58
0 0 0 0 0 0 0 1 0 76 0 0 0 9 663 529 491 749 303 220 112 29 51 0 1080 1208 1576 1537 1440 1311 1156 920 776 645 684 692 857 1070 1168 1104 895 744 679 89 0 0 0 10 6
0 0 0 0 0 0 5 181 59 160 38 0 0 46 72 191 403 109 1 77 16 0 0 7 705 901 1474 1540 1420 1193 924 742 621 599 755 827 879 954 1014 1072 997 948 750 137 0 0 0 0 0
0 0 0 0 0 0 36 33 109 41 25 0 0 0 39 174 216 147 327 390 45 63 36 129 554 832 1392 1555 1290 929 758 681 636 701 775 888 1096 1102 977 1005 1047 907 654 176 10 0 21 0 0
0 0 0 0 0 6 29 6 167 187 0 0 1 0 12 52 75 836 381 122 9 0 289 358 350 772 1093 1104 792 638 629 597 585 702 810 1100 1028 974 1049 1021 997 799 518 247 142 83 44 0 0
0 0 0 0 0 2 28 34 36 33 19 1 0 0 4 18 352 311 124 30 1 1 1 2 569 518 582 457 414 421 450 446 496 449 467 510 519 687 995 1000 850 603 308 198 142 83 4 0 0
0 0 0 0 0 2 29 4 3 131 15 0 0 77 24 43 423 262 29 0 0 0 13 0 18 279 204 176 234 223 256 260 192 102 69 97 181 389 615 656 569 345 246 196 128 27 2 0 0
0 0 0 0 0 0 6 18 12 85 86 1 8 0 17 705 260 161 80 1 1 0 0 0 10 53 94 102 159 106 104 21 11 7 5 2 16 51 131 293 308 288 216 171 96 20 0 0 0
0 0 0 0 0 0 0 87 3 106 83 0 0 19 55 671 447 199 8 2 1 4 4 47 88 52 51 51 12 4 0 0 0 0 0 2 18 58 146 189 212 213 161 98 55 0 0 0 0
0 0 0 0 0 0 0 35 295 283 307 111 5 307 910 707 380 261 63 29 19 11 8 2 6 38 21 29 0 0 0 0 0 0 7 44 62 52 30 44 39 51 50 3 2 0 0 0 0
0 0 0 0 0 8 0 26 70 390 387 372 847 618 620 544 151 107 97 7 3 2 1 1 0 0 0 0 0 0 0 0 0 0 28 64 56 41 15 4 2 2 0 0 0 0 0 0 0
0 0 0 0 5 27 6 12 76 0 112 456 692 534 324 167 85 14 2 4 5 3 1 1 0 0 0 0 0 0 0 0 1 27 115 92 73 73 65 8 7 0 0 0 0 0 0 0 0
0 0 0 0 0 1 28 16 0 0 9 566 731 319 196 41 4 3 2 3 6 3 2 1 2 0 0 0 0 0 0 4 33 84 120 119 143 126 121 30 19 1 0 0 0 0 0 0 0
0 0 0 0 0 0 0 5 0 0 0 385 465 232 39 3 3 2 2 2 1 3 5 2 1 0 0 0 0 4 46 83 77 87 96 126 213 208 190 82 18 0 0 0 0 0 0 0 0
0 0 0 0 2 0 0 0 11 0 39 270 305 214 15 5 10 4 4 2 3 2 3 2 5 0 0 0 0 0 8 11 28 37 43 56 234 190 106 43 0 0 0 0 0 0 0 0 0
0 0 0 0 0 1 0 0 0 0 0 8 69 84 2 10 6 5 4 3 3 1 1 1 0 0 0 0 0 3 0 0 7 22 98 30 48 184 85 19 0 0 0 0 0 0 0 0 0
0 0 6 4 0 0 5 0 0 0 1 11 39 1 0 4 6 8 3 3 1 0 0 0 0 0 0 0 0 0 0 0 21 26 91 33 32 106 135 34 0 0 0 0 0 0 0 0 0
0 0 0 0 0 0 0 0 12 0 0 0 0 0 1 0 9 0 0 0 1 1 1 0 0 0 0 0 0 0 0 23 7 32 64 64 80 99 83 0 0 0 0 0 0 0 0 0 0
0 0 0 0 0 0 0 0 0 7 0 0 0 0 0 2 1 2 0 0 0 0 0 0 0 0 0 0 0 0 2 14 33 32 23 31 88 103 30 0 0 0 0 0 0 0 0 0 0
0 0 0 0 0 0 0 0 0 10 0 0 0 0 0 0 0 0 1 0 0 0 0 0 0 0 0 0 0 0 0 9 11 3 6 79 117 30 51 0 0 0 0 0 0 0 0 0 0
0 0 0 2 0 0 0 0 0 0 39 0 0 0 38 5 0 0 0 0 0 0 0 0 0 0 0 0 0 0 0 0 0 29 30 60 1 3 0 2 0 0 0 0 0 0 0 0 0
0 0 7 0 0 0 0 0 0 0 0 80 47 0 2 21 0 0 0 0 0 0 0 0 0 0 0 0 0 0 0 0 19 58 67 29 0 0 0 0 0 0 0 0 0 0 0 0 0
0 0 1 0 0 0 0 0 0 0 0 0 78 16 0 27 3 0 0 0 0 0 0 0 0 0 1 7 34 13 0 8 45 72 42 0 0 0 0 0 0 0 0 0 0 0 0 0 0
0 0 0 0 0 0 7 7 0 0 0 0 215 30 27 0 27 0 0 0 0 0 0 0 0 0 53 74 112 118 10 1 49 63 42 0 0 0 0 0 0 0 0 0 0 0 0 0 0
0 0 0 0 0 1 15 17 7 0 0 0 0 106 21 38 27 3 5 11 6 0 0 0 0 0 76 194 199 205 33 39 44 99 57 1 0 0 0 0 0 0 0 0 0 0 0 0 0
0 0 0 18 4 4 9 1 0 0 0 0 0 0 62 62 18 20 7 40 90 65 7 0 0 2 71 165 309 294 202 84 98 70 0 0 0 0 0 0 0 0 0 0 0 0 0 0 0
0 0 16 14 29 10 18 4 9 0 0 0 0 2 28 4 63 26 7 26 63 70 77 114 97 192 164 115 366 426 369 243 56 8 0 0 0 0 0 0 0 0 0 0 0 0 0 0 0
0 0 5 7 5 4 0 0 0 0 0 0 0 0 0 124 107 5 61 17 21 76 91 155 141 171 229 177 597 665 493 233 58 22 4 0 0 0 0 0 0 0 0 0 0 0 0 0 0
0 0 0 1 13 22 1 1 0 0 0 0 0 0 0 0 0 0 33 2 57 47 67 183 292 278 367 341 388 700 461 248 119 45 6 0 0 0 0 0 0 0 0 0 0 0 0 0 0

GFSSGP_con_sbcape_084.txt.gz
CAPE
0 0 0 0 0 0 0 0 0 1 24 11 0 125 316 317 688 512 189 233 512 790 1846 1852 1663 1613 1664 1713 1593 1555 1506 1334 1214 1118 1157 1223 1213 1237 1121 992 669 338 97 42 0 0 0 0 13
0 0 0 0 0 0 0 0 3 5 7 8 29 172 463 417 363 262 279 257 402 476 1327 1619 1654 1716 1701 1683 1590 1529 1452 1237 1080 1050 1105 1215 1372 1322 1287 1087 596 360 178 154 0 0 0 0 18
0 0 0 0 0 0 0 0 0 14 0 1 0 9 485 468 453 561 392 322 223 376 303 1249 1323 1475 1403 1704 1599 1414 1190 996 856 855 1076 1235 1453 1382 1331 973 565 389 191 41 0 0 0 4 12
0 0 0 0 0 0 0 0 8 84 19 0 0 1 5 25 564 329 402 237 201 142 156 43 1039 714 1134 1733 1596 1282 976 730 676 764 1035 1317 1446 1424 1172 940 654 456 222 45 0 0 0 15 0
0 0 0 0 0 0 0 0 11 46 34 0 0 0 0 89 110 633 140 266 209 266 114 57 328 1111 1361 1589 1477 1006 717 624 658 779 992 1318 1553 1459 1227 972 748 396 209 31 0 0 7 8 0
0 0 0 0 0 0 0 0 133 71 0 0 0 2 40 128 669 357 320 167 189 72 246 161 92 468 829 1261 993 633 525 563 615 737 930 1180 1339 1392 1285 1061 730 403 200 95 54 1 0 0 0
0 0 0 0 0 0 0 0 80 47 1 0 0 8 1 529 326 144 51 11 13 1 1 0 0 195 290 706 472 339 412 492 522 662 860 923 955 1134 1125 929 699 337 106 82 66 4 0 0 0
0 0 0 0 0 0 0 5 22 115 2 0 0 93 0 14 421 47 21 2 7 1 4 0 0 0 185 291 191 120 360 386 506 496 430 568 824 954 796 606 382 154 121 138 64 8 2 0 0
0 0 0 0 0 0 0 1 37 25 7 8 47 0 0 459 350 239 59 0 0 1 0 0 27 63 44 130 147 151 172 165 129 98 70 305 627 666 404 233 187 166 154 109 60 18 0 0 0
0 0 0 0 0 0 0 11 10 111 30 3 21 0 0 77 160 109 56 1 1 0 0 4 30 32 41 108 77 81 10 0 0 0 0 0 46 215 223 151 172 176 112 70 55 10 0 0 0
0 0 0 0 0 0 0 42 183 178 245 301 222 218 55 629 333 149 49 1 3 2 2 40 34 11 6 58 61 0 0 0 0 0 0 0 13 46 67 118 73 44 27 4 1 0 0 0 0
0 0 0 0 0 0 0 8 156 191 285 679 625 546 634 267 201 145 89 8 7 9 6 1 2 19 39 4 0 0 0 0 0 0 0 0 0 0 0 16 7 0 0 0 0 0 0 0 0
0 0 0 0 0 0 0 0 5 168 73 663 466 481 321 66 12 7 6 3 2 1 1 1 0 0 0 0 0 0 0 0 2 0 0 0 0 1 2 0 0 0 0 0 0 0 0 0 0
0 0 0 0 0 0 0 0 0 0 169 572 333 165 178 129 16 3 3 3 2 2 1 0 0 0 0 0 0 0 0 0 0 1 0 0 2 7 0 0 0 0 0 0 0 0 0 0 0
0 0 0 0 0 0 0 0 0 0 15 615 307 92 6 0 5 14 6 3 2 3 2 1 0 0 0 0 0 0 0 0 13 10 14 18 23 29 1 0 0 0 0 0 0 0 0 0 0
0 0 0 0 0 0 0 0 0 0 24 284 158 52 0 13 5 3 4 2 1 3 4 0 1 0 0 0 0 0 0 0 9 35 49 64 65 75 11 7 6 0 0 0 0 0 0 0 0
0 0 0 0 0 0 0 0 0 0 5 99 135 22 0 2 2 4 5 3 2 1 2 3 1 0 0 0 0 0 0 0 0 16 35 27 92 81 23 11 0 0 0 0 0 0 0 0 0
0 0 0 0 0 0 0 0 0 0 0 29 31 9 0 1 2 4 4 5 4 2 1 2 3 0 0 0 0 0 0 0 0 0 21 27 31 62 15 3 0 0 0 0 0 0 0 0 0
0 0 0 0 0 5 0 0 0 0 3 19 1 1 0 2 8 3 6 5 5 3 3 1 0 0 0 0 0 0 0 0 0 5 4 24 0 51 46 8 0 0 0 0 0 0 0 0 0
0 0 0 0 0 0 0 0 0 0 0 7 0 0 0 0 4 4 0 1 1 1 1 1 0 0 0 0 0 0 0 0 0 4 6 1 0 14 34 2 0 0 0 0 0 0 0 0 0
0 0 0 0 0 0 0 0 0 0 0 0 0 0 0 0 0 1 0 0 0 0 0 0 0 0 0 0 0 0 0 1 12 8 0 0 0 4 39 0 0 0 0 0 0 0 0 0 0
0 0 0 0 0 0 0 0 0 0 0 0 0 0 0 1 0 0 0 0 0 0 0 0 0 0 0 0 0 0 0 0 0 0 0 0 19 30 41 0 0 0 0 0 0 0 0 0 0
0 0 0 0 0 0 0 0 0 0 0 0 0 0 0 0 0 0 0 0 0 0 0 0 0 0 0 0 0 0 0 0 0 0 0 0 0 0 0 0 0 0 0 0 0 0 0 0 0
0 0 0 0 0 0 0 0 0 0 0 0 0 0 0 0 0 0 0 0 0 0 0 0 0 0 0 0 0 0 0 0 0 0 0 0 0 0 0 0 0 0 0 0 0 0 0 0 0
0 0 0 0 0 0 0 0 2 0 0 0 0 0 0 0 0 0 0 0 0 0 0 0 0 0 0 0 0 0 0 0 0 0 7 0 0 0 0 0 0 0 0 0 0 0 0 0 0
0 0 0 0 0 0 0 0 0 0 0 0 27 7 0 0 0 0 0 0 0 0 0 0 0 0 0 0 0 0 0 0 0 0 7 0 0 0 0 0 0 0 0 0 0 0 0 0 0
0 0 0 3 0 0 0 0 0 0 0 0 0 3 0 0 0 0 0 0 0 0 0 0 0 0 0 0 2 21 30 5 0 0 13 1 0 0 0 0 0 0 0 0 0 0 0 0 0
0 0 0 1 6 0 0 0 0 0 0 0 0 14 0 0 0 1 0 0 0 0 0 0 0 0 0 0 27 64 80 15 2 0 5 7 0 0 0 0 0 0 0 0 0 0 0 0 0
0 1 6 2 0 0 0 0 0 0 0 0 0 0 0 14 4 0 0 0 0 0 0 0 0 0 0 0 1 71 130 95 7 0 0 0 0 0 0 0 0 0 0 0 0 0 0 0 0
0 0 0 0 0 0 0 0 0 0 0 0 0 0 0 0 4 9 2 0 0 0 0 0 0 0 0 0 0 71 132 132 73 9 0 0 0 0 1 0 0 0 0 0 0 0 0 0 0

GFSSGP_con_sbcape_087.txt.gz
CAPE
0 0 0 0 0 0 0 0 0 0 2 0 0 3 114 266 502 219 175 399 783 1546 1661 1721 1672 1851 1852 1766 1526 1617 1738 1798 1635 1422 1370 1306 1249 1015 681 402 146 315 309 11 22 26 8 5 15
0 0 0 0 0 0 0 0 0 0 0 0 0 1 430 322 335 353 220 323 727 841 1775 1642 1641 1840 1878 1693 1565 1593 1739 1700 1619 1515 1413 1380 1246 1025 691 336 204 434 471 151 56 75 119 72 10
0 0 0 0 0 0 0 0 0 0 0 0 0 8 306 285 703 850 369 406 593 560 689 1751 1501 1669 1784 1689 1662 1545 1496 1426 1485 1399 1467 1402 1352 1112 756 368 297 545 581 183 24 1 0 0 0
0 0 0 0 0 0 0 0 0 0 0 0 0 0 0 34 656 411 234 294 402 412 343 1350 1255 990 947 1073 1321 1570 1313 1222 1283 1302 1497 1497 1493 1191 768 423 327 552 431 12 0 0 0 0 0
0 0 0 0 0 0 0 0 0 0 0 0 0 1 1 196 202 820 266 264 205 219 167 407 848 877 875 1060 1233 1115 1225 1098 1166 1363 1426 1481 1401 1045 674 432 304 269 199 34 0 0 22 44 3
0 0 0 0 0 0 0 0 6 11 0 0 3 16 70 240 718 720 588 185 165 299 109 155 495 775 593 615 993 899 732 912 994 1198 1284 1346 1121 966 734 475 301 169 87 0 0 0 5 15 7
0 0 0 0 0 0 0 0 9 20 15 18 0 46 55 684 430 312 88 33 13 20 89 16 0 371 630 623 557 443 451 721 862 1155 1261 1034 928 806 684 470 275 92 4 0 0 0 0 9 12
0 0 0 0 0 0 0 0 0 43 64 0 0 180 0 75 306 93 54 47 41 13 1 0 0 16 275 393 348 242 220 609 710 916 894 842 839 657 506 253 69 0 0 0 0 0 14 31 11
0 0 0 0 0 0 0 0 17 18 10 0 78 5 115 662 187 95 5 0 0 1 1 0 0 0 131 150 169 208 243 565 609 624 449 579 677 440 104 8 37 35 0 0 0 0 0 0 1
0 0 0 0 0 0 0 0 17 33 22 21 25 76 0 414 360 190 106 1 0 0 0 5 67 47 0 124 135 82 113 255 369 465 636 616 496 173 0 3 65 51 0 0 0 0 0 0 0
0 0 0 0 0 0 0 7 5 0 62 239 204 361 0 623 293 201 57 3 0 0 0 86 6 6 0 1 39 25 86 153 35 124 253 238 270 72 0 0 0 0 0 0 0 0 0 0 0
0 0 0 0 0 0 0 2 18 0 56 574 723 134 601 553 498 248 52 2 0 2 2 2 0 10 1 97 73 14 47 19 17 14 15 73 54 13 0 0 0 0 0 0 0 0 0 0 0
0 0 0 0 0 0 0 0 0 69 443 545 557 522 390 216 86 13 15 2 4 3 1 1 1 2 1 0 0 0 0 11 8 7 7 8 1 1 4 0 0 0 0 0 0 0 0 0 0
0 0 0 0 0 0 0 0 0 0 300 433 284 177 129 17 1 5 14 6 2 1 0 0 0 2 6 9 0 0 0 0 0 6 4 4 1 4 5 0 0 0 0 0 0 0 0 0 0
0 0 0 0 0 0 0 0 0 0 362 367 153 45 43 0 4 11 7 5 1 2 1 0 0 0 0 0 0 0 0 0 2 1 1 5 0 4 3 0 0 0 0 0 0 0 0 0 0
0 0 0 0 0 0 0 0 0 0 392 365 98 6 0 4 3 2 2 3 2 2 1 0 0 0 0 0 0 0 0 0 18 27 13 2 2 0 0 0 0 0 0 0 0 0 0 0 0
0 0 0 0 0 0 0 0 0 0 50 169 52 6 0 0 0 4 3 2 2 2 3 2 0 0 0 0 0 0 0 4 23 37 22 39 32 14 2 0 0 0 0 0 0 0 0 0 0
0 0 0 0 0 0 0 0 0 0 0 92 35 0 0 0 0 4 3 3 3 4 3 6 3 0 0 0 0 0 0 0 0 7 26 62 76 54 0 0 0 0 0 0 0 0 0 0 0
0 0 0 0 0 0 0 0 0 0 0 0 4 0 0 0 0 2 5 3 2 1 1 2 2 0 0 0 0 0 0 0 0 0 20 14 35 75 18 1 0 0 0 0 0 0 0 0 0
0 0 0 0 0 0 0 0 0 0 0 0 0 0 0 0 0 4 9 4 2 1 1 1 0 0 0 0 0 0 0 0 0 11 0 13 8 42 25 0 0 0 0 0 0 0 0 0 0
0 0 0 0 0 0 0 0 0 0 0 0 0 0 0 0 0 3 5 7 3 1 1 0 0 0 0 0 0 0 0 0 0 3 6 6 20 2 18 4 0 0 0 0 0 0 0 0 0
0 0 0 0 0 0 0 0 0 0 0 0 0 0 0 0 0 1 0 0 1 1 0 0 0 0 0 0 0 0 0 0 0 0 2 1 0 0 2 1 0 0 0 0 0 0 0 0 0
0 0 0 0 0 0 0 0 0 0 0 0 0 0 0 0 0 0 0 0 0 0 0 0 0 0 0 0 0 0 0 0 0 0 0 0 0 0 0 0 0 0 0 0 0 0 0 0 0
0 0 0 0 0 0 0 0 0 0 0 0 0 0 0 0 0 0 0 0 0 0 0 0 0 0 0 0 0 0 0 0 0 0 0 0 0 0 0 0 0 0 0 0 0 0 0 0 0
0 0 0 0 0 0 0 0 0 0 0 0 0 0 0 0 0 0 0 0 0 0 0 0 0 0 0 0 0 0 0 0 0 0 0 0 0 0 0 0 0 0 0 0 0 0 0 0 0
0 0 0 0 0 0 0 0 0 0 0 0 0 0 0 0 0 0 0 0 0 0 0 0 0 0 0 0 0 0 0 0 0 0 0 0 0 0 0 0 0 0 0 0 0 0 0 0 0
0 0 0 0 0 0 0 0 0 0 0 0 0 0 0 0 0 0 0 0 0 0 0 0 0 0 0 0 0 0 0 0 0 0 0 0 0 0 0 0 0 0 0 0 0 0 0 0 0
0 0 0 0 0 3 0 0 0 0 0 0 0 0 0 0 0 0 0 0 0 0 0 0 0 0 0 0 0 0 0 0 0 0 0 0 0 0 0 0 0 0 0 0 0 0 0 0 0
0 0 0 0 0 0 0 0 0 0 0 0 0 0 0 0 0 0 0 0 0 0 0 0 0 0 0 0 0 0 0 0 0 0 0 0 0 0 0 0 0 0 0 0 0 0 0 0 0
0 0 0 0 0 0 0 0 0 0 0 0 0 0 0 0 0 0 0 0 0 0 0 0 0 0 0 0 0 0 0 0 0 0 0 0 0 0 0 0 0 0 0 0 0 0 0 0 0

GFSSGP_con_sbcape_090.txt.gz
CAPE
0 0 0 0 0 0 0 0 0 0 0 0 0 0 18 137 261 66 112 119 774 1808 1604 1661 1796 1927 1927 1892 1873 1831 1904 1937 1918 1837 1655 1563 1299 1072 755 462 354 299 276 6 8 11 6 6 7
0 0 0 0 0 0 0 0 0 0 0 0 0 0 129 282 181 168 164 188 893 1805 1730 1662 1711 1915 1999 1963 1919 1895 1907 1878 1836 1817 1742 1526 1291 935 590 582 407 474 476 234 46 17 5 2 5
0 0 0 0 0 0 0 0 0 0 0 0 0 1 281 171 332 523 180 225 718 1079 1738 1788 1778 1867 1953 1952 2016 1904 1747 1640 1643 1673 1685 1468 1125 782 728 562 448 628 695 291 137 53 5 26 4
0 0 0 0 0 0 0 0 0 0 0 0 0 0 0 0 437 509 212 273 629 576 882 1587 1681 1801 1849 1936 1941 1797 1652 1499 1482 1488 1564 1413 1115 805 785 575 574 664 685 506 53 1 15 1 0
0 0 0 0 0 0 0 0 0 0 0 0 0 0 0 0 269 234 274 70 440 270 446 1453 1394 1769 1837 1775 1637 1495 1532 1421 1419 1466 1452 1263 1088 794 749 652 559 455 325 102 0 0 94 0 0
0 0 0 0 0 0 0 0 0 0 0 0 0 0 0 129 651 369 141 97 95 143 90 216 1160 940 1550 1474 1334 1204 1280 1259 1318 1385 1391 1235 929 673 619 522 329 191 34 15 130 127 19 0 0
0 0 0 0 0 0 0 0 0 0 0 0 0 0 0 497 384 131 56 64 43 116 74 215 497 892 914 917 938 840 856 887 1255 1325 1213 1026 678 517 444 347 245 16 11 51 119 65 0 0 0
0 0 0 0 0 0 0 0 0 0 0 0 0 8 0 45 220 113 59 74 43 25 13 0 0 163 561 405 584 430 362 402 639 892 963 737 566 394 298 161 20 0 0 13 69 22 0 0 0
0 0 0 0 0 0 0 0 0 0 0 0 0 3 44 383 115 46 22 33 21 12 19 0 0 0 65 313 404 308 226 228 333 682 684 555 409 174 49 0 0 0 0 0 52 57 0 0 0
0 0 0 0 0 0 0 0 0 0 1 6 6 4 451 331 126 97 13 0 3 0 0 0 0 0 0 136 102 129 103 17 106 540 622 496 210 28 0 0 0 0 0 1 71 21 0 0 0
0 0 0 0 0 0 0 0 0 0 4 6 21 56 0 179 300 235 159 0 0 0 0 34 57 45 1 5 151 79 42 0 5 279 372 315 194 26 0 0 0 0 0 0 0 0 0 0 0
0 0 0 0 0 0 0 0 0 0 6 97 196 338 10 514 377 204 95 1 0 0 6 0 0 3 11 1 103 30 1 1 7 124 252 300 160 12 0 0 0 0 0 0 0 0 0 0 0
0 0 0 0 0 0 0 0 0 0 70 492 593 352 593 393 177 86 39 16 0 7 1 2 0 2 1 7 9 0 2 0 6 49 156 242 135 8 0 0 0 0 0 0 0 0 0 0 0
0 0 0 0 0 0 0 0 0 0 282 355 379 382 201 104 57 16 18 8 11 1 1 0 0 4 1 2 3 5 8 0 14 26 60 136 90 33 2 0 0 0 0 0 0 0 0 0 0
0 0 0 0 0 0 0 0 0 0 334 334 187 45 0 0 17 4 4 12 1 2 0 0 0 0 1 1 0 0 1 13 21 30 0 14 28 9 1 0 0 0 0 0 0 0 0 0 0
0 0 0 0 0 0 0 0 0 0 207 279 115 1 1 2 3 3 1 0 0 1 1 0 0 0 0 0 0 0 0 1 0 0 12 18 22 9 0 0 0 0 0 0 0 0 0 0 0
0 0 0 0 0 0 0 0 0 0 113 155 59 0 0 0 1 3 2 2 1 1 1 0 0 0 0 0 0 1 2 0 1 0 13 28 11 4 0 0 0 0 0 0 0 0 0 0 0
0 0 0 0 0 0 0 0 0 0 0 50 38 0 0 0 0 1 3 3 2 3 2 2 1 0 0 0 1 0 0 5 19 20 24 24 32 14 2 0 0 0 0 0 0 0 0 0 0
0 0 0 0 0 0 0 0 0 0 0 0 0 0 0 0 0 3 5 3 5 3 1 2 3 0 0 0 0 0 0 0 20 26 24 27 34 17 7 1 0 0 0 0 0 0 0 0 0
0 0 0 0 0 0 0 0 0 0 0 0 0 0 0 1 4 7 4 3 2 3 2 1 2 3 0 0 0 1 2 5 0 6 28 34 42 65 27 12 0 0 0 0 0 0 0 0 0
0 0 0 0 0 0 0 0 0 0 0 0 0 0 0 0 0 1 10 3 1 1 1 0 0 1 0 0 0 0 0 2 0 15 12 17 16 54 66 19 2 0 0 0 0 0 0 0 0
0 0 0 0 0 0 0 0 0 0 0 0 0 0 0 0 0 0 0 7 1 1 0 0 0 0 0 0 0 0 0 0 0 0 19 20 28 19 56 26 0 0 0 0 0 0 0 0 0
0 0 0 0 0 0 0 0 0 0 0 0 0 0 0 0 0 0 0 1 1 0 0 0 0 0 0 0 0 0 0 0 0 0 1 7 6 12 14 17 1 0 0 0 0 0 0 0 0
0 0 0 0 0 0 0 0 0 0 0 0 0 0 0 0 0 0 0 0 0 0 0 0 0 0 0 0 0 0 0 0 0 0 0 0 0 0 0 0 0 0 0 0 0 0 0 0 0
0 0 0 0 0 0 0 0 0 0 0 0 0 0 0 0 0 0 0 1 0 0 0 2 0 0 0 0 0 0 0 0 0 0 0 0 0 0 0 0 0 0 0 0 0 0 0 0 0
0 0 0 0 0 0 0 0 0 0 0 0 0 0 0 0 0 0 0 0 0 0 0 0 0 0 0 0 0 0 0 0 0 0 0 0 0 0 0 0 0 0 0 0 0 0 0 0 0
0 0 0 0 0 0 0 0 0 0 0 0 0 0 0 0 0 0 0 0 0 0 0 0 0 0 0 0 0 0 0 0 0 0 0 0 0 0 0 0 0 0 0 0 0 0 0 0 0
0 0 0 0 0 0 0 0 0 0 0 0 0 0 0 0 0 0 0 0 0 0 0 0 0 0 0 0 0 0 0 0 0 0 0 0 0 0 0 0 0 0 0 0 0 0 0 0 0
0 0 0 0 0 0 0 0 0 0 0 0 0 0 0 0 0 0 0 0 0 0 0 0 0 0 0 0 0 0 0 0 0 0 0 0 0 0 0 0 0 0 0 0 0 0 0 0 0
0 0 0 0 0 0 0 0 0 0 0 0 0 0 0 0 0 0 0 0 0 0 0 0 0 0 0 0 0 0 0 0 0 0 0 0 0 0 0 0 0 0 0 0 0 0 0 0 0

GFSSGP_con_sbcape_093.txt.gz
CAPE
0 0 0 0 0 0 0 0 0 0 0 0 0 0 9 44 136 37 148 493 775 1442 1360 1653 1809 1932 1883 2058 2208 2121 2189 2168 2042 1889 1761 1650 1565 1468 1306 1014 846 683 507 33 15 15 14 13 10
0 0 0 0 0 0 0 0 0 0 0 0 0 0 16 173 167 248 312 196 1013 1835 1657 1426 1758 1866 2013 2033 2261 2226 2300 2199 2124 2000 1805 1662 1423 1190 986 714 578 522 450 51 10 5 8 7 6
0 0 0 0 0 0 0 0 0 0 0 0 0 0 128 183 287 552 283 283 1240 1995 1918 1601 1705 1766 2027 2036 2211 2236 2190 2066 2027 1918 1766 1547 1223 1042 794 606 474 574 598 92 13 3 2 2 3
0 0 0 0 0 0 0 0 0 0 0 0 0 0 0 0 479 499 291 418 1134 1240 1847 1397 1416 1704 1979 2109 2207 2203 2079 1916 1848 1718 1602 1382 1157 1121 900 711 720 786 687 528 49 0 0 0 0
0 0 0 0 0 0 0 0 0 0 0 0 0 0 0 3 156 539 616 193 876 731 391 1005 1181 1379 1958 2158 2164 2018 1895 1753 1675 1531 1294 1052 1133 1038 852 796 751 660 727 542 187 169 0 0 1
0 0 0 0 0 0 0 0 0 0 0 0 0 0 2 230 472 544 384 582 199 491 96 61 844 1201 1110 2011 1888 1688 1616 1521 1450 1259 1027 917 976 816 832 808 752 584 399 214 347 36 0 0 0
0 0 0 0 0 0 0 0 0 0 0 0 0 0 4 178 504 252 199 230 177 181 144 112 138 295 537 689 1171 1376 1388 1324 1253 987 757 602 607 631 692 597 398 206 212 203 272 10 0 0 0
0 0 0 0 0 0 0 0 0 0 0 0 0 96 76 64 362 238 77 70 80 66 244 180 322 160 489 486 538 1074 1093 1083 1084 848 605 370 365 403 321 226 126 168 419 364 180 9 0 0 0
0 0 0 0 0 0 0 0 0 0 0 0 0 2 26 448 245 254 260 124 124 71 105 104 63 512 590 461 661 654 960 959 904 737 336 274 650 498 239 50 51 168 308 211 73 3 0 0 0
0 0 0 0 0 0 0 0 0 3 14 21 1 11 448 345 183 119 200 260 105 44 22 31 129 43 16 276 517 350 1043 1473 1250 1092 676 546 566 458 63 24 32 72 190 104 50 15 0 0 0
0 0 0 0 0 0 0 0 0 0 0 0 0 4 245 305 262 220 197 74 2 0 2 15 47 42 17 46 158 135 32 242 379 1202 360 325 292 93 77 16 0 48 152 102 37 2 0 0 0
0 0 0 0 0 0 0 0 0 0 0 151 2 412 0 88 214 290 303 180 13 0 2 5 14 18 124 49 142 18 9 43 420 377 437 114 94 75 40 0 0 0 75 114 23 0 0 0 0
0 0 0 0 0 0 0 0 0 0 0 264 554 157 88 478 612 309 177 17 2 4 8 7 3 34 28 25 17 53 5 20 89 119 236 82 79 30 0 0 0 0 0 0 4 0 0 0 0
0 0 0 0 0 0 0 0 0 0 0 379 483 352 444 365 204 128 23 38 20 4 4 0 2 4 4 11 29 65 2 5 39 92 33 108 130 10 0 0 0 0 0 0 0 0 0 0 0
0 0 0 0 0 0 0 0 0 0 171 332 242 125 99 36 1 13 9 8 7 2 1 1 4 5 0 2 8 8 0 0 31 65 94 83 80 4 0 0 0 0 0 0 0 0 0 0 0
0 0 0 0 0 0 0 0 0 0 64 232 234 127 69 3 0 2 8 0 4 2 2 1 1 2 1 3 5 5 7 6 39 42 33 55 73 5 11 0 15 2 0 0 0 0 0 0 0
0 0 0 0 0 0 0 0 0 0 8 44 207 146 49 3 0 5 17 3 4 2 1 1 1 1 1 1 2 5 4 1 6 10 1 28 71 15 0 7 0 0 0 0 0 0 0 0 0
0 0 0 0 0 0 0 0 0 0 0 1 143 144 14 1 1 6 11 4 3 3 1 1 2 2 1 4 1 4 10 5 1 5 16 41 56 45 18 10 12 2 0 0 0 0 0 0 0
0 0 0 0 0 0 0 0 0 0 0 0 23 172 7 0 0 5 2 5 4 4 2 2 2 3 0 1 2 2 0 0 0 14 7 21 36 53 63 35 44 21 4 0 0 0 0 0 0
0 0 0 0 0 0 0 0 0 0 0 0 0 12 67 0 0 4 0 7 4 3 4 3 2 2 2 3 2 0 1 0 2 6 22 35 39 40 32 26 53 59 27 0 0 0 0 0 0
0 0 0 0 0 0 0 0 0 0 0 0 0 0 21 0 0 1 7 5 7 4 6 3 2 1 0 0 0 0 0 0 0 10 11 47 42 15 16 30 62 74 53 14 0 0 0 0 0
0 0 0 0 0 0 0 0 0 0 0 0 0 0 0 0 0 0 3 4 3 5 3 4 4 1 0 0 0 0 0 0 0 0 0 8 32 53 65 39 63 74 67 30 0 0 0 0 0
0 0 0 0 0 0 0 0 0 0 0 0 0 0 0 0 0 0 0 2 3 7 4 2 3 1 0 0 0 0 0 0 0 0 20 3 12 24 21 89 74 128 83 48 14 0 0 0 0
0 0 0 0 0 0 0 0 0 0 0 0 0 0 0 0 0 0 0 4 4 4 4 3 2 1 0 0 0 0 0 0 0 0 0 0 11 33 27 29 79 114 101 39 11 3 0 0 0
0 0 0 0 0 0 0 0 0 0 0 0 0 0 0 0 0 0 0 0 2 2 7 1 2 2 0 0 0 0 0 0 0 0 1 1 0 9 25 49 74 83 73 51 55 5 0 0 0
0 0 0 0 0 0 0 0 0 0 0 0 0 0 0 0 0 0 0 0 0 1 2 3 3 4 1 0 0 0 0 0 0 0 0 2 9 8 6 18 34 38 41 35 12 2 0 0 0
0 0 0 0 0 0 0 0 0 0 0 0 0 0 0 0 0 0 0 0 0 2 0 0 0 0 4 1 0 0 0 0 0 0 0 0 0 0 0 0 0 1 1 5 8 17 4 1 1
0 0 0 0 0 0 0 0 0 0 0 0 0 0 0 0 0 0 0 0 0 0 3 0 1 1 2 4 2 0 0 0 0 0 0 0 0 0 0 0 0 0 0 0 0 1 0 3 3
0 0 0 0 0 0 0 0 0 0 0 0 0 0 0 0 0 0 0 0 0 0 0 3 1 4 4 2 2 2 0 0 0 0 0 0 0 0 0 0 0 0 2 0 0 1 1 0 0
0 0 0 0 0 0 0 0 0 0 0 0 0 0 0 0 0 0 0 0 0 0 0 0 1 0 0 0 0 1 1 0 0 0 0 0 0 0 0 0 0 0 0 0 0 0 0 0 0

GFSSGP_con_sbcape_096.txt.gz
CAPE
0 0 0 0 0 0 0 0 0 0 0 0 0 0 0 0 0 6 526 1317 1537 1653 1447 1575 1880 2096 2276 2189 2018 2017 2091 2044 1960 1790 1802 1748 1873 1766 1614 1383 1038 937 672 57 18 13 15 16 11
0 0 0 0 0 0 0 0 0 0 0 0 0 0 0 0 134 234 406 917 1704 1821 1680 1608 1799 1959 2320 2219 2081 2218 2276 2151 1965 2029 1962 1918 1876 1748 1569 1195 822 714 534 15 12 8 12 9 7
0 0 0 0 0 0 0 0 0 0 0 0 0 0 0 0 280 464 841 601 1145 1445 1932 1636 1733 1836 2157 2320 2226 2287 2263 2037 1974 1951 1976 1909 1759 1586 1324 914 569 540 435 51 11 7 3 3 11
0 0 0 0 0 0 0 0 0 0 0 0 0 0 0 0 128 657 742 655 955 1417 1929 1464 1598 1717 2069 2398 2364 2331 2166 1942 1907 1798 1839 1778 1605 1360 989 654 535 593 470 51 4 1 2 6 4
0 0 0 0 0 0 0 0 0 0 0 0 0 0 0 5 29 670 865 727 1017 1360 1749 384 907 1376 1833 2477 2414 2227 2052 1913 1763 1725 1540 1468 1309 1080 748 592 587 472 354 128 4 1 1 1 0
0 0 0 0 0 0 0 0 0 0 0 0 0 0 0 252 396 472 842 882 923 951 1011 162 110 182 414 1946 2150 2015 1900 1730 1587 1473 1281 1297 1095 882 781 725 600 614 383 156 52 3 3 0 0
0 0 0 0 0 0 0 0 0 0 0 0 0 0 0 232 586 783 697 909 872 709 575 45 73 86 95 596 1596 1403 1634 1515 1381 1121 1017 983 854 742 825 660 850 626 377 346 57 1 0 0 0
0 0 0 0 0 0 0 0 0 0 0 18 6 0 0 295 731 782 735 824 125 476 626 258 15 29 1 295 153 84 862 1078 1039 806 812 635 629 637 648 520 396 336 409 231 63 10 0 0 0
0 0 0 0 0 0 0 0 0 0 0 12 26 13 143 432 431 497 640 954 650 166 286 426 8 0 2 382 255 23 31 664 673 639 573 420 1025 817 581 326 230 326 345 152 66 2 0 0 0
0 0 0 0 0 0 0 0 0 0 0 4 2 43 143 532 499 446 624 620 778 732 93 294 144 101 98 151 261 102 78 742 1199 811 1042 609 1000 724 348 175 254 374 290 106 68 29 0 0 0
0 0 0 0 0 0 0 0 0 0 0 0 0 0 72 603 632 634 569 626 585 456 474 67 335 253 586 646 878 450 215 514 761 698 520 601 909 757 330 75 162 386 162 128 23 0 0 0 0
0 0 0 0 0 0 0 0 0 0 0 0 0 12 303 575 622 478 584 549 518 455 256 277 146 402 486 386 470 302 202 638 458 706 462 1077 902 651 154 16 93 235 161 143 63 23 38 9 0
0 0 0 0 0 0 0 0 0 0 0 0 1 445 422 424 518 665 347 128 195 257 84 191 250 301 236 424 466 215 665 149 462 321 371 561 348 86 66 74 111 119 169 168 138 100 48 11 0
0 0 0 0 0 0 0 0 0 0 0 0 122 385 626 671 595 421 168 39 16 0 31 123 175 107 153 189 178 90 67 169 317 444 220 221 163 34 30 59 38 104 179 184 138 82 9 0 0
0 0 0 0 0 0 0 0 0 0 0 0 138 469 556 409 316 162 76 9 69 6 6 14 14 43 14 31 40 137 61 39 190 184 150 45 13 4 9 69 2 1 50 76 77 24 0 0 0
0 0 0 0 0 0 0 0 0 0 0 0 2 362 371 291 206 37 0 10 14 7 4 6 5 9 12 3 9 35 66 38 62 163 141 27 4 33 70 36 2 0 10 29 3 0 0 0 0
0 0 0 0 0 0 0 0 0 0 0 0 0 154 323 318 162 24 2 15 5 17 5 7 17 12 2 1 9 12 16 36 43 92 86 19 27 44 82 79 7 0 0 0 0 0 0 0 0
0 0 0 0 0 0 0 0 0 0 0 0 0 50 272 248 150 43 0 5 5 10 5 7 12 9 5 1 7 6 11 15 22 28 59 21 24 46 76 38 33 3 0 0 1 0 5 6 0
0 0 0 0 0 0 0 0 0 0 0 0 0 32 254 238 136 20 1 5 5 9 7 5 6 7 5 2 4 6 3 1 4 0 1 15 27 79 98 42 50 25 10 16 9 2 1 4 0
0 0 0 0 0 0 0 0 0 0 0 0 0 0 107 221 143 14 0 4 8 12 13 6 4 5 3 3 2 3 7 3 3 1 5 7 43 100 84 58 90 87 46 37 20 5 1 2 0
0 0 0 0 0 0 0 0 0 0 0 0 0 0 0 144 188 54 0 6 13 6 8 7 7 3 2 2 0 1 1 6 8 17 23 13 33 81 78 79 84 109 109 71 53 2 3 2 0
0 0 0 0 0 0 0 0 0 0 0 0 0 0 0 75 128 118 15 1 7 5 18 16 4 8 7 2 1 0 1 1 17 27 29 24 15 35 93 101 111 123 113 107 73 14 27 7 0
0 0 0 0 0 0 0 0 0 0 0 0 0 0 13 155 185 164 95 0 6 4 11 10 11 9 4 6 7 2 6 3 8 14 62 44 25 44 31 61 62 93 107 131 139 75 55 45 66
0 0 0 0 0 0 0 0 0 0 0 0 0 0 3 123 187 197 101 27 3 10 13 9 9 13 5 4 6 0 2 0 1 0 5 53 47 105 56 40 63 71 131 157 193 212 167 86 54
0 1 2 4 1 0 0 0 0 0 0 0 0 0 0 125 221 227 103 33 51 4 9 13 8 10 12 13 7 1 6 5 0 0 9 38 18 16 27 55 70 88 128 153 183 218 203 222 127
0 11 11 0 14 1 0 0 0 0 0 0 0 0 0 96 236 256 176 93 46 9 6 10 14 11 6 2 0 0 12 0 2 8 27 28 16 32 72 67 64 75 33 173 225 335 245 266 232
0 0 0 0 0 0 15 13 0 0 0 0 0 0 0 40 212 273 223 140 53 38 2 8 10 9 5 6 1 0 1 0 7 17 2 4 9 29 62 67 72 66 95 111 150 147 192 286 284
0 0 0 10 2 0 2 2 6 0 0 0 0 0 0 0 94 244 259 174 85 43 21 7 5 6 10 11 10 3 3 3 7 11 6 1 0 1 10 36 39 54 48 47 66 105 137 158 309
0 0 0 0 11 5 7 5 4 0 0 0 0 0 0 26 77 185 300 229 119 53 25 1 5 2 2 8 15 14 12 11 8 3 1 0 0 1 2 4 13 20 23 35 124 110 90 107 144
0 0 0 0 0 6 5 0 6 0 0 0 0 0 0 30 115 120 223 258 165 102 64 0 6 3 1 0 1 4 8 9 7 5 2 0 0 0 1 3 3 5 6 64 133 152 53 70 75

GFSSGP_con_sbcape_099.txt.gz
CAPE
0 0 0 0 0 0 0 0 0 0 0 0 0 0 0 0 0 5 579 1083 1704 1709 1716 1583 1925 2060 2305 2188 2049 2020 2054 2121 2042 1920 1978 1833 1814 1681 1498 1390 1212 1027 699 144 74 21 21 20 8
0 0 0 0 0 0 6 0 0 0 0 0 0 0 0 1 0 1 208 1167 1768 1828 1818 1962 1828 2070 2349 2264 2105 2114 2304 2258 2007 2002 2113 2063 1871 1803 1704 1377 1070 855 803 178 143 20 19 17 13
0 0 0 0 0 0 0 0 0 0 0 0 0 0 0 0 27 77 968 832 1241 1274 1692 1888 1766 1966 2335 2284 2138 2137 2212 2104 1933 2006 2203 2238 2006 1941 1625 1207 892 798 643 101 36 18 17 12 1
0 0 0 0 0 0 0 0 0 0 0 0 0 0 0 0 2 429 755 711 780 1069 1372 1335 1618 1825 2112 2273 2143 2181 2101 1798 1853 1958 2184 2233 2022 1704 1415 918 760 697 542 170 10 9 10 4 0
0 0 0 0 0 0 0 0 0 0 0 0 0 0 0 22 77 664 866 779 905 1013 1488 2168 543 1592 1839 1900 1770 2022 1924 1715 1828 1929 2031 1946 1506 1508 1052 728 592 494 351 190 7 7 5 1 0
0 0 0 0 0 0 0 0 0 0 0 0 0 0 0 314 327 384 1017 919 1002 1134 1623 1516 350 668 345 230 141 1268 1638 1572 1622 1745 1770 1735 1417 1168 863 709 520 304 206 118 12 9 2 0 0
0 0 0 0 0 0 0 0 0 0 0 0 0 0 0 85 679 1018 851 946 1221 1207 1138 1101 426 173 52 170 40 87 1278 1362 1430 1475 1402 1239 944 759 838 723 461 245 152 59 4 3 0 0 0
0 0 0 0 0 0 0 0 0 0 0 0 0 0 0 785 982 853 897 1073 895 906 777 832 45 3 146 169 10 3 763 941 1047 1086 934 742 624 662 652 678 490 257 140 64 2 0 0 0 0
0 0 0 0 0 0 0 0 0 0 0 0 0 0 0 282 527 640 860 1164 1139 787 638 677 330 27 16 119 113 190 422 532 771 728 560 458 941 735 660 457 432 346 90 46 24 2 0 0 0
0 0 0 0 0 0 0 0 0 0 0 0 2 5 30 451 600 553 669 741 962 1136 496 595 384 27 11 150 1 89 10 161 820 1227 1053 882 928 668 469 386 331 213 48 34 15 0 0 0 0
0 0 0 0 0 0 0 0 0 0 0 0 0 0 1 76 586 723 749 740 717 674 608 258 404 110 15 103 278 574 14 27 207 990 1081 525 918 832 928 643 460 248 22 0 0 0 0 0 0
0 0 0 0 0 0 0 0 0 0 0 0 0 0 1 103 574 789 769 879 665 491 381 403 415 417 401 374 754 684 208 1 183 1258 909 981 903 656 954 636 284 287 71 0 0 0 6 3 0
0 0 0 0 0 0 0 0 0 0 0 0 0 0 8 271 424 679 921 689 470 373 275 287 351 493 554 431 810 713 331 579 218 452 926 660 475 551 275 312 318 204 172 34 41 0 51 43 2
0 0 0 0 0 0 0 0 0 0 0 0 0 0 26 450 592 841 869 545 402 359 280 156 180 194 309 513 529 663 168 222 204 207 513 858 847 497 108 282 367 312 267 125 98 92 62 43 1
0 0 0 0 0 0 0 0 0 0 0 0 0 0 166 464 617 606 534 417 366 231 168 49 48 130 148 161 274 512 502 383 355 81 218 630 251 255 146 211 340 220 288 431 229 160 36 2 0
0 0 0 0 0 0 0 0 0 0 0 0 0 0 143 452 462 408 353 330 207 268 80 32 3 13 57 66 171 299 108 398 149 130 85 70 64 175 139 99 103 243 232 297 202 115 5 0 0
0 0 0 0 0 0 0 0 0 2 0 0 0 0 8 388 550 443 279 201 123 118 8 5 3 22 35 17 18 112 152 128 169 112 81 75 7 17 9 32 56 240 237 224 178 70 23 0 0
0 0 0 0 0 3 0 0 0 0 0 0 0 0 2 38 438 546 280 180 37 22 9 12 2 10 7 16 23 22 15 89 79 118 27 6 1 11 28 16 84 168 184 181 74 52 10 0 0
0 0 22 3 5 0 0 0 0 0 0 0 0 0 1 19 320 423 223 134 45 12 9 6 13 12 18 7 15 20 18 50 58 89 19 0 0 19 50 42 102 176 74 35 40 61 129 19 24
0 0 0 0 0 3 0 0 0 0 0 0 0 1 0 11 315 366 235 134 20 7 9 2 5 12 10 7 5 10 2 13 29 11 1 0 0 6 47 86 129 144 82 84 115 160 61 34 8
2 0 3 1 0 1 1 0 0 0 0 0 0 0 0 2 243 411 198 133 129 2 6 5 5 17 7 1 2 2 0 1 1 2 3 4 0 4 28 66 147 161 161 149 174 177 126 54 7
4 0 0 0 0 0 2 0 1 0 0 0 0 0 0 0 3 445 298 63 157 40 11 16 8 3 3 1 0 2 0 0 3 2 5 7 8 32 67 88 172 208 193 176 157 128 156 148 35
1 0 0 0 0 1 0 0 0 0 0 0 0 0 0 0 18 374 366 87 88 138 10 11 11 9 13 1 5 0 3 3 3 5 8 16 57 65 85 121 190 252 180 223 231 175 151 125 139
0 1 0 0 1 3 0 2 2 0 0 1 0 0 0 0 114 309 415 107 71 67 2 0 6 2 10 4 4 2 0 3 11 13 6 9 23 48 82 94 179 197 217 218 209 172 117 163 223
5 21 42 42 54 22 10 14 2 0 0 0 0 0 0 0 174 376 425 204 84 62 6 6 3 5 12 9 3 0 0 0 0 15 34 7 18 41 27 35 67 114 157 169 203 166 256 227 232
28 0 78 31 37 39 34 13 2 0 0 0 0 0 0 11 257 421 436 303 180 163 115 7 5 5 7 8 18 12 17 3 0 15 49 19 38 116 22 2 6 26 66 76 174 320 174 190 303
0 54 27 38 23 8 1 6 5 0 0 0 0 0 0 23 280 437 448 408 224 233 146 68 31 8 10 7 8 11 13 22 2 0 12 73 70 84 102 80 55 61 72 104 66 107 126 193 264
0 3 67 70 16 19 10 8 32 11 0 0 1 1 0 0 186 410 464 504 329 225 171 93 66 50 10 9 4 6 12 18 17 33 43 66 77 47 55 71 60 66 68 86 115 133 178 192 251
0 1 7 34 44 50 40 21 4 22 0 0 12 7 19 1 117 366 501 536 425 277 180 137 92 52 37 21 10 15 12 15 15 31 49 41 51 64 63 68 82 93 108 132 173 174 163 163 217
52 1 16 87 22 18 74 30 0 2 0 0 37 28 32 0 71 252 512 551 508 306 194 170 117 68 70 45 20 9 12 11 12 15 24 47 50 55 40 35 20 37 52 90 117 170 136 199 253

GFSSGP_con_sbcape_102.txt.gz
CAPE
0 0 0 0 0 0 0 0 0 0 0 0 0 0 0 0 0 0 718 1487 1410 1695 1720 1621 1960 2249 2049 2006 2014 2023 2014 1960 1996 1949 1902 1845 1700 1517 1368 1338 1175 963 913 353 196 69 14 11 7
0 0 0 0 0 0 0 0 0 0 0 0 0 0 0 0 0 13 1028 1464 1589 1220 1826 1808 1802 2094 2282 2134 2087 2062 2217 2080 2061 2086 1910 1813 1816 1640 1634 1401 1058 877 858 269 126 71 15 14 116
0 0 0 0 0 0 0 0 0 0 0 0 0 0 0 0 8 438 898 1057 988 1112 1209 2272 1729 1906 2265 2216 2114 2080 2177 2039 2011 1959 1588 1602 1485 1699 1682 1239 921 934 887 157 102 89 50 16 19
0 0 0 0 0 0 0 0 0 0 0 0 0 0 0 0 0 521 714 553 680 899 1720 1245 1620 1804 2119 2149 2178 2077 1835 1933 1759 1338 758 1527 1448 1706 1484 1065 904 868 661 118 107 74 11 5 0
0 0 0 0 0 0 0 0 0 0 0 0 0 0 0 0 338 674 826 728 873 899 1906 1940 1286 1560 2040 2267 2107 2030 1828 1792 1691 1566 1429 1350 1186 1297 1243 960 801 598 463 163 41 9 0 0 0
0 0 0 0 0 0 0 0 0 0 0 0 0 0 0 95 197 538 1211 973 1276 1229 2118 2168 664 782 1535 1969 1820 1699 1654 1182 1520 1660 1333 920 953 786 868 847 706 410 183 107 55 21 0 0 0
0 0 0 0 0 0 0 0 0 0 0 0 0 0 0 288 891 1177 1098 1057 1491 1662 1546 1652 1359 736 609 402 434 304 57 5 879 1264 581 307 472 684 783 723 507 231 124 91 48 13 0 0 0
0 0 0 0 0 0 0 0 0 0 0 0 0 0 0 1005 1070 1008 1157 1270 1104 1311 1231 1214 886 386 187 289 4 45 21 0 0 797 550 597 600 518 533 337 252 124 83 4 0 0 0 0 0
0 0 0 0 0 0 0 0 0 0 0 0 0 0 0 430 655 850 1133 1477 1365 1122 1086 1055 775 368 209 32 69 70 39 15 0 450 477 398 456 506 314 186 118 85 26 4 0 0 0 0 0
0 0 0 0 0 0 0 0 0 0 0 0 0 0 15 353 399 488 769 984 1574 1523 998 1072 820 369 58 28 1 35 18 0 0 330 364 440 455 410 276 130 86 29 4 0 0 0 0 0 0
0 0 0 0 0 0 0 0 0 0 0 0 0 0 2 312 566 681 782 840 901 1216 1257 722 605 194 0 96 20 62 0 5 12 185 197 331 472 259 260 181 7 0 0 0 0 0 0 0 0
0 0 0 0 0 0 0 0 0 0 0 0 0 0 0 0 36 644 975 1081 899 1166 888 680 469 66 6 123 15 61 39 8 8 320 269 392 277 219 251 139 1 0 0 0 0 0 0 0 0
0 0 0 0 0 0 0 0 0 0 0 0 0 0 0 0 58 450 981 1064 870 732 653 543 431 365 219 127 89 93 15 0 8 63 239 223 122 259 186 140 53 0 0 0 0 0 0 0 0
0 0 0 0 0 0 0 0 0 0 0 0 0 0 0 0 166 599 1204 955 518 576 554 415 345 412 443 278 129 103 19 0 16 139 219 220 178 267 153 115 102 1 0 0 0 0 6 0 0
0 0 0 0 0 0 0 0 0 0 0 0 0 0 0 0 136 518 787 724 536 445 343 77 269 296 267 178 251 208 151 18 104 64 122 241 236 183 57 68 110 70 8 8 0 0 13 3 0
0 0 0 0 0 0 0 0 0 0 0 0 0 0 0 43 154 470 535 373 376 376 146 39 5 55 113 130 244 222 189 153 66 7 63 79 172 108 51 61 73 99 69 83 36 49 4 0 0
0 0 0 0 0 0 0 0 0 0 0 0 0 0 0 101 498 419 383 328 302 301 44 9 10 8 36 32 13 156 161 113 92 12 20 26 62 35 76 71 100 149 110 107 103 22 0 0 0
0 0 0 0 0 0 3 0 0 0 0 0 0 0 0 6 538 517 391 332 114 190 22 6 3 11 8 1 0 16 64 135 132 28 5 2 2 1 6 25 98 33 66 103 42 25 0 0 0
0 0 0 0 0 0 27 28 0 0 0 0 0 0 3 3 143 673 420 351 29 30 3 0 6 6 7 8 12 10 1 1 82 76 1 0 1 0 0 17 12 3 37 57 68 19 10 0 0
0 0 0 0 0 0 0 0 0 0 0 0 0 0 0 11 353 643 410 301 18 0 0 1 9 4 8 11 11 12 9 4 32 71 7 2 0 0 0 1 22 16 0 12 31 19 22 23 14
0 0 8 0 0 0 0 0 0 0 0 0 0 0 0 0 326 559 396 289 21 0 1 1 0 4 5 5 7 1 11 28 51 88 4 1 0 0 0 7 5 18 17 39 44 58 51 50 26
0 0 0 0 2 1 0 1 0 0 0 0 0 0 0 0 10 546 391 311 77 1 1 3 2 1 7 3 8 0 1 2 2 52 2 1 0 0 0 12 13 8 24 57 62 99 121 66 23
2 0 0 0 3 11 0 1 0 0 0 0 0 0 0 0 0 582 360 278 177 1 0 1 4 3 1 3 2 1 1 2 1 2 1 0 0 0 0 0 6 22 51 95 92 117 113 78 28
9 3 0 3 7 16 0 0 0 0 0 0 2 0 6 0 0 454 425 225 130 62 0 2 4 5 3 1 4 2 1 3 1 2 4 3 1 4 0 0 20 27 45 75 93 116 99 111 62
0 2 12 20 27 3 0 6 0 0 0 0 0 10 9 2 194 352 413 108 46 37 1 0 2 3 8 0 6 1 0 0 1 2 3 3 3 2 0 0 16 11 28 54 85 128 95 80 105
0 24 12 18 27 42 0 1 7 9 0 0 7 6 11 26 320 306 441 136 57 36 3 0 3 3 5 4 0 0 0 0 1 0 1 7 6 5 10 4 7 24 37 67 68 48 88 109 106
0 17 3 71 31 6 0 1 28 6 0 0 1 37 17 123 186 353 472 283 124 41 13 21 1 1 6 3 0 0 0 0 0 1 0 0 0 17 23 10 14 18 26 20 34 43 50 72 57
0 0 24 67 12 8 0 0 1 14 13 6 10 39 14 19 247 416 451 434 277 151 78 14 9 2 2 10 1 0 1 0 0 4 1 0 0 2 2 4 2 0 1 4 36 33 36 53 44
0 0 0 2 17 39 44 0 12 18 58 32 9 17 44 17 99 435 450 522 329 231 173 53 26 6 2 8 6 3 0 2 0 0 0 0 0 0 18 23 15 10 4 11 14 14 16 15 17
77 0 0 7 0 54 27 0 0 0 1 0 0 1 16 30 53 395 467 621 428 254 172 83 59 44 18 7 2 0 0 1 5 0 0 0 13 6 2 4 12 3 0 2 5 12 24 31 22

GFSSGP_con_sbcape_105.txt.gz
CAPE
0 0 0 0 0 0 0 0 0 0 0 0 0 0 0 0 0 1 735 1036 1632 1505 1940 2032 1809 1844 1922 2023 1969 1954 1959 2110 2102 2003 1829 1716 1552 1396 1279 1195 1118 1073 1027 577 507 419 246 29 122
0 0 0 0 0 0 0 0 0 0 0 0 0 0 0 0 231 877 1097 1261 1606 1543 1748 2044 1993 1934 2017 2071 2105 2070 2109 2184 2121 2107 1986 1820 1682 1598 1500 1288 1107 1002 958 348 238 231 71 58 109
0 0 0 0 0 0 0 0 0 0 0 0 0 0 0 0 112 694 772 1154 923 1540 1471 1793 2016 2014 2054 2099 2127 2115 2086 2117 2007 1984 2045 1814 1729 1760 1650 1253 1077 1010 910 272 192 138 116 228 134
0 0 0 0 0 0 0 0 0 0 0 0 0 0 0 0 145 672 608 557 424 1111 1816 1572 1738 2072 2077 2169 2154 2153 2171 1997 1852 1743 1780 1635 1575 1460 1325 1213 1054 959 814 502 146 107 235 71 28
0 0 0 0 0 0 0 0 0 0 0 0 0 0 0 13 421 371 369 409 338 1168 1379 1346 1561 1817 2212 2317 2244 2043 2114 1905 1830 1031 1047 660 1009 1067 714 815 1121 840 691 548 249 130 66 30 0
0 0 0 0 0 0 0 0 0 0 0 0 0 0 0 180 343 454 470 499 598 1168 1318 1051 1317 1572 1938 2278 2176 1934 1870 1744 1453 1014 689 646 546 559 710 638 801 658 448 284 148 66 32 33 0
0 0 0 0 0 0 0 0 0 0 0 0 0 0 29 230 475 632 572 614 1009 927 1274 1168 653 572 1067 1476 1064 1668 1611 1379 1066 426 661 679 403 522 773 801 693 416 220 185 131 35 15 15 0
0 0 0 0 0 0 0 0 0 0 0 0 0 0 0 523 567 437 490 661 832 746 697 786 492 225 0 83 55 164 952 830 660 475 350 306 356 476 576 534 394 234 183 158 121 22 0 0 0
0 0 0 0 0 0 0 0 0 0 0 0 0 0 0 640 458 551 513 640 565 627 537 502 265 0 0 0 0 11 52 127 195 31 2 139 168 339 347 222 215 188 134 95 36 9 0 0 0
0 0 0 0 0 0 0 0 0 0 0 0 0 0 61 496 421 518 558 786 816 556 507 467 253 94 4 0 0 1 5 23 14 9 0 114 143 176 137 154 162 106 58 31 3 0 0 0 0
0 0 0 0 0 0 0 0 0 0 0 0 0 0 178 348 315 279 260 285 910 765 503 485 314 53 0 0 0 0 4 16 0 0 0 123 244 196 75 30 25 10 2 0 0 0 0 0 0
0 0 0 0 0 0 0 0 0 0 0 0 0 0 0 72 53 40 104 182 578 746 369 275 127 0 0 0 0 0 0 0 6 0 17 147 208 168 29 2 1 0 0 0 0 0 0 0 0
0 0 0 0 0 0 0 0 0 0 0 0 0 0 0 0 0 37 118 317 219 618 376 180 54 0 0 0 0 7 9 6 20 0 103 166 156 145 10 0 0 0 0 0 0 0 0 0 0
0 0 0 0 0 0 0 0 0 0 0 0 0 0 0 0 0 201 536 450 254 98 173 121 132 2 0 0 0 4 0 1 4 0 96 127 91 99 18 0 0 0 0 0 0 0 0 0 0
0 0 0 0 0 0 0 0 0 0 0 0 0 0 0 0 0 356 623 592 129 71 63 126 158 74 5 14 0 9 0 1 9 77 134 126 155 90 26 0 0 0 0 0 0 0 0 0 0
0 0 0 0 0 0 0 0 0 0 0 0 0 0 0 0 0 20 531 434 11 0 0 22 118 21 9 45 15 37 0 0 33 37 117 100 167 94 56 13 0 0 0 0 0 0 0 0 0
0 0 0 0 0 0 0 0 0 0 0 0 0 0 0 0 0 120 138 0 0 0 0 0 0 6 2 0 7 10 7 7 50 48 99 82 84 26 31 32 6 9 0 0 0 0 0 0 0
0 0 0 0 0 0 0 0 0 0 0 0 0 0 0 0 4 12 0 0 0 0 0 0 0 0 0 0 0 0 21 37 0 0 53 23 33 1 0 22 20 14 6 37 0 0 0 0 0
0 0 0 0 0 0 0 0 0 0 0 0 0 0 0 0 33 6 0 0 0 0 0 0 0 0 0 0 0 0 0 16 38 0 5 0 0 2 0 17 22 60 38 40 0 0 0 0 0
0 0 0 0 0 0 0 0 0 0 0 0 0 0 0 0 121 47 0 0 0 0 0 0 0 0 0 0 0 0 0 0 63 16 7 1 0 0 0 1 5 30 24 20 2 0 0 0 0
0 0 0 0 0 0 0 0 0 0 0 0 0 0 0 0 152 82 15 0 0 0 0 0 0 0 0 4 0 0 0 2 1 36 5 2 0 0 0 0 0 10 4 2 0 0 2 0 0
0 0 0 0 0 0 0 0 0 0 0 0 0 0 0 0 165 87 9 0 0 0 0 0 0 0 1 3 0 5 4 3 4 0 1 0 0 0 0 0 0 0 1 0 0 0 1 1 1
0 0 0 0 0 0 0 0 0 0 0 0 0 0 0 0 80 69 27 0 0 0 0 0 0 0 0 2 0 0 0 0 3 25 2 2 0 0 0 0 0 0 0 0 0 4 35 2 1
0 0 0 0 0 0 0 0 0 0 0 0 0 0 0 0 105 103 36 0 0 0 0 0 2 0 0 3 0 0 0 1 0 5 0 1 1 0 0 0 0 0 3 2 1 19 33 24 11
0 0 0 0 0 0 0 0 0 0 0 0 0 0 0 0 130 70 47 0 0 0 0 0 0 0 0 0 1 0 0 0 0 0 0 1 1 1 0 0 0 0 2 9 0 9 27 36 38
0 0 0 0 0 0 0 0 0 0 0 1 0 0 0 241 153 80 15 0 0 0 0 0 0 0 1 2 1 0 0 0 1 0 0 0 0 1 0 0 0 1 2 4 11 20 31 44 27
0 0 0 8 0 0 0 0 0 26 0 0 0 0 0 83 163 107 1 0 0 0 0 0 0 0 2 2 0 0 0 0 0 0 0 0 0 1 0 0 0 0 0 2 0 21 12 38 29
0 0 0 8 17 2 0 0 0 0 0 0 0 0 0 32 65 108 12 0 0 0 0 0 0 0 1 1 0 0 0 0 0 0 0 0 0 0 0 0 0 0 0 5 9 6 7 5 16
0 0 0 0 21 1 0 0 61 21 8 0 0 0 0 0 96 213 53 3 0 0 0 0 0 0 1 1 0 0 0 0 0 0 0 0 0 0 3 1 1 5 0 3 1 0 1 7 7
5 0 16 0 0 0 0 0 0 1 0 0 0 0 0 0 18 198 131 36 0 0 0 0 0 0 0 1 0 0 0 0 0 0 0 0 0 0 0 0 0 0 0 0 0 0 0 0 0

GFSSGP_con_sbcape_108.txt.gz
CAPE
0 0 0 0 0 0 0 0 0 0 0 0 0 0 0 0 0 0 185 1362 1318 1596 1627 1582 1687 1868 1892 1911 1864 1973 2159 2208 2023 1855 1686 1592 1520 1402 1335 1349 1389 1397 1274 654 468 530 642 524 519
0 0 0 0 0 0 0 0 0 0 0 0 0 0 0 0 543 875 916 1523 1418 1679 1718 1618 1654 1857 2001 2006 2009 2137 2248 2248 2037 1894 1735 1625 1536 1513 1518 1358 1215 1262 1170 741 795 486 362 370 417
0 0 0 0 0 0 0 0 0 0 0 0 0 0 0 0 617 904 554 1488 1556 1591 1893 1728 1620 1782 1988 2095 2086 2151 2246 2136 2017 1897 1835 1721 1703 1650 1506 1247 1077 1111 1062 631 621 420 175 258 140
0 0 0 0 0 0 0 0 0 0 0 0 0 0 0 87 568 526 814 1115 1561 1342 1652 1856 1548 1681 1952 2176 2220 2207 2231 2007 1915 1927 1855 1917 1889 1764 1487 1254 1169 1095 954 600 406 307 414 299 245
0 0 0 0 0 0 0 0 0 0 0 0 0 0 0 17 207 502 671 254 584 1229 1410 1615 1602 1688 1973 2273 2296 2179 2127 1951 1887 1783 1289 883 1351 1549 1335 1184 1071 933 850 692 593 527 330 129 28
0 0 0 0 0 0 0 0 0 0 0 0 0 0 0 112 348 272 137 69 544 1106 1131 1267 1500 1861 2026 2166 2147 2061 1826 1861 1588 1052 593 465 856 1234 1147 1105 992 774 657 466 439 241 52 2 0
0 0 0 0 0 0 0 0 0 0 0 0 0 0 42 109 145 141 71 137 1186 1130 899 1024 1283 1522 1757 2168 2128 1851 1722 1371 1054 559 334 653 594 539 826 878 901 698 483 396 292 99 31 4 0
0 0 0 0 0 0 0 0 0 0 0 0 0 0 102 122 162 121 318 522 860 926 811 583 379 400 403 972 864 1151 1567 1025 710 230 145 90 34 173 577 632 725 568 390 283 189 67 15 0 0
0 0 0 0 0 0 0 0 0 0 0 0 0 0 0 124 236 262 423 401 538 415 330 335 198 0 0 0 16 157 161 546 341 214 57 35 3 129 576 445 354 318 205 178 146 54 22 1 0
0 0 0 0 0 0 0 0 0 0 0 0 0 0 336 407 320 388 416 468 412 456 182 164 32 0 0 0 0 0 0 95 250 114 102 139 39 164 284 235 173 166 141 121 86 26 0 0 0
0 0 0 0 0 0 0 0 0 0 0 0 0 0 410 405 353 298 305 385 449 385 230 153 35 0 0 0 0 1 1 0 42 38 124 168 140 156 180 145 74 41 53 1 4 0 0 0 0
0 0 0 0 0 0 0 0 0 0 0 0 0 0 332 421 269 258 231 221 391 403 254 162 75 0 0 0 0 1 1 1 12 27 35 63 102 82 142 85 4 0 0 0 0 0 0 0 0
0 0 0 0 0 0 0 0 0 0 0 0 0 0 43 256 224 144 69 0 301 473 207 56 0 0 0 0 0 0 1 1 2 3 2 7 105 92 67 12 0 0 0 0 0 0 0 0 0
0 0 0 0 0 0 0 0 0 0 0 0 0 0 0 0 43 2 7 52 492 373 160 0 0 0 0 0 0 0 1 2 6 7 1 0 75 91 28 0 0 0 0 0 0 0 0 0 0
0 0 0 0 0 0 0 0 0 0 0 0 0 0 0 0 0 0 120 105 306 333 72 0 0 0 0 0 0 1 0 1 13 14 3 11 73 58 0 0 0 0 0 0 0 0 0 0 0
0 0 0 0 0 0 0 0 0 0 0 0 0 0 0 0 0 30 224 68 13 67 5 0 53 1 0 0 0 2 0 0 18 7 81 76 50 62 0 0 0 0 0 0 0 0 0 0 0
0 0 0 0 0 0 0 0 0 0 0 0 0 0 0 0 0 21 244 33 2 18 0 0 1 0 0 3 0 1 0 0 34 0 80 110 103 42 0 0 0 0 0 0 0 0 0 0 0
0 0 0 0 0 0 0 0 0 0 0 0 0 0 0 0 0 8 70 0 3 0 0 0 0 0 0 0 2 2 1 1 31 66 42 107 108 42 0 0 0 0 0 0 0 0 0 0 0
0 0 0 0 0 0 0 0 0 0 0 0 0 0 0 0 0 60 6 0 0 0 0 0 0 0 0 0 0 2 3 2 1 16 35 68 58 43 9 0 0 0 0 0 0 0 0 0 0
0 0 0 0 0 0 0 0 0 0 0 0 0 0 0 0 38 40 14 1 1 0 0 0 0 0 0 0 0 0 0 3 1 1 32 60 27 6 9 0 0 0 0 1 0 0 0 0 0
0 0 0 0 0 0 0 0 0 0 0 0 0 0 0 0 87 52 29 0 0 0 0 0 0 0 0 0 0 0 0 1 12 2 2 19 2 0 1 3 0 1 0 1 0 0 0 0 0
0 0 0 0 0 0 0 0 0 0 0 0 0 0 0 0 119 112 29 0 0 0 0 0 0 0 0 0 0 0 0 0 0 27 4 34 0 0 3 3 0 10 6 6 0 0 0 0 0
0 0 0 0 0 0 0 0 0 0 0 0 0 0 0 0 148 207 31 2 0 0 0 0 0 0 0 0 0 0 0 0 0 0 10 12 1 0 0 0 0 9 3 2 0 0 0 0 0
0 0 0 0 0 0 0 0 0 0 0 0 0 0 0 0 67 235 119 0 0 0 0 0 0 0 0 0 0 0 0 6 3 7 2 5 5 1 0 0 0 1 0 0 0 0 0 0 0
0 0 0 0 0 0 0 0 0 0 0 0 0 0 0 0 0 122 3 0 0 0 0 0 0 0 0 0 1 1 1 2 1 7 7 6 4 2 0 0 0 0 0 0 0 0 0 0 0
0 0 0 0 0 0 0 0 0 0 0 0 0 0 0 0 0 112 53 8 0 0 0 0 0 0 0 0 0 0 0 0 0 0 0 1 1 1 0 0 0 0 0 0 0 0 0 0 7
0 0 0 0 0 4 0 0 0 0 0 0 0 0 0 206 111 183 77 8 0 0 0 0 0 0 0 0 2 0 0 0 0 0 0 0 0 1 1 0 1 0 0 0 0 0 0 0 4
3 0 0 0 6 0 0 0 0 0 0 0 0 0 0 13 232 202 102 26 0 0 0 0 0 0 0 0 1 0 0 0 0 0 0 1 1 1 1 1 0 1 3 3 0 0 0 2 4
2 10 13 0 26 4 0 0 63 23 6 0 0 1 0 0 1 155 69 53 0 0 0 0 0 0 0 0 1 0 0 0 0 0 0 0 0 1 1 1 1 6 4 1 2 1 0 2 1
6 6 12 16 0 0 3 0 0 144 109 0 7 0 0 0 0 3 58 62 0 0 0 0 0 0 0 1 0 0 0 0 0 0 0 0 0 0 0 0 0 0 1 0 0 0 1 1 0

GFSSGP_con_sbcape_111.txt.gz
CAPE
0 0 0 0 0 0 0 0 0 0 0 0 0 0 0 0 0 0 0 261 1021 1305 1296 1452 1718 1781 1780 1770 1959 1978 2063 2049 1952 1998 1945 1907 1863 1772 1717 1778 1729 1700 1285 1134 1051 1155 1162 890 776
0 0 0 0 0 0 0 0 0 0 0 0 0 0 0 0 242 338 621 1132 1201 1347 1312 1423 1646 1786 1921 1878 2019 2127 2164 2077 2002 1975 1937 1892 1853 1786 1785 1748 1642 1582 1462 1011 1186 1216 991 706 747
0 0 0 0 0 0 0 0 0 0 0 0 0 0 0 0 421 644 504 1351 1245 1511 1379 1393 1580 1736 1956 1982 2113 2191 2165 2045 1964 1906 1937 1859 1832 1857 1870 1654 1470 1386 1265 810 841 904 826 756 434
0 0 0 0 0 0 0 0 0 0 0 0 0 0 0 0 328 714 476 1435 1265 1530 1569 1402 1436 1687 1938 2048 2155 2271 2142 1991 1875 1822 1850 1890 1939 1876 1767 1503 1438 1375 976 860 896 690 692 424 327
0 0 0 0 0 0 0 0 0 0 0 0 0 0 0 0 134 365 1010 1581 1303 1230 1560 1381 1251 1618 1988 2203 2201 2225 2069 1931 1830 1780 1740 1671 1720 1401 1338 1372 1350 1203 1225 1250 907 626 417 457 178
0 0 0 0 0 0 0 0 0 0 0 0 0 0 0 4 235 604 641 1461 1140 995 1065 1407 1267 1533 1875 2112 2084 2067 1959 1837 1693 1423 1535 1423 1001 918 865 1309 1238 1029 957 779 622 500 427 120 1
0 0 0 0 0 0 0 0 0 0 0 0 0 0 0 141 115 323 149 54 758 848 935 1159 1374 1533 1733 1980 1952 1831 1750 1628 1434 908 691 768 474 515 758 949 826 950 735 674 541 278 52 3 0
0 0 0 0 0 0 0 0 0 0 0 0 0 1 2 97 26 2 114 549 771 605 695 730 978 1286 1499 1708 1772 1749 1471 1464 890 314 160 353 375 323 424 541 744 781 592 571 333 75 5 0 0
0 0 0 0 0 0 0 0 0 0 0 0 0 0 0 24 112 200 420 593 715 568 441 344 408 559 646 899 1051 1258 1476 441 473 198 299 261 231 236 215 503 650 684 482 370 158 33 4 0 0
0 0 0 0 0 0 0 0 0 0 0 0 0 0 147 238 192 337 506 594 534 521 221 178 15 7 0 1 67 155 408 517 351 112 222 62 6 18 112 361 483 354 311 244 82 18 2 1 0
0 0 0 0 0 0 0 0 0 0 0 0 0 0 111 274 287 379 436 477 522 450 92 4 0 0 0 0 0 0 0 34 150 40 33 33 9 33 265 245 266 164 157 71 8 2 0 0 0
0 0 0 0 0 0 0 0 0 0 0 0 0 0 54 285 352 365 330 272 211 138 125 0 0 0 0 0 0 1 0 0 57 71 18 33 19 108 61 108 95 56 12 0 0 0 0 0 0
0 0 0 0 0 0 0 0 0 0 0 0 0 0 0 224 308 364 320 200 79 258 96 9 0 0 0 0 0 0 0 0 2 1 49 83 43 48 53 131 66 0 0 0 0 0 0 0 0
0 0 0 0 0 0 0 0 0 0 0 0 0 0 0 27 237 263 202 84 50 204 140 42 0 0 0 0 0 0 0 0 0 10 30 145 56 61 121 65 18 0 0 0 0 0 0 0 0
0 0 0 0 0 0 0 0 0 0 0 0 0 0 0 0 0 138 207 169 61 227 138 71 11 0 0 0 0 0 1 2 1 1 8 27 42 50 78 32 0 0 0 0 0 0 0 0 0
0 0 0 0 0 0 0 0 0 0 0 0 0 0 0 0 0 0 52 135 85 259 137 69 31 0 0 0 0 0 0 1 2 4 5 4 24 72 8 0 0 0 0 0 0 0 0 0 0
0 0 0 0 0 0 0 0 0 0 0 0 0 0 0 0 0 0 0 99 247 288 70 42 14 0 0 0 0 1 0 0 3 3 7 9 41 0 2 0 0 0 0 0 0 0 0 0 0
0 0 0 0 0 0 0 0 0 0 0 0 0 0 0 0 0 0 0 177 210 173 26 20 4 0 0 1 1 1 0 1 1 14 8 10 41 1 0 0 0 0 0 0 0 0 0 0 0
0 0 0 0 0 0 0 0 0 0 0 0 0 0 0 0 0 0 109 62 85 22 17 11 0 0 0 0 1 1 1 4 5 12 12 29 42 2 0 0 0 0 0 0 0 0 0 0 0
0 0 0 0 0 0 0 0 0 0 0 0 0 0 0 0 0 10 50 24 68 15 18 0 0 0 0 0 0 0 0 3 5 25 58 55 61 7 0 0 0 0 0 0 0 0 0 0 0
0 0 0 0 0 0 0 0 0 0 0 0 0 0 0 0 0 3 100 2 47 0 1 0 0 0 0 0 0 0 0 1 1 1 15 65 74 17 1 0 0 0 0 0 0 0 0 0 0
0 0 0 0 0 0 0 0 0 0 0 0 0 0 0 0 0 11 179 1 4 0 0 0 0 0 0 0 0 0 0 1 1 0 13 38 50 60 22 0 0 0 0 0 0 0 0 0 0
0 0 0 0 0 0 0 0 0 0 0 0 0 0 0 0 0 8 161 71 12 0 0 0 0 0 0 0 0 0 0 0 0 4 1 35 29 51 32 7 0 0 0 0 0 0 0 0 0
0 0 0 0 0 0 0 0 0 0 0 0 0 0 0 0 0 0 62 23 0 0 0 0 0 0 0 0 0 0 0 0 0 0 1 14 39 22 15 15 0 0 0 4 2 0 0 0 0
0 0 0 0 0 0 0 0 0 0 0 0 0 0 0 0 0 0 31 32 0 0 0 0 0 0 0 0 0 0 0 0 0 0 0 1 6 8 4 0 0 7 1 0 1 0 0 0 0
0 0 0 0 0 0 0 0 0 0 0 0 0 0 0 0 0 0 38 42 0 0 0 0 0 0 1 1 2 0 0 0 3 0 0 0 0 9 0 0 0 0 0 0 0 0 1 1 0
0 0 0 0 0 0 0 0 0 0 0 0 0 0 0 0 0 0 88 40 9 0 0 0 0 1 0 0 0 2 0 0 1 0 0 1 5 1 1 0 0 0 0 0 0 0 1 5 0
0 0 0 0 0 0 0 0 0 0 0 0 0 5 0 0 0 0 146 33 0 0 0 0 0 0 0 1 0 0 0 0 0 0 0 1 1 1 1 1 0 0 0 0 0 0 1 1 0
0 0 0 0 0 0 0 0 0 43 26 0 0 0 0 0 0 0 2 25 3 0 0 0 0 0 0 1 1 0 0 0 0 0 0 0 1 2 2 1 1 0 0 0 0 0 1 0 0
0 0 0 5 0 0 0 0 0 0 83 2 0 0 0 0 0 0 0 0 0 0 2 0 0 0 0 0 2 0 0 0 0 0 0 0 1 0 0 1 2 1 1 0 1 1 0 0 0

GFSSGP_con_sbcape_114.txt.gz
CAPE
0 0 0 0 0 0 0 0 0 0 0 0 0 0 0 0 0 0 0 604 868 954 984 1287 1418 1529 1585 1743 1823 1638 1703 1888 2266 2191 2088 2002 1986 1980 2053 2006 1953 1885 1700 1270 1495 1665 1472 1273 1111
0 0 0 0 0 0 0 0 0 0 0 0 0 0 0 0 50 116 190 435 1082 1100 1121 1279 1508 1611 1720 1809 1897 2035 1876 1762 1799 2074 2182 2117 2047 2023 2096 2052 1869 1804 1814 1374 1541 1495 1326 1172 1076
0 0 0 0 0 0 0 0 0 0 0 0 0 0 0 0 267 371 262 808 1209 1272 1183 1285 1595 1606 1735 1894 1937 2094 1954 1668 1699 1915 2254 2198 2096 2020 1949 1722 1696 1820 1865 1583 1571 1457 1234 1043 726
0 0 0 0 0 0 0 0 0 0 0 0 0 0 0 0 90 506 351 1285 1307 1332 1233 1275 1481 1618 1785 1964 2056 2059 2045 1932 1885 1956 1893 2175 2139 2059 1916 1758 1705 1701 1594 1418 1516 1387 1035 680 433
0 0 0 0 0 0 0 0 0 0 0 0 0 0 0 0 100 396 873 1386 1331 1360 1261 1171 1368 1622 1873 2098 2147 2043 1880 1800 1787 1753 1283 1576 1408 1748 1674 1496 1311 1488 1356 1324 1236 1157 768 503 271
0 0 0 0 0 0 0 0 0 0 0 0 0 0 0 0 162 368 1042 1375 1136 1279 1325 1195 1296 1588 1842 1992 2066 1965 1852 1683 1621 1478 1415 1265 891 1071 993 1217 1191 1340 1206 1036 1102 818 658 395 159
0 0 0 0 0 0 0 0 0 0 0 0 0 0 0 0 2 338 300 891 872 928 1121 1158 1204 1533 1759 1842 1896 1768 1705 1592 1562 1306 1013 893 802 754 776 782 932 1015 919 961 788 635 225 275 80
0 0 0 0 0 0 0 0 0 0 0 0 0 0 0 0 0 14 117 486 836 752 817 1098 1120 1320 1534 1683 1678 1539 1488 1441 1274 1030 942 675 273 272 684 550 650 898 939 818 725 254 99 144 14
0 0 0 0 0 0 0 0 0 0 0 0 0 0 0 0 0 118 193 387 707 596 617 653 917 1027 1247 1517 1492 1472 1346 1245 892 786 558 117 31 76 385 419 570 707 612 599 401 119 40 43 8
0 0 0 0 0 0 0 0 0 0 0 0 0 0 0 0 6 208 267 308 614 738 470 401 601 771 792 998 1011 1544 1552 1186 641 243 220 130 96 106 127 210 363 426 431 352 208 38 21 10 0
0 0 0 0 0 0 0 0 0 0 0 0 0 0 0 0 2 80 151 168 493 795 524 162 164 113 125 336 508 266 427 878 491 89 65 132 75 103 70 153 213 205 243 99 25 0 0 0 0
0 0 0 0 0 0 0 0 0 0 0 0 0 0 0 2 11 60 109 194 246 329 404 138 4 0 0 0 1 0 0 122 598 190 65 21 0 15 89 204 204 158 76 16 0 0 0 0 0
0 0 0 0 0 0 0 0 0 0 0 0 0 0 0 0 5 33 63 88 140 165 125 55 13 0 0 0 0 0 0 1 136 169 69 18 1 4 76 123 101 72 41 36 0 0 0 0 0
0 0 0 0 0 0 0 0 0 0 0 0 0 0 0 0 0 25 38 84 7 98 83 36 43 0 0 0 0 1 0 0 1 34 28 16 11 27 23 54 49 1 1 5 0 0 0 0 0
0 0 0 0 0 0 0 0 0 0 0 0 0 0 0 0 0 0 0 1 67 86 74 64 6 0 0 0 0 1 0 1 2 3 34 20 16 14 11 72 31 0 0 0 0 0 0 0 0
0 0 0 0 0 0 0 0 0 0 0 0 0 0 0 0 0 0 0 0 0 28 91 97 116 0 0 0 0 0 1 0 0 2 3 65 46 13 41 75 0 0 0 0 0 0 0 0 0
0 0 0 0 0 0 0 0 0 0 0 0 0 0 0 0 0 0 0 0 0 0 117 145 124 0 0 0 0 0 0 2 1 1 0 1 69 29 47 59 1 0 0 0 0 0 0 0 0
0 0 0 0 0 0 0 0 0 0 0 0 0 0 0 0 0 0 0 0 0 18 149 146 97 2 0 0 0 4 1 0 1 5 3 2 5 14 33 0 0 0 0 0 0 0 0 0 0
0 0 0 0 0 0 0 0 0 0 0 0 0 0 0 0 0 0 0 0 0 82 130 113 51 0 0 4 9 2 1 1 8 1 1 1 7 3 0 0 0 0 0 0 0 0 0 0 0
0 0 0 0 0 0 0 0 0 0 0 0 0 0 0 0 0 0 0 0 0 113 136 64 33 0 5 12 0 0 0 3 2 1 2 3 13 1 0 0 0 0 0 0 0 0 0 0 0
0 0 0 0 0 0 0 0 0 0 0 0 0 0 0 0 0 0 0 0 0 88 99 54 0 0 0 0 0 0 0 1 1 10 5 15 2 0 0 0 0 0 0 0 0 0 0 0 0
0 0 0 0 0 0 0 0 0 0 0 0 0 0 0 0 0 0 0 0 0 19 2 4 0 0 0 0 0 0 0 0 1 3 10 8 9 2 0 0 0 0 0 0 0 0 0 0 0
0 0 0 0 0 0 0 0 0 0 0 0 0 0 0 0 0 0 0 0 0 0 0 0 0 0 0 0 0 0 0 0 1 3 0 18 22 4 1 0 0 0 0 0 0 0 0 0 0
0 0 0 0 0 0 0 0 0 0 0 0 0 0 0 0 0 0 0 0 0 0 0 0 0 1 0 0 0 0 0 0 2 1 6 5 24 38 12 0 0 0 0 0 0 0 0 0 0
0 0 0 0 0 0 0 0 0 0 0 0 0 0 0 0 0 0 0 0 0 1 0 0 0 1 0 0 0 0 0 0 0 1 3 7 18 8 22 2 0 0 0 0 0 0 0 0 0
0 0 0 0 0 0 0 0 0 0 0 0 0 0 0 0 0 0 0 0 0 0 0 0 0 0 0 0 0 0 0 0 0 0 0 1 4 10 15 25 1 0 0 0 0 0 0 0 0
0 0 0 0 0 0 0 0 0 0 0 0 0 0 0 0 0 0 0 0 0 0 0 0 0 0 0 0 0 0 0 0 0 0 0 0 0 0 3 12 7 1 0 0 0 0 0 0 0
0 0 0 0 0 0 0 0 0 0 0 0 0 0 0 0 0 0 0 0 0 0 0 1 0 0 0 0 0 0 0 0 0 0 1 1 3 1 1 0 11 1 1 0 0 0 0 0 0
0 0 0 0 0 0 0 0 0 0 1 2 0 0 0 0 0 0 0 0 0 0 0 1 0 0 0 0 0 0 0 0 0 0 0 0 0 0 1 1 2 1 0 0 0 1 1 0 1
0 0 0 0 0 0 0 0 0 0 0 0 6 0 0 0 0 0 0 0 0 0 1 1 1 0 1 0 1 4 1 0 0 0 0 0 0 0 0 1 1 1 1 1 1 1 1 0 1

GFSSGP_con_sbcape_117.txt.gz
CAPE
0 0 0 0 0 0 0 0 0 0 0 0 0 0 0 0 0 0 10 531 1149 1463 1480 1459 1085 1233 1317 1770 1705 1525 1926 2375 2309 2234 2158 2065 2013 2057 2115 2018 1853 1889 2012 1792 1728 1948 1556 1295 1325
0 0 0 0 0 0 0 0 0 0 0 0 0 0 0 0 0 52 195 1081 1399 1465 1495 1514 1215 1319 1422 1870 1721 1603 1825 2227 2395 2331 2234 2132 2122 2162 2215 2153 1928 1890 1918 1886 1674 1482 1507 1301 1209
0 0 0 0 0 0 0 0 0 0 0 0 0 0 0 0 35 222 196 1136 1591 1480 1428 1572 1376 1455 1710 1890 1997 1721 1881 2061 2276 2227 2256 2215 2215 2230 2164 1989 1914 1818 1914 1918 1673 1511 1444 1308 1002
0 0 0 0 0 0 0 0 0 0 0 0 0 0 0 0 101 609 329 1141 1764 1664 1563 1320 1461 1499 1665 1939 2150 1725 1743 1778 1846 2127 2229 2293 1991 1455 1213 1210 1517 1408 1581 1951 1605 1500 1272 922 671
0 0 0 0 0 0 0 0 0 0 0 0 0 0 0 0 25 381 856 1394 1788 1862 1695 1648 1451 1553 1819 2080 2163 2019 1631 1605 1819 2168 2005 2049 1390 899 1161 859 1412 1484 1425 1493 1493 1169 1011 705 449
0 0 0 0 0 0 0 0 0 0 0 0 0 0 0 0 81 551 1195 1701 1794 1929 1740 1868 1314 1632 1731 2002 2008 1960 1842 1558 1830 1979 1782 1619 1299 1127 954 1096 1146 1245 1490 1253 1044 1013 863 565 309
0 0 0 0 0 0 0 0 0 0 0 0 0 0 0 0 0 530 1387 1739 1791 1955 1851 1853 1748 1714 1664 1823 1899 1719 1726 1733 1630 1628 1199 1357 1003 819 971 961 1027 1048 992 1042 857 861 689 446 172
0 0 0 0 0 0 0 0 0 0 0 0 0 0 0 0 25 279 714 1685 1791 1872 2062 1769 1576 1467 2202 2002 1713 1655 1557 1452 1480 1267 1094 794 677 767 911 863 991 951 899 878 912 669 538 271 26
0 0 0 0 0 0 0 0 0 0 0 0 0 0 0 0 38 328 686 1188 1775 1640 1817 1780 1307 1390 1475 1925 1873 1516 1491 1321 1253 1043 695 584 856 920 631 326 586 795 754 755 518 428 268 63 0
0 0 0 0 0 0 0 0 0 0 0 0 0 0 0 0 32 238 678 1069 1456 1868 1663 1553 1228 1330 1385 1510 1706 2095 1562 2176 2013 1653 1195 1303 782 626 473 296 464 743 569 455 266 179 138 39 31
0 0 0 0 0 0 0 0 0 0 0 0 0 0 0 0 0 114 463 817 1083 1303 1649 1443 1082 1177 1191 1328 1540 1985 1854 1793 1625 1675 1531 997 361 314 652 613 851 922 506 335 201 110 251 151 81
0 0 0 0 0 0 0 0 0 0 0 0 0 0 0 0 0 2 263 528 608 749 1175 1352 1325 983 1017 1099 1345 1495 1731 1370 1101 875 1004 613 391 558 451 771 846 787 536 326 180 159 103 139 64
0 0 0 0 0 0 0 0 0 0 0 0 0 0 0 0 0 0 82 238 309 528 873 1186 1229 1306 948 686 755 782 920 968 978 489 137 216 398 504 87 174 323 384 241 266 103 46 0 23 0
0 0 0 0 0 0 0 0 0 0 0 0 0 0 0 0 0 0 4 101 272 435 655 878 1154 1203 1113 1050 670 399 252 291 520 428 124 174 271 353 200 120 183 217 115 149 37 13 0 0 1
0 0 0 0 0 0 0 0 0 0 0 0 0 0 0 0 0 0 0 0 0 17 258 616 825 1116 904 806 567 156 61 108 555 745 164 87 55 20 119 57 77 80 28 0 3 10 0 0 0
0 0 0 0 0 0 0 0 0 0 0 0 0 0 0 0 0 0 0 0 0 0 0 264 416 798 894 681 398 11 12 10 46 102 163 111 120 35 37 66 45 2 0 0 0 4 0 0 0
0 0 0 0 0 0 0 0 0 0 0 0 0 0 0 0 0 0 0 0 0 0 0 34 456 692 799 623 280 11 7 4 4 7 47 118 74 87 94 52 10 0 0 0 0 0 0 0 0
0 0 0 0 0 0 0 0 0 0 0 0 0 0 0 0 0 0 0 0 0 0 0 14 563 573 623 485 150 7 7 5 5 8 8 9 38 41 64 70 1 0 0 0 0 0 0 0 0
0 0 0 0 0 0 0 0 0 0 0 0 0 0 0 0 0 0 0 0 0 0 0 182 489 522 456 212 63 5 5 5 7 15 10 16 8 39 65 5 1 0 0 1 2 0 0 0 0
0 0 0 0 0 0 0 0 0 0 0 0 0 0 0 0 0 0 0 0 0 0 114 289 482 293 562 407 234 127 10 8 2 8 12 10 10 4 24 20 0 0 0 0 0 0 0 0 0
0 0 0 0 0 0 0 0 0 0 0 0 0 0 0 0 0 0 0 0 0 0 83 300 423 196 525 485 260 159 23 26 67 22 9 4 1 10 1 1 0 0 0 0 0 0 0 0 1
0 0 0 0 0 0 0 0 0 0 0 0 0 0 0 0 0 0 0 0 0 0 124 337 301 221 258 318 249 137 56 5 27 47 4 10 3 1 1 1 1 0 0 0 0 0 0 0 0
0 0 0 0 0 0 0 0 0 0 0 0 0 0 0 0 0 0 0 0 0 0 85 291 265 122 16 66 148 222 4 3 154 89 10 36 28 3 3 1 1 0 0 0 0 0 0 2 1
0 0 0 0 0 0 0 0 0 0 0 0 0 0 0 0 0 0 0 0 0 3 13 98 194 17 0 14 50 94 10 4 77 84 32 65 24 5 6 1 1 0 0 0 0 0 0 0 0
0 0 0 0 0 0 0 0 0 0 0 0 0 0 0 0 0 0 0 0 0 0 1 1 35 2 3 1 1 0 12 73 77 49 108 11 49 41 5 5 2 0 0 0 0 0 0 0 0
0 0 0 0 0 0 0 0 0 0 0 0 0 0 0 0 0 0 0 0 0 0 2 1 2 2 2 1 2 9 48 54 99 71 91 40 10 14 15 5 4 1 0 0 0 0 0 0 0
0 0 0 0 0 0 0 0 0 0 0 0 0 0 0 0 0 0 0 0 0 0 0 0 7 7 4 4 7 7 2 0 0 0 1 53 34 70 15 3 5 7 0 0 0 0 0 0 0
0 0 1 0 2 0 0 0 0 0 0 0 0 0 0 0 0 0 0 0 0 0 0 0 2 9 4 2 9 7 11 2 0 0 0 0 0 0 14 29 6 1 0 0 0 0 0 0 0
0 0 2 6 11 2 0 0 0 0 0 0 0 0 0 0 0 0 0 0 0 1 5 2 4 11 5 10 17 7 8 3 3 5 10 28 23 32 29 16 6 3 1 0 0 0 0 0 0
0 0 0 33 11 5 1 0 0 0 0 0 0 0 0 0 0 0 0 0 0 0 19 4 3 2 2 10 8 3 10 0 0 5 8 22 19 17 13 4 1 6 3 2 0 1 0 0 0

GFSSGP_con_sbcape_123.txt.gz
CAPE
0 0 0 0 0 0 0 0 0 0 0 0 0 0 0 0 0 0 0 357 203 408 1324 1539 1418 1668 1751 1792 1908 2223 2305 2286 2250 2253 2236 2081 2052 2300 2276 2264 1857 1779 1708 1692 1639 1581 1541 1508 1397
0 0 0 0 0 0 0 0 0 0 0 0 0 0 0 0 0 0 4 975 364 443 1303 1653 1364 1688 1900 2042 2098 2409 2506 2460 2352 2347 2198 2249 2282 2341 2269 2216 1799 1385 1510 1715 1618 1528 1355 1549 1437
0 0 0 0 0 0 0 0 0 0 0 0 0 0 0 0 0 0 17 831 399 426 896 1929 1315 1443 1904 2063 2057 2366 2502 2452 2386 2285 2224 2210 1998 2300 2294 1488 1090 1121 1361 1622 1632 1453 1574 1289 1238
0 0 0 0 0 0 0 0 0 0 0 0 0 0 0 0 0 0 5 456 366 404 634 1072 1261 1373 1871 2032 2060 2172 2421 2341 2174 2177 2348 2432 2387 2282 1536 521 560 299 326 912 1284 1159 1396 1107 973
0 0 0 0 0 0 0 0 0 0 0 0 0 0 0 0 0 0 6 365 363 526 1143 2121 1233 1451 1910 2220 2145 2003 2217 2300 2156 2318 2361 2329 2106 1886 1107 107 53 179 9 499 868 1192 1196 915 763
0 0 0 0 0 0 0 0 0 0 0 0 0 0 0 0 0 15 65 390 758 1079 1467 2598 1333 1475 1873 2230 2159 1875 1990 2119 2259 2270 2321 2151 2036 1368 134 579 630 603 742 788 1026 1063 994 775 621
0 0 0 0 0 0 0 0 0 0 0 0 0 0 0 0 0 146 376 517 1305 1875 2280 2557 2184 1805 1647 1989 2085 1781 1856 1892 2128 2146 2171 2006 1195 590 706 872 830 841 875 999 1146 830 636 586 433
0 0 0 0 0 0 0 0 0 0 0 0 0 0 0 0 0 96 810 990 1744 2389 2869 2704 2578 2351 2297 2319 1966 1707 1565 1632 1819 2033 1826 1354 963 676 934 875 863 1127 1297 1087 996 561 364 270 215
0 0 0 0 0 0 0 0 0 0 0 0 0 0 0 0 0 1 667 1366 1931 2412 2926 2851 2913 2665 2723 2524 2248 1680 1483 1427 1441 1759 1188 987 1762 1245 1086 788 968 1251 1077 1002 770 426 236 125 101
0 0 0 0 0 0 0 0 0 0 0 0 0 0 0 0 0 0 0 167 1471 2026 2590 2907 3050 2877 2841 2250 2580 2403 2443 2154 2189 2398 2466 2431 2121 1762 1186 799 752 1004 874 763 489 238 78 145 252
0 0 0 0 0 0 0 0 0 0 0 0 0 0 0 0 0 0 0 0 16 1039 2024 2555 2989 3148 2880 2643 2572 2424 2438 2334 2301 2510 2721 2747 1979 2117 1606 1585 858 1078 728 921 557 215 611 607 461
0 0 0 0 0 0 0 0 0 0 0 0 0 0 0 0 0 0 0 0 0 6 1277 2257 2714 3133 2916 2652 2387 2729 2616 2578 2634 2430 3162 2905 2369 2275 1544 1742 1333 901 944 1027 633 494 371 547 422
0 0 0 0 0 0 0 0 0 0 0 0 0 0 0 0 0 0 0 0 0 3 419 1718 2648 3002 2818 3010 2418 2628 2855 2557 2525 2733 3104 2972 2386 1959 1685 1657 943 817 1111 748 820 593 659 447 115
0 0 0 0 0 0 0 0 0 0 0 0 0 0 0 0 0 0 0 0 0 2 150 1078 1918 2712 2729 2813 2384 2532 3069 2753 2693 2887 2816 3239 2462 2303 1546 1461 1524 1050 1140 797 357 683 182 175 154
0 0 0 0 0 0 0 0 0 0 0 0 0 0 0 0 0 0 0 0 0 0 0 113 1002 1771 2801 2516 2241 2288 2629 2709 2824 2848 3278 3003 2689 2242 1789 1248 1444 999 570 180 165 574 109 122 130
0 0 0 0 0 0 0 0 0 0 0 0 0 0 0 0 0 0 0 0 0 0 0 0 0 820 2153 2756 2379 1942 2219 2399 2716 2690 2515 2718 2835 2192 1831 1336 1203 788 271 88 70 89 87 117 194
0 0 0 0 0 0 0 0 0 0 0 0 0 0 0 0 0 0 0 0 0 0 0 0 0 121 1399 2092 2521 2383 1759 1734 2035 2546 2234 1739 2232 2031 1651 1213 685 696 641 121 54 46 65 193 129
0 0 0 0 0 0 0 0 0 0 0 0 0 0 0 0 0 0 0 0 0 0 0 0 0 67 351 1550 2384 2548 2332 1794 1350 1820 2206 2160 2094 1833 1546 921 561 744 205 51 27 36 57 202 228
0 0 0 0 0 0 0 0 0 0 0 0 0 0 0 0 0 0 0 0 0 0 11 10 27 305 48 370 1322 2261 2441 1706 1112 1325 2161 1968 1496 1613 943 801 371 146 10 1 12 17 27 174 193
0 0 0 0 0 0 0 0 0 0 0 0 0 0 0 0 0 0 0 0 0 0 2 279 248 280 364 383 1043 1848 1919 565 537 828 1420 1454 1363 920 841 679 139 154 3 3 1 2 9 48 195
0 0 0 0 0 0 0 0 0 0 0 0 0 0 0 0 0 0 0 0 0 0 252 436 352 465 732 793 1187 1004 700 483 409 653 668 975 647 896 740 385 91 12 11 3 2 2 7 50 94
0 0 0 0 0 0 0 0 0 0 0 0 0 0 0 0 0 0 0 0 0 0 241 661 630 628 841 1043 1262 989 742 729 481 524 536 822 597 565 466 597 164 2 2 2 3 2 6 42 76
0 0 1 0 1 0 0 0 0 0 0 0 0 0 0 0 0 0 0 0 0 0 5 294 785 772 824 858 1074 910 904 1171 1184 1282 786 548 672 618 757 590 217 3 1 1 3 3 0 46 74
0 1 3 4 3 3 0 0 0 0 1 2 0 1 10 1 0 0 0 0 0 9 88 59 254 363 342 526 809 872 1022 1450 1415 1070 823 798 954 720 517 412 99 26 1 2 2 2 0 16 54
1 3 7 5 17 6 0 2 0 0 0 4 37 60 0 2 0 0 0 0 0 0 24 164 53 190 188 400 669 905 1204 1179 1409 837 708 979 270 72 57 37 7 5 2 2 2 1 4 13 36
41 20 9 17 30 17 0 2 0 0 70 101 127 43 18 11 2 0 0 0 0 0 0 36 148 129 74 314 342 435 1012 1053 1190 1000 908 888 369 57 10 6 3 5 1 1 2 2 3 13 13
40 46 0 13 2 9 2 15 87 98 56 42 56 35 29 4 0 0 0 0 0 0 0 0 151 197 86 77 253 216 421 1001 1161 768 690 726 617 160 15 8 5 2 1 0 1 2 4 12 28
58 35 32 8 43 32 21 0 81 55 11 27 2 0 0 0 0 0 0 0 0 0 0 0 1 148 197 111 140 117 169 629 814 791 981 813 653 296 17 10 7 2 1 1 1 2 1 13 32
7 57 33 43 41 40 33 3 8 88 0 0 0 0 0 0 0 0 0 0 0 0 0 0 4 4 41 53 131 98 124 486 698 685 800 784 695 343 191 5 5 3 1 1 1 1 0 2 26
43 43 26 245 34 35 76 38 14 67 0 0 0 0 0 0 0 0 0 0 4 3 0 1 2 3 1 18 29 93 22 365 323 438 391 549 365 370 106 3 6 3 3 2 2 1 0 0 17

GFSSGP_con_sbcape_126.txt.gz
CAPE
0 0 0 0 0 0 0 0 0 0 0 0 0 0 0 0 0 0 51 299 733 864 1227 1305 1462 1753 1853 1927 2055 2268 2157 2182 2186 2245 2259 2241 2242 2285 2305 2170 1955 1820 1782 1559 1601 1558 1484 1288 1283
0 0 0 0 0 0 0 0 0 0 0 0 0 0 0 0 0 0 216 311 693 1397 1328 1292 1377 1676 1912 1986 2089 2327 2354 2318 2247 2352 2310 2314 2238 2338 2334 2073 1638 1216 764 1251 1589 1670 1320 1361 1304
0 0 0 0 0 0 0 0 2 0 0 0 0 0 0 0 0 0 282 288 338 1114 1322 1435 1246 1496 1889 2002 2165 2350 2389 2291 2233 2304 2352 2412 2415 2175 2308 1698 1179 215 20 12 668 1293 1339 1132 1155
0 0 0 0 0 0 0 0 0 0 0 0 0 0 0 0 0 0 147 47 219 449 1961 931 1123 1402 1862 1969 2162 2386 2353 2242 2201 2172 2323 2457 2472 2162 1716 1124 884 172 48 168 371 456 928 1081 919
0 0 0 0 0 0 0 0 0 0 0 0 0 0 0 0 0 16 115 30 293 1049 1919 1294 1040 1335 1920 2054 2143 2110 2278 1938 2051 2072 2206 2344 2244 2204 958 897 652 45 1 14 207 662 602 973 795
0 0 0 0 0 0 0 0 0 0 0 0 0 0 0 0 0 0 294 336 1022 2557 2423 1566 1129 1274 1816 1973 1921 1923 2145 1897 1976 1826 2155 2131 2131 1499 270 293 518 206 101 410 801 993 964 795 719
0 0 0 0 0 0 0 0 0 0 0 0 0 0 0 0 13 441 356 895 2015 2576 2924 2004 1572 1438 1570 1811 1754 1729 1971 1665 2062 2060 2105 2024 1541 796 472 569 427 360 595 808 1011 959 717 674 564
0 0 0 0 0 0 0 0 0 0 0 0 0 0 0 0 2 392 633 1247 2409 3164 3271 2520 2121 1764 1841 1800 1681 1549 1658 1559 1684 2039 1972 1651 1002 420 421 798 851 949 944 866 1068 697 524 345 234
0 0 0 0 0 0 0 0 0 0 0 0 0 0 0 0 0 189 893 1368 2287 3174 3291 3070 2539 2162 2216 2099 1890 1236 1405 1488 1579 1814 1712 1143 1435 604 855 725 673 1000 981 1106 667 400 261 140 105
0 0 0 0 0 0 0 0 0 0 0 0 0 0 0 0 0 0 330 1117 1847 2619 3337 3335 2931 2616 2619 2206 2145 1989 1843 1709 1814 2020 1689 1958 1881 1413 942 833 560 1096 1070 902 511 260 104 119 144
0 0 0 0 0 0 0 0 0 0 0 0 0 0 0 0 0 0 0 36 1311 2215 2689 3056 3309 2978 2804 2091 2533 2051 2105 2015 2024 2189 2356 2060 2067 1769 1158 1212 808 1100 806 732 459 132 149 488 264
0 0 0 0 0 0 0 0 0 0 0 0 0 0 0 0 0 0 0 0 0 1160 2363 2793 3145 3130 2743 2574 2212 2206 2242 2154 2155 2056 2317 2283 2136 1845 1607 1078 1078 918 706 750 487 195 327 361 290
0 0 0 0 0 0 0 0 0 0 0 0 0 0 0 0 0 0 0 0 0 10 1592 2532 3047 3221 2858 2861 2244 2004 2222 2252 2262 2268 2244 2415 2136 1795 1483 1260 986 762 643 613 534 415 274 321 282
0 0 0 0 0 0 0 0 0 0 0 0 0 0 0 0 0 0 0 0 0 0 364 2563 2721 3172 2951 2660 2430 1973 2121 2375 2406 2397 2310 2474 2160 1820 1617 1492 1139 690 553 581 497 360 222 187 96
0 0 0 0 0 0 0 0 0 0 0 0 0 0 0 0 0 0 0 0 0 0 195 1767 2557 3002 2955 2794 2849 2107 1970 2581 2274 2237 2717 2442 2503 2163 1614 1411 1117 835 505 500 365 123 139 78 76
0 0 0 0 0 0 0 0 0 0 0 0 0 0 0 0 0 0 0 0 0 0 0 636 1270 1882 3015 2654 2438 1881 1751 2265 2567 2305 2450 2592 2587 2132 1776 1441 1253 942 481 155 103 70 60 71 34
0 0 0 0 0 0 0 0 0 0 0 0 0 0 0 0 0 0 0 0 0 0 0 0 7 1237 1829 2614 2241 1932 1798 1851 2099 2586 2467 2458 2579 2129 1813 1437 1188 865 305 45 16 49 39 42 41
0 0 0 0 0 0 0 0 0 0 0 0 0 0 0 0 0 0 0 0 0 0 0 0 0 0 299 1618 2393 2147 1918 1785 1773 1850 2419 2103 2017 2243 1899 1469 1221 786 225 46 10 4 16 47 73
0 0 0 0 0 0 0 0 0 0 0 0 0 1 0 0 0 0 0 0 0 0 0 0 7 27 20 325 1191 1765 2102 1895 1680 1472 1554 2086 1644 1792 1819 1306 859 644 245 72 19 3 17 13 38
0 0 0 0 0 0 0 0 0 0 0 0 0 0 0 0 0 0 0 4 0 0 0 1 281 313 381 8 11 739 1589 2400 1735 1366 1312 1427 1847 1726 1527 1052 678 631 213 47 7 1 0 1 1
0 0 0 0 0 0 0 0 0 0 0 0 0 0 0 0 0 0 12 1 0 0 344 357 507 502 514 296 83 945 1224 882 644 797 981 1202 1405 1323 1298 1027 501 352 90 30 2 0 0 0 0
0 0 0 0 1 0 0 0 0 0 0 0 0 0 0 4 13 24 10 0 11 20 37 356 631 881 720 927 594 1047 941 645 543 574 507 675 914 893 859 713 348 161 58 6 0 1 0 0 0
0 0 0 0 2 3 0 1 0 0 0 0 0 0 1 29 58 20 0 0 0 20 38 180 246 531 933 1054 1023 1367 890 784 504 416 304 434 626 584 644 547 393 113 71 7 1 1 1 0 0
5 0 0 10 13 12 0 3 0 0 0 0 0 0 55 119 36 0 11 3 28 162 219 391 193 125 267 335 340 1116 996 572 440 421 436 406 465 601 488 347 484 86 42 17 1 2 3 0 0
38 20 41 47 31 2 0 0 0 0 0 1 0 34 142 60 30 32 32 18 20 31 66 11 23 75 288 287 375 518 841 763 799 962 865 662 619 669 513 488 432 73 7 1 0 3 8 1 2
36 5 58 32 27 19 19 2 0 0 0 23 1 189 93 66 74 56 22 21 21 13 7 10 0 34 255 178 173 309 582 826 872 718 680 654 686 354 131 112 36 32 2 0 0 0 2 1 2
60 105 94 125 75 68 4 1 0 0 13 82 147 114 102 108 65 43 14 20 17 0 18 28 0 0 45 151 98 181 259 572 852 797 740 744 536 184 61 0 0 0 0 1 1 1 3 1 4
85 51 92 34 61 35 0 5 31 9 32 106 73 51 58 28 0 0 3 14 13 9 12 30 1 0 0 12 71 107 203 241 513 623 651 503 481 200 46 0 1 1 0 1 1 2 3 0 0
84 45 53 91 187 45 53 25 94 23 0 67 7 0 0 0 0 0 0 10 16 28 16 1 0 0 0 0 1 66 87 51 164 441 632 712 631 287 49 0 1 1 1 1 1 1 2 7 2
18 10 132 2 17 5 106 15 1 9 1 2 0 0 0 0 0 0 0 6 6 8 1 0 0 0 0 0 0 8 79 58 147 315 438 561 600 322 13 0 1 1 1 1 1 1 0 1 12

GFSSGP_con_sbcape_129.txt.gz
CAPE
0 0 0 0 0 0 0 0 0 0 0 0 0 0 0 0 0 0 140 342 721 974 1246 1336 1424 1605 1700 1892 2020 1976 2041 2134 2128 2192 2157 2225 2237 2264 2239 2184 1975 1584 1608 1383 1293 1426 1397 1414 1402
0 0 0 0 0 0 0 0 0 0 0 0 0 0 0 0 0 0 356 579 814 794 1056 1092 1366 1560 1716 1780 2041 2105 2247 2279 2221 2288 2279 2309 2366 2335 2299 2027 818 608 843 1032 917 1111 1245 1219 1348
0 0 0 0 0 0 0 0 0 0 0 0 0 0 0 0 0 0 280 963 821 779 983 1142 1275 1517 1692 1754 1948 2141 2224 2141 2163 2209 2349 2361 2444 2470 2234 1536 1034 499 542 980 810 735 1115 1255 1191
0 0 0 0 0 0 0 0 0 0 0 0 0 0 0 0 0 0 193 720 761 1116 1062 901 1146 1445 1650 1811 2031 2166 2184 2018 2036 2110 2355 2434 2441 2467 2088 1146 1069 664 400 1030 886 691 769 908 1004
0 0 0 0 0 0 0 0 0 0 0 0 0 0 0 0 0 0 0 319 502 1330 853 822 1039 1402 1666 1947 2149 2137 2149 2030 1976 2031 2229 2351 2371 2120 1603 1123 637 566 448 1072 808 753 800 828 932
0 0 0 0 0 0 0 0 0 0 0 0 0 0 0 0 0 0 0 122 1480 1192 811 835 1051 1412 1612 1796 1950 2036 1976 1826 1935 1958 2109 2131 2114 1523 1280 984 456 516 721 772 734 829 924 794 833
0 0 0 0 0 0 0 0 0 0 0 0 0 0 0 0 0 0 0 1398 1434 1370 883 783 902 1378 1475 1524 1737 1918 1857 1645 1794 1525 1991 2006 1608 793 568 955 495 407 368 768 640 768 884 834 808
0 0 0 0 0 0 0 0 0 0 0 0 0 0 0 0 0 0 79 1692 1944 1546 1077 761 756 978 1066 1150 1389 1633 1512 1527 1719 1601 1809 1663 1042 253 470 564 541 587 627 988 1049 834 760 742 593
0 0 0 0 0 0 0 0 0 0 0 0 0 0 0 0 0 18 300 1524 2170 2157 1502 1064 972 956 1069 1095 1124 1318 1413 1315 1551 1523 1650 1049 641 173 462 443 657 943 928 1003 937 667 530 416 288
0 0 0 0 0 0 0 0 0 0 0 0 0 0 0 0 0 2 247 1225 1968 2325 2082 1493 1266 1206 1239 1548 1229 861 1140 1125 1182 1547 1659 1049 698 252 289 536 618 853 835 1015 722 474 252 167 132
0 0 0 0 0 0 0 0 0 0 0 0 0 0 0 0 0 0 181 477 1526 2325 2547 2010 1741 1508 1528 1702 1169 1178 1075 1124 1131 1276 1570 1679 1396 688 501 436 478 666 831 649 428 151 113 177 128
0 0 0 0 0 0 0 0 0 0 0 0 0 0 0 0 0 0 0 44 794 1812 2422 2399 2151 1877 1795 1287 1368 1289 1385 1218 1342 1424 1540 1589 1585 1141 667 549 500 729 664 385 241 89 113 189 156
0 0 0 0 0 0 0 0 0 0 0 0 0 0 0 0 0 0 0 0 8 1402 2144 2405 2273 2126 2105 1609 1604 1455 1467 1447 1470 1482 1763 1579 1687 1431 958 629 739 753 540 406 150 90 163 270 205
0 0 0 0 0 0 0 0 0 0 0 0 0 0 0 0 0 0 0 0 0 0 1516 2215 2589 2337 1996 1932 1526 1542 1408 1434 1483 1479 1588 1813 1573 1266 1035 597 693 567 484 433 314 175 177 185 140
0 0 0 0 0 0 0 0 0 0 0 0 0 0 0 0 0 0 0 0 0 0 50 1945 2474 2546 2288 2094 1585 1404 1330 1511 1600 1654 1416 1721 1678 1226 968 849 616 424 348 300 249 183 78 56 60
0 0 0 0 0 0 0 0 0 0 0 0 0 0 0 0 0 0 0 0 0 0 0 1928 2617 2635 2564 2084 1835 1491 1274 1490 1630 1519 1619 1765 1753 1387 994 948 753 411 338 300 209 25 6 19 24
0 0 0 0 0 0 0 0 0 0 0 0 0 0 0 0 0 0 0 0 0 0 0 162 1348 2505 2244 2107 2008 1695 1363 1567 1557 1867 1632 1764 1914 1486 1150 947 637 330 331 191 45 1 0 5 29
0 0 0 0 0 0 0 0 0 0 0 0 0 0 0 0 0 0 0 0 0 0 0 0 0 403 1425 1854 1745 1450 1163 1244 1285 1310 1964 1708 1979 1466 1243 795 702 359 123 67 38 1 0 0 3
0 0 0 0 0 0 0 0 0 0 0 0 0 0 0 0 0 0 0 0 0 0 0 0 0 0 0 707 1768 1550 1519 1218 1135 1247 1351 1847 1805 1613 1217 861 743 370 159 94 0 0 3 2 3
0 0 0 0 0 0 0 0 0 0 0 0 0 0 0 0 0 0 0 0 0 0 26 23 16 1 0 0 243 1301 1787 1431 1375 1202 977 1492 1544 1495 1214 1141 895 639 288 63 0 0 6 0 3
0 0 0 0 0 0 0 0 0 0 0 0 0 0 0 0 0 0 13 4 0 29 50 46 41 104 129 1 0 6 469 886 1235 1240 1088 1010 1331 1315 1451 985 817 617 363 145 37 3 6 2 2
0 0 0 0 0 0 0 0 0 0 0 0 0 0 0 0 0 7 0 11 17 12 10 61 65 16 56 217 0 96 357 583 614 1041 1157 963 963 1288 1328 884 724 609 336 127 55 2 0 0 1
0 0 0 0 0 0 0 0 0 0 0 0 0 0 0 0 15 6 0 38 25 21 0 44 60 33 37 145 203 320 395 164 61 153 483 655 675 977 904 735 416 445 259 143 55 11 0 0 0
0 0 0 0 0 0 0 0 0 0 0 0 0 0 0 0 0 0 0 42 42 24 13 20 0 0 3 59 86 43 490 289 157 170 281 313 415 483 687 553 301 215 168 23 10 0 5 0 0
0 9 4 1 0 0 0 0 0 0 0 0 0 1 0 2 2 10 8 4 11 26 22 35 7 2 58 113 94 57 146 448 221 190 177 163 238 420 390 470 450 221 92 17 2 4 13 0 0
0 21 34 29 1 0 2 3 0 0 0 0 0 63 8 8 6 0 0 1 14 44 39 26 0 0 8 105 82 79 98 306 522 306 230 380 275 273 361 316 362 266 79 15 1 1 5 2 0
0 0 16 60 4 30 0 0 0 1 0 0 0 62 8 0 0 0 0 0 0 32 19 2 6 0 0 4 27 41 58 217 361 714 508 576 477 195 174 173 324 203 53 5 0 1 1 1 2
48 78 28 78 51 28 0 0 0 4 111 0 38 67 10 0 0 0 0 0 1 24 22 8 1 0 0 0 0 0 18 85 228 354 523 430 350 167 9 0 0 0 0 0 0 1 1 1 3
0 44 60 51 50 31 34 0 18 3 1 0 0 0 0 0 0 0 0 0 7 1 0 0 0 0 0 0 0 0 0 5 65 98 193 378 328 102 0 0 0 0 0 0 1 0 1 4 2
31 31 184 15 0 0 0 0 0 1 3 0 0 0 0 0 0 0 0 0 0 0 0 0 0 0 0 0 0 0 0 1 38 38 66 236 334 86 0 0 0 0 0 0 1 1 2 5 2